<?xml version="1.0" encoding="UTF-8" standalone="no" ?>
<gpx xmlns="http://www.topografix.com/GPX/1/1" xmlns:xsi="http://www.w3.org/2001/XMLSchema-instance" xsi:schemaLocation="http://www.topografix.com/GPX/1/1 http://www.topografix.com/GPX/1/1/gpx.xsd" version="1.1" creator="VisuGPX - https://www.visugpx.com">
  <metadata>
    <name>randogps63-330</name>
  </metadata>
  <trk>
    <name><![CDATA[randogps63-330]]></name>
    <trkseg>
      <trkpt lat="45.89785" lon="3.04915">
        <ele>433.4</ele>
        <time>2018-07-01T07:02:30Z</time>
      </trkpt>
      <trkpt lat="45.89792" lon="3.04905">
        <ele>434.7</ele>
        <time>2018-07-01T07:02:40Z</time>
      </trkpt>
      <trkpt lat="45.89796" lon="3.04901">
        <ele>435.1</ele>
        <time>2018-07-01T07:02:44Z</time>
      </trkpt>
      <trkpt lat="45.89798" lon="3.04899">
        <ele>435.2</ele>
        <time>2018-07-01T07:02:46Z</time>
      </trkpt>
      <trkpt lat="45.89801" lon="3.04897">
        <ele>435.3</ele>
        <time>2018-07-01T07:02:49Z</time>
      </trkpt>
      <trkpt lat="45.89805" lon="3.04895">
        <ele>435.2</ele>
        <time>2018-07-01T07:02:52Z</time>
      </trkpt>
      <trkpt lat="45.89812" lon="3.04893">
        <ele>434.9</ele>
        <time>2018-07-01T07:02:57Z</time>
      </trkpt>
      <trkpt lat="45.89817" lon="3.04891">
        <ele>434.6</ele>
        <time>2018-07-01T07:03:01Z</time>
      </trkpt>
      <trkpt lat="45.89821" lon="3.04888">
        <ele>434.5</ele>
        <time>2018-07-01T07:03:04Z</time>
      </trkpt>
      <trkpt lat="45.89826" lon="3.04884">
        <ele>434.4</ele>
        <time>2018-07-01T07:03:08Z</time>
      </trkpt>
      <trkpt lat="45.89838" lon="3.04869">
        <ele>434.6</ele>
        <time>2018-07-01T07:03:20Z</time>
      </trkpt>
      <trkpt lat="45.89841" lon="3.04866">
        <ele>435</ele>
        <time>2018-07-01T07:03:23Z</time>
      </trkpt>
      <trkpt lat="45.8985" lon="3.0486">
        <ele>435.8</ele>
        <time>2018-07-01T07:03:32Z</time>
      </trkpt>
      <trkpt lat="45.89853" lon="3.04859">
        <ele>436.1</ele>
        <time>2018-07-01T07:03:35Z</time>
      </trkpt>
      <trkpt lat="45.89858" lon="3.04858">
        <ele>436.4</ele>
        <time>2018-07-01T07:03:40Z</time>
      </trkpt>
      <trkpt lat="45.89862" lon="3.04857">
        <ele>436.7</ele>
        <time>2018-07-01T07:03:43Z</time>
      </trkpt>
      <trkpt lat="45.89872" lon="3.04851">
        <ele>437.5</ele>
        <time>2018-07-01T07:03:52Z</time>
      </trkpt>
      <trkpt lat="45.89885" lon="3.04845">
        <ele>438.3</ele>
        <time>2018-07-01T07:04:03Z</time>
      </trkpt>
      <trkpt lat="45.8989" lon="3.04842">
        <ele>438.7</ele>
        <time>2018-07-01T07:04:08Z</time>
      </trkpt>
      <trkpt lat="45.89894" lon="3.04838">
        <ele>438.9</ele>
        <time>2018-07-01T07:04:12Z</time>
      </trkpt>
      <trkpt lat="45.89896" lon="3.04836">
        <ele>439</ele>
        <time>2018-07-01T07:04:14Z</time>
      </trkpt>
      <trkpt lat="45.89898" lon="3.04834">
        <ele>439.1</ele>
        <time>2018-07-01T07:04:16Z</time>
      </trkpt>
      <trkpt lat="45.899" lon="3.0483">
        <ele>439.5</ele>
        <time>2018-07-01T07:04:19Z</time>
      </trkpt>
      <trkpt lat="45.89901" lon="3.04827">
        <ele>439.9</ele>
        <time>2018-07-01T07:04:21Z</time>
      </trkpt>
      <trkpt lat="45.89902" lon="3.04823">
        <ele>440.4</ele>
        <time>2018-07-01T07:04:24Z</time>
      </trkpt>
      <trkpt lat="45.89903" lon="3.0482">
        <ele>440.8</ele>
        <time>2018-07-01T07:04:26Z</time>
      </trkpt>
      <trkpt lat="45.89903" lon="3.04816">
        <ele>441.2</ele>
        <time>2018-07-01T07:04:29Z</time>
      </trkpt>
      <trkpt lat="45.89903" lon="3.04812">
        <ele>441.7</ele>
        <time>2018-07-01T07:04:32Z</time>
      </trkpt>
      <trkpt lat="45.89903" lon="3.04809">
        <ele>441.9</ele>
        <time>2018-07-01T07:04:34Z</time>
      </trkpt>
      <trkpt lat="45.89902" lon="3.04807">
        <ele>442.2</ele>
        <time>2018-07-01T07:04:36Z</time>
      </trkpt>
      <trkpt lat="45.89901" lon="3.04805">
        <ele>442.4</ele>
        <time>2018-07-01T07:04:38Z</time>
      </trkpt>
      <trkpt lat="45.89899" lon="3.048">
        <ele>442.9</ele>
        <time>2018-07-01T07:04:42Z</time>
      </trkpt>
      <trkpt lat="45.89895" lon="3.04794">
        <ele>443.4</ele>
        <time>2018-07-01T07:04:47Z</time>
      </trkpt>
      <trkpt lat="45.89892" lon="3.0479">
        <ele>443.9</ele>
        <time>2018-07-01T07:04:50Z</time>
      </trkpt>
      <trkpt lat="45.89891" lon="3.04788">
        <ele>444.2</ele>
        <time>2018-07-01T07:04:52Z</time>
      </trkpt>
      <trkpt lat="45.89888" lon="3.04782">
        <ele>444.9</ele>
        <time>2018-07-01T07:04:56Z</time>
      </trkpt>
      <trkpt lat="45.89887" lon="3.04779">
        <ele>445.2</ele>
        <time>2018-07-01T07:04:58Z</time>
      </trkpt>
      <trkpt lat="45.89886" lon="3.04776">
        <ele>445.6</ele>
        <time>2018-07-01T07:05:00Z</time>
      </trkpt>
      <trkpt lat="45.89886" lon="3.04773">
        <ele>446</ele>
        <time>2018-07-01T07:05:02Z</time>
      </trkpt>
      <trkpt lat="45.89886" lon="3.0477">
        <ele>446.3</ele>
        <time>2018-07-01T07:05:04Z</time>
      </trkpt>
      <trkpt lat="45.89887" lon="3.04767">
        <ele>446.6</ele>
        <time>2018-07-01T07:05:06Z</time>
      </trkpt>
      <trkpt lat="45.8989" lon="3.04761">
        <ele>447.3</ele>
        <time>2018-07-01T07:05:11Z</time>
      </trkpt>
      <trkpt lat="45.89891" lon="3.04758">
        <ele>447.7</ele>
        <time>2018-07-01T07:05:13Z</time>
      </trkpt>
      <trkpt lat="45.89892" lon="3.04756">
        <ele>447.9</ele>
        <time>2018-07-01T07:05:14Z</time>
      </trkpt>
      <trkpt lat="45.89892" lon="3.04753">
        <ele>448.3</ele>
        <time>2018-07-01T07:05:16Z</time>
      </trkpt>
      <trkpt lat="45.89892" lon="3.04749">
        <ele>448.7</ele>
        <time>2018-07-01T07:05:18Z</time>
      </trkpt>
      <trkpt lat="45.89892" lon="3.04744">
        <ele>449.8</ele>
        <time>2018-07-01T07:05:21Z</time>
      </trkpt>
      <trkpt lat="45.89891" lon="3.04739">
        <ele>450.9</ele>
        <time>2018-07-01T07:05:24Z</time>
      </trkpt>
      <trkpt lat="45.89889" lon="3.04733">
        <ele>452</ele>
        <time>2018-07-01T07:05:28Z</time>
      </trkpt>
      <trkpt lat="45.89887" lon="3.04728">
        <ele>453.1</ele>
        <time>2018-07-01T07:05:32Z</time>
      </trkpt>
      <trkpt lat="45.89883" lon="3.04717">
        <ele>455.6</ele>
        <time>2018-07-01T07:05:40Z</time>
      </trkpt>
      <trkpt lat="45.89881" lon="3.04713">
        <ele>456.5</ele>
        <time>2018-07-01T07:05:49Z</time>
      </trkpt>
      <trkpt lat="45.89881" lon="3.04713">
        <ele>456.5</ele>
        <time>2018-07-01T07:06:40Z</time>
      </trkpt>
      <trkpt lat="45.89875" lon="3.04714">
        <ele>456.6</ele>
        <time>2018-07-01T07:06:49Z</time>
      </trkpt>
      <trkpt lat="45.89871" lon="3.04714">
        <ele>456.7</ele>
        <time>2018-07-01T07:06:53Z</time>
      </trkpt>
      <trkpt lat="45.8987" lon="3.04715">
        <ele>456.6</ele>
        <time>2018-07-01T07:06:55Z</time>
      </trkpt>
      <trkpt lat="45.89868" lon="3.04716">
        <ele>456.5</ele>
        <time>2018-07-01T07:06:57Z</time>
      </trkpt>
      <trkpt lat="45.89867" lon="3.04717">
        <ele>456.3</ele>
        <time>2018-07-01T07:06:59Z</time>
      </trkpt>
      <trkpt lat="45.89864" lon="3.0472">
        <ele>455.8</ele>
        <time>2018-07-01T07:07:03Z</time>
      </trkpt>
      <trkpt lat="45.89861" lon="3.04723">
        <ele>455.4</ele>
        <time>2018-07-01T07:07:06Z</time>
      </trkpt>
      <trkpt lat="45.89859" lon="3.04724">
        <ele>455.2</ele>
        <time>2018-07-01T07:07:08Z</time>
      </trkpt>
      <trkpt lat="45.89856" lon="3.04725">
        <ele>455.1</ele>
        <time>2018-07-01T07:07:11Z</time>
      </trkpt>
      <trkpt lat="45.89852" lon="3.04726">
        <ele>455</ele>
        <time>2018-07-01T07:07:14Z</time>
      </trkpt>
      <trkpt lat="45.8985" lon="3.04727">
        <ele>454.8</ele>
        <time>2018-07-01T07:07:16Z</time>
      </trkpt>
      <trkpt lat="45.89848" lon="3.04729">
        <ele>454.6</ele>
        <time>2018-07-01T07:07:18Z</time>
      </trkpt>
      <trkpt lat="45.89844" lon="3.04732">
        <ele>453.9</ele>
        <time>2018-07-01T07:07:21Z</time>
      </trkpt>
      <trkpt lat="45.89843" lon="3.04734">
        <ele>453.6</ele>
        <time>2018-07-01T07:07:22Z</time>
      </trkpt>
      <trkpt lat="45.8984" lon="3.04737">
        <ele>452.9</ele>
        <time>2018-07-01T07:07:25Z</time>
      </trkpt>
      <trkpt lat="45.89838" lon="3.04739">
        <ele>452.6</ele>
        <time>2018-07-01T07:07:27Z</time>
      </trkpt>
      <trkpt lat="45.89835" lon="3.04739">
        <ele>452.5</ele>
        <time>2018-07-01T07:07:29Z</time>
      </trkpt>
      <trkpt lat="45.89833" lon="3.04739">
        <ele>452.8</ele>
        <time>2018-07-01T07:07:31Z</time>
      </trkpt>
      <trkpt lat="45.89827" lon="3.04738">
        <ele>455.7</ele>
        <time>2018-07-01T07:07:36Z</time>
      </trkpt>
      <trkpt lat="45.89823" lon="3.04738">
        <ele>457.2</ele>
        <time>2018-07-01T07:07:39Z</time>
      </trkpt>
      <trkpt lat="45.8982" lon="3.04739">
        <ele>458.2</ele>
        <time>2018-07-01T07:07:42Z</time>
      </trkpt>
      <trkpt lat="45.89817" lon="3.04742">
        <ele>458.8</ele>
        <time>2018-07-01T07:07:46Z</time>
      </trkpt>
      <trkpt lat="45.89814" lon="3.04744">
        <ele>459.4</ele>
        <time>2018-07-01T07:07:49Z</time>
      </trkpt>
      <trkpt lat="45.89812" lon="3.04745">
        <ele>459.9</ele>
        <time>2018-07-01T07:07:51Z</time>
      </trkpt>
      <trkpt lat="45.89799" lon="3.04751">
        <ele>463.9</ele>
        <time>2018-07-01T07:08:04Z</time>
      </trkpt>
      <trkpt lat="45.89787" lon="3.04757">
        <ele>467</ele>
        <time>2018-07-01T07:08:15Z</time>
      </trkpt>
      <trkpt lat="45.89778" lon="3.04762">
        <ele>469.1</ele>
        <time>2018-07-01T07:08:24Z</time>
      </trkpt>
      <trkpt lat="45.89771" lon="3.04767">
        <ele>470.3</ele>
        <time>2018-07-01T07:08:32Z</time>
      </trkpt>
      <trkpt lat="45.89767" lon="3.04769">
        <ele>471</ele>
        <time>2018-07-01T07:08:36Z</time>
      </trkpt>
      <trkpt lat="45.89762" lon="3.04772">
        <ele>472.1</ele>
        <time>2018-07-01T07:08:42Z</time>
      </trkpt>
      <trkpt lat="45.8976" lon="3.04773">
        <ele>472.5</ele>
        <time>2018-07-01T07:08:45Z</time>
      </trkpt>
      <trkpt lat="45.89754" lon="3.04779">
        <ele>472.6</ele>
        <time>2018-07-01T07:08:53Z</time>
      </trkpt>
      <trkpt lat="45.8975" lon="3.04782">
        <ele>472.9</ele>
        <time>2018-07-01T07:08:58Z</time>
      </trkpt>
      <trkpt lat="45.89746" lon="3.04785">
        <ele>472.9</ele>
        <time>2018-07-01T07:09:02Z</time>
      </trkpt>
      <trkpt lat="45.89729" lon="3.04796">
        <ele>473.6</ele>
        <time>2018-07-01T07:09:17Z</time>
      </trkpt>
      <trkpt lat="45.89721" lon="3.048">
        <ele>474.2</ele>
        <time>2018-07-01T07:09:25Z</time>
      </trkpt>
      <trkpt lat="45.89713" lon="3.04804">
        <ele>475</ele>
        <time>2018-07-01T07:09:34Z</time>
      </trkpt>
      <trkpt lat="45.89699" lon="3.0481">
        <ele>477.1</ele>
        <time>2018-07-01T07:09:49Z</time>
      </trkpt>
      <trkpt lat="45.89694" lon="3.04812">
        <ele>477.7</ele>
        <time>2018-07-01T07:09:54Z</time>
      </trkpt>
      <trkpt lat="45.89682" lon="3.04819">
        <ele>478.7</ele>
        <time>2018-07-01T07:10:05Z</time>
      </trkpt>
      <trkpt lat="45.89678" lon="3.0482">
        <ele>479.2</ele>
        <time>2018-07-01T07:10:08Z</time>
      </trkpt>
      <trkpt lat="45.89675" lon="3.04821">
        <ele>479.8</ele>
        <time>2018-07-01T07:10:10Z</time>
      </trkpt>
      <trkpt lat="45.89671" lon="3.04821">
        <ele>480.8</ele>
        <time>2018-07-01T07:10:13Z</time>
      </trkpt>
      <trkpt lat="45.89666" lon="3.0482">
        <ele>482.2</ele>
        <time>2018-07-01T07:10:17Z</time>
      </trkpt>
      <trkpt lat="45.89664" lon="3.0482">
        <ele>482.4</ele>
        <time>2018-07-01T07:10:19Z</time>
      </trkpt>
      <trkpt lat="45.89662" lon="3.04819">
        <ele>482.8</ele>
        <time>2018-07-01T07:10:22Z</time>
      </trkpt>
      <trkpt lat="45.8966" lon="3.04817">
        <ele>483.2</ele>
        <time>2018-07-01T07:10:25Z</time>
      </trkpt>
      <trkpt lat="45.89659" lon="3.04816">
        <ele>483.6</ele>
        <time>2018-07-01T07:10:30Z</time>
      </trkpt>
      <trkpt lat="45.89659" lon="3.04816">
        <ele>483.7</ele>
        <time>2018-07-01T07:10:33Z</time>
      </trkpt>
      <trkpt lat="45.89657" lon="3.04813">
        <ele>484.6</ele>
        <time>2018-07-01T07:10:37Z</time>
      </trkpt>
      <trkpt lat="45.89648" lon="3.04806">
        <ele>486.7</ele>
        <time>2018-07-01T07:10:45Z</time>
      </trkpt>
      <trkpt lat="45.89645" lon="3.04804">
        <ele>487.3</ele>
        <time>2018-07-01T07:10:49Z</time>
      </trkpt>
      <trkpt lat="45.89637" lon="3.04802">
        <ele>488.1</ele>
        <time>2018-07-01T07:10:57Z</time>
      </trkpt>
      <trkpt lat="45.89635" lon="3.04801">
        <ele>488.4</ele>
        <time>2018-07-01T07:10:59Z</time>
      </trkpt>
      <trkpt lat="45.8963" lon="3.04798">
        <ele>489.3</ele>
        <time>2018-07-01T07:11:03Z</time>
      </trkpt>
      <trkpt lat="45.89622" lon="3.04792">
        <ele>491.1</ele>
        <time>2018-07-01T07:11:14Z</time>
      </trkpt>
      <trkpt lat="45.8962" lon="3.04791">
        <ele>491.4</ele>
        <time>2018-07-01T07:11:17Z</time>
      </trkpt>
      <trkpt lat="45.89614" lon="3.04789">
        <ele>492.1</ele>
        <time>2018-07-01T07:11:23Z</time>
      </trkpt>
      <trkpt lat="45.89608" lon="3.04786">
        <ele>492.9</ele>
        <time>2018-07-01T07:11:28Z</time>
      </trkpt>
      <trkpt lat="45.89601" lon="3.04782">
        <ele>494.1</ele>
        <time>2018-07-01T07:11:41Z</time>
      </trkpt>
      <trkpt lat="45.89596" lon="3.04778">
        <ele>495.3</ele>
        <time>2018-07-01T07:11:50Z</time>
      </trkpt>
      <trkpt lat="45.89591" lon="3.04775">
        <ele>496.4</ele>
        <time>2018-07-01T07:11:54Z</time>
      </trkpt>
      <trkpt lat="45.89587" lon="3.0477">
        <ele>497.9</ele>
        <time>2018-07-01T07:11:59Z</time>
      </trkpt>
      <trkpt lat="45.89581" lon="3.04762">
        <ele>500.1</ele>
        <time>2018-07-01T07:12:08Z</time>
      </trkpt>
      <trkpt lat="45.89579" lon="3.0476">
        <ele>500.6</ele>
        <time>2018-07-01T07:12:11Z</time>
      </trkpt>
      <trkpt lat="45.89576" lon="3.04758">
        <ele>501</ele>
        <time>2018-07-01T07:12:15Z</time>
      </trkpt>
      <trkpt lat="45.89568" lon="3.04755">
        <ele>501.6</ele>
        <time>2018-07-01T07:12:23Z</time>
      </trkpt>
      <trkpt lat="45.89563" lon="3.04752">
        <ele>502.2</ele>
        <time>2018-07-01T07:12:29Z</time>
      </trkpt>
      <trkpt lat="45.89561" lon="3.04751">
        <ele>502.3</ele>
        <time>2018-07-01T07:12:31Z</time>
      </trkpt>
      <trkpt lat="45.89558" lon="3.0475">
        <ele>502.4</ele>
        <time>2018-07-01T07:12:34Z</time>
      </trkpt>
      <trkpt lat="45.89553" lon="3.04749">
        <ele>502.3</ele>
        <time>2018-07-01T07:12:40Z</time>
      </trkpt>
      <trkpt lat="45.8955" lon="3.04749">
        <ele>502.5</ele>
        <time>2018-07-01T07:12:45Z</time>
      </trkpt>
      <trkpt lat="45.89547" lon="3.04746">
        <ele>503.1</ele>
        <time>2018-07-01T07:12:48Z</time>
      </trkpt>
      <trkpt lat="45.89544" lon="3.04743">
        <ele>503.6</ele>
        <time>2018-07-01T07:12:52Z</time>
      </trkpt>
      <trkpt lat="45.89533" lon="3.04737">
        <ele>504.9</ele>
        <time>2018-07-01T07:13:05Z</time>
      </trkpt>
      <trkpt lat="45.8953" lon="3.04736">
        <ele>504.8</ele>
        <time>2018-07-01T07:13:08Z</time>
      </trkpt>
      <trkpt lat="45.89524" lon="3.04736">
        <ele>504.4</ele>
        <time>2018-07-01T07:13:13Z</time>
      </trkpt>
      <trkpt lat="45.89521" lon="3.04735">
        <ele>504.5</ele>
        <time>2018-07-01T07:13:16Z</time>
      </trkpt>
      <trkpt lat="45.89516" lon="3.04732">
        <ele>504.8</ele>
        <time>2018-07-01T07:13:21Z</time>
      </trkpt>
      <trkpt lat="45.89496" lon="3.04724">
        <ele>505.8</ele>
        <time>2018-07-01T07:13:38Z</time>
      </trkpt>
      <trkpt lat="45.89491" lon="3.04721">
        <ele>506.3</ele>
        <time>2018-07-01T07:13:43Z</time>
      </trkpt>
      <trkpt lat="45.89483" lon="3.04716">
        <ele>507.2</ele>
        <time>2018-07-01T07:13:51Z</time>
      </trkpt>
      <trkpt lat="45.89477" lon="3.04712">
        <ele>508.2</ele>
        <time>2018-07-01T07:13:58Z</time>
      </trkpt>
      <trkpt lat="45.89476" lon="3.0471">
        <ele>508.5</ele>
        <time>2018-07-01T07:14:00Z</time>
      </trkpt>
      <trkpt lat="45.89474" lon="3.04707">
        <ele>509.2</ele>
        <time>2018-07-01T07:14:03Z</time>
      </trkpt>
      <trkpt lat="45.89473" lon="3.04702">
        <ele>510.6</ele>
        <time>2018-07-01T07:14:07Z</time>
      </trkpt>
      <trkpt lat="45.89473" lon="3.04699">
        <ele>511.4</ele>
        <time>2018-07-01T07:14:10Z</time>
      </trkpt>
      <trkpt lat="45.89473" lon="3.04698">
        <ele>511.7</ele>
        <time>2018-07-01T07:14:11Z</time>
      </trkpt>
      <trkpt lat="45.89474" lon="3.04696">
        <ele>512.1</ele>
        <time>2018-07-01T07:14:13Z</time>
      </trkpt>
      <trkpt lat="45.89475" lon="3.04696">
        <ele>512.4</ele>
        <time>2018-07-01T07:14:15Z</time>
      </trkpt>
      <trkpt lat="45.89475" lon="3.04695">
        <ele>512.5</ele>
        <time>2018-07-01T07:14:17Z</time>
      </trkpt>
      <trkpt lat="45.89478" lon="3.04696">
        <ele>512.5</ele>
        <time>2018-07-01T07:14:24Z</time>
      </trkpt>
      <trkpt lat="45.89481" lon="3.04695">
        <ele>512.8</ele>
        <time>2018-07-01T07:14:31Z</time>
      </trkpt>
      <trkpt lat="45.89484" lon="3.04695">
        <ele>512.9</ele>
        <time>2018-07-01T07:14:35Z</time>
      </trkpt>
      <trkpt lat="45.89488" lon="3.04695">
        <ele>513</ele>
        <time>2018-07-01T07:14:40Z</time>
      </trkpt>
      <trkpt lat="45.89495" lon="3.04697">
        <ele>512.9</ele>
        <time>2018-07-01T07:14:48Z</time>
      </trkpt>
      <trkpt lat="45.89504" lon="3.04698">
        <ele>513.1</ele>
        <time>2018-07-01T07:14:56Z</time>
      </trkpt>
      <trkpt lat="45.89508" lon="3.04699">
        <ele>513.4</ele>
        <time>2018-07-01T07:15:00Z</time>
      </trkpt>
      <trkpt lat="45.89513" lon="3.04698">
        <ele>513.9</ele>
        <time>2018-07-01T07:15:04Z</time>
      </trkpt>
      <trkpt lat="45.89521" lon="3.04696">
        <ele>515.2</ele>
        <time>2018-07-01T07:15:11Z</time>
      </trkpt>
      <trkpt lat="45.89524" lon="3.04696">
        <ele>515.6</ele>
        <time>2018-07-01T07:15:14Z</time>
      </trkpt>
      <trkpt lat="45.89526" lon="3.04696">
        <ele>515.7</ele>
        <time>2018-07-01T07:15:16Z</time>
      </trkpt>
      <trkpt lat="45.89528" lon="3.04697">
        <ele>515.7</ele>
        <time>2018-07-01T07:15:18Z</time>
      </trkpt>
      <trkpt lat="45.8953" lon="3.04698">
        <ele>515.6</ele>
        <time>2018-07-01T07:15:24Z</time>
      </trkpt>
      <trkpt lat="45.89534" lon="3.047">
        <ele>515.6</ele>
        <time>2018-07-01T07:16:36Z</time>
      </trkpt>
      <trkpt lat="45.89537" lon="3.04703">
        <ele>515</ele>
        <time>2018-07-01T07:16:41Z</time>
      </trkpt>
      <trkpt lat="45.89539" lon="3.04703">
        <ele>515</ele>
        <time>2018-07-01T07:16:43Z</time>
      </trkpt>
      <trkpt lat="45.8954" lon="3.04703">
        <ele>515.2</ele>
        <time>2018-07-01T07:16:45Z</time>
      </trkpt>
      <trkpt lat="45.89545" lon="3.04701">
        <ele>516.1</ele>
        <time>2018-07-01T07:16:53Z</time>
      </trkpt>
      <trkpt lat="45.89547" lon="3.04701">
        <ele>516.5</ele>
        <time>2018-07-01T07:16:57Z</time>
      </trkpt>
      <trkpt lat="45.89549" lon="3.04701">
        <ele>516.6</ele>
        <time>2018-07-01T07:17:00Z</time>
      </trkpt>
      <trkpt lat="45.89562" lon="3.04704">
        <ele>517</ele>
        <time>2018-07-01T07:17:14Z</time>
      </trkpt>
      <trkpt lat="45.89578" lon="3.04706">
        <ele>517.7</ele>
        <time>2018-07-01T07:17:32Z</time>
      </trkpt>
      <trkpt lat="45.89594" lon="3.0471">
        <ele>517.2</ele>
        <time>2018-07-01T07:17:50Z</time>
      </trkpt>
      <trkpt lat="45.89599" lon="3.0471">
        <ele>517</ele>
        <time>2018-07-01T07:17:54Z</time>
      </trkpt>
      <trkpt lat="45.89604" lon="3.0471">
        <ele>517</ele>
        <time>2018-07-01T07:17:58Z</time>
      </trkpt>
      <trkpt lat="45.89615" lon="3.04709">
        <ele>517.6</ele>
        <time>2018-07-01T07:18:09Z</time>
      </trkpt>
      <trkpt lat="45.8962" lon="3.04709">
        <ele>517.6</ele>
        <time>2018-07-01T07:18:14Z</time>
      </trkpt>
      <trkpt lat="45.89626" lon="3.0471">
        <ele>517.1</ele>
        <time>2018-07-01T07:18:20Z</time>
      </trkpt>
      <trkpt lat="45.8963" lon="3.04712">
        <ele>516.7</ele>
        <time>2018-07-01T07:18:23Z</time>
      </trkpt>
      <trkpt lat="45.89636" lon="3.04713">
        <ele>516.4</ele>
        <time>2018-07-01T07:18:28Z</time>
      </trkpt>
      <trkpt lat="45.8964" lon="3.04713">
        <ele>516.3</ele>
        <time>2018-07-01T07:18:32Z</time>
      </trkpt>
      <trkpt lat="45.89645" lon="3.04713">
        <ele>516.3</ele>
        <time>2018-07-01T07:18:36Z</time>
      </trkpt>
      <trkpt lat="45.89649" lon="3.04713">
        <ele>516.5</ele>
        <time>2018-07-01T07:18:40Z</time>
      </trkpt>
      <trkpt lat="45.89653" lon="3.04712">
        <ele>516.9</ele>
        <time>2018-07-01T07:18:47Z</time>
      </trkpt>
      <trkpt lat="45.89655" lon="3.04712">
        <ele>516.9</ele>
        <time>2018-07-01T07:18:49Z</time>
      </trkpt>
      <trkpt lat="45.89659" lon="3.04712">
        <ele>516.7</ele>
        <time>2018-07-01T07:18:54Z</time>
      </trkpt>
      <trkpt lat="45.89664" lon="3.04714">
        <ele>516.2</ele>
        <time>2018-07-01T07:19:00Z</time>
      </trkpt>
      <trkpt lat="45.89666" lon="3.04714">
        <ele>516.3</ele>
        <time>2018-07-01T07:19:03Z</time>
      </trkpt>
      <trkpt lat="45.89668" lon="3.04713">
        <ele>516.2</ele>
        <time>2018-07-01T07:19:06Z</time>
      </trkpt>
      <trkpt lat="45.8967" lon="3.04714">
        <ele>515.5</ele>
        <time>2018-07-01T07:19:09Z</time>
      </trkpt>
      <trkpt lat="45.89679" lon="3.04717">
        <ele>512.5</ele>
        <time>2018-07-01T07:19:19Z</time>
      </trkpt>
      <trkpt lat="45.89682" lon="3.04717">
        <ele>511.7</ele>
        <time>2018-07-01T07:19:22Z</time>
      </trkpt>
      <trkpt lat="45.89684" lon="3.04717">
        <ele>511.3</ele>
        <time>2018-07-01T07:19:24Z</time>
      </trkpt>
      <trkpt lat="45.89687" lon="3.04716">
        <ele>510.8</ele>
        <time>2018-07-01T07:19:27Z</time>
      </trkpt>
      <trkpt lat="45.89697" lon="3.04712">
        <ele>510.1</ele>
        <time>2018-07-01T07:19:39Z</time>
      </trkpt>
      <trkpt lat="45.89701" lon="3.04709">
        <ele>510</ele>
        <time>2018-07-01T07:19:44Z</time>
      </trkpt>
      <trkpt lat="45.89703" lon="3.04706">
        <ele>510.3</ele>
        <time>2018-07-01T07:19:47Z</time>
      </trkpt>
      <trkpt lat="45.89705" lon="3.04704">
        <ele>510.9</ele>
        <time>2018-07-01T07:19:49Z</time>
      </trkpt>
      <trkpt lat="45.89705" lon="3.04702">
        <ele>511.2</ele>
        <time>2018-07-01T07:19:50Z</time>
      </trkpt>
      <trkpt lat="45.89708" lon="3.04694">
        <ele>513.5</ele>
        <time>2018-07-01T07:19:55Z</time>
      </trkpt>
      <trkpt lat="45.89709" lon="3.04691">
        <ele>514.3</ele>
        <time>2018-07-01T07:19:57Z</time>
      </trkpt>
      <trkpt lat="45.89711" lon="3.04688">
        <ele>514.8</ele>
        <time>2018-07-01T07:19:59Z</time>
      </trkpt>
      <trkpt lat="45.89712" lon="3.04686">
        <ele>515.1</ele>
        <time>2018-07-01T07:20:01Z</time>
      </trkpt>
      <trkpt lat="45.89721" lon="3.04679">
        <ele>515.9</ele>
        <time>2018-07-01T07:20:10Z</time>
      </trkpt>
      <trkpt lat="45.89723" lon="3.04676">
        <ele>516.5</ele>
        <time>2018-07-01T07:20:13Z</time>
      </trkpt>
      <trkpt lat="45.89727" lon="3.0467">
        <ele>517.7</ele>
        <time>2018-07-01T07:20:18Z</time>
      </trkpt>
      <trkpt lat="45.89728" lon="3.04668">
        <ele>518.1</ele>
        <time>2018-07-01T07:20:20Z</time>
      </trkpt>
      <trkpt lat="45.89731" lon="3.04665">
        <ele>518.2</ele>
        <time>2018-07-01T07:20:23Z</time>
      </trkpt>
      <trkpt lat="45.89735" lon="3.04663">
        <ele>517.8</ele>
        <time>2018-07-01T07:20:27Z</time>
      </trkpt>
      <trkpt lat="45.89737" lon="3.04662">
        <ele>517.7</ele>
        <time>2018-07-01T07:20:29Z</time>
      </trkpt>
      <trkpt lat="45.89737" lon="3.04661">
        <ele>517.7</ele>
        <time>2018-07-01T07:20:30Z</time>
      </trkpt>
      <trkpt lat="45.89739" lon="3.04659">
        <ele>517.9</ele>
        <time>2018-07-01T07:20:32Z</time>
      </trkpt>
      <trkpt lat="45.8974" lon="3.04656">
        <ele>518.1</ele>
        <time>2018-07-01T07:20:34Z</time>
      </trkpt>
      <trkpt lat="45.89743" lon="3.04652">
        <ele>518.3</ele>
        <time>2018-07-01T07:20:37Z</time>
      </trkpt>
      <trkpt lat="45.89744" lon="3.04649">
        <ele>518.3</ele>
        <time>2018-07-01T07:20:39Z</time>
      </trkpt>
      <trkpt lat="45.89748" lon="3.04646">
        <ele>518.1</ele>
        <time>2018-07-01T07:20:43Z</time>
      </trkpt>
      <trkpt lat="45.89749" lon="3.04644">
        <ele>518</ele>
        <time>2018-07-01T07:20:45Z</time>
      </trkpt>
      <trkpt lat="45.89751" lon="3.04641">
        <ele>518</ele>
        <time>2018-07-01T07:20:48Z</time>
      </trkpt>
      <trkpt lat="45.89751" lon="3.04636">
        <ele>518.3</ele>
        <time>2018-07-01T07:20:51Z</time>
      </trkpt>
      <trkpt lat="45.89752" lon="3.04629">
        <ele>519.5</ele>
        <time>2018-07-01T07:20:55Z</time>
      </trkpt>
      <trkpt lat="45.89751" lon="3.04614">
        <ele>522.5</ele>
        <time>2018-07-01T07:21:03Z</time>
      </trkpt>
      <trkpt lat="45.8975" lon="3.04598">
        <ele>525.5</ele>
        <time>2018-07-01T07:21:12Z</time>
      </trkpt>
      <trkpt lat="45.8975" lon="3.04593">
        <ele>526.3</ele>
        <time>2018-07-01T07:21:15Z</time>
      </trkpt>
      <trkpt lat="45.8975" lon="3.0459">
        <ele>526.7</ele>
        <time>2018-07-01T07:21:17Z</time>
      </trkpt>
      <trkpt lat="45.89751" lon="3.04587">
        <ele>527</ele>
        <time>2018-07-01T07:21:19Z</time>
      </trkpt>
      <trkpt lat="45.89752" lon="3.04582">
        <ele>526.9</ele>
        <time>2018-07-01T07:21:23Z</time>
      </trkpt>
      <trkpt lat="45.89752" lon="3.04579">
        <ele>526.9</ele>
        <time>2018-07-01T07:21:25Z</time>
      </trkpt>
      <trkpt lat="45.89753" lon="3.04569">
        <ele>527.4</ele>
        <time>2018-07-01T07:21:31Z</time>
      </trkpt>
      <trkpt lat="45.89754" lon="3.04562">
        <ele>527.4</ele>
        <time>2018-07-01T07:21:35Z</time>
      </trkpt>
      <trkpt lat="45.89755" lon="3.04552">
        <ele>527.1</ele>
        <time>2018-07-01T07:21:41Z</time>
      </trkpt>
      <trkpt lat="45.89755" lon="3.04549">
        <ele>527.3</ele>
        <time>2018-07-01T07:21:43Z</time>
      </trkpt>
      <trkpt lat="45.89755" lon="3.04545">
        <ele>527.5</ele>
        <time>2018-07-01T07:21:45Z</time>
      </trkpt>
      <trkpt lat="45.89755" lon="3.04542">
        <ele>528</ele>
        <time>2018-07-01T07:21:47Z</time>
      </trkpt>
      <trkpt lat="45.89754" lon="3.04539">
        <ele>528.7</ele>
        <time>2018-07-01T07:21:49Z</time>
      </trkpt>
      <trkpt lat="45.89753" lon="3.04535">
        <ele>529.5</ele>
        <time>2018-07-01T07:21:51Z</time>
      </trkpt>
      <trkpt lat="45.89749" lon="3.04525">
        <ele>532.6</ele>
        <time>2018-07-01T07:21:58Z</time>
      </trkpt>
      <trkpt lat="45.89747" lon="3.04519">
        <ele>533.9</ele>
        <time>2018-07-01T07:22:03Z</time>
      </trkpt>
      <trkpt lat="45.89745" lon="3.04514">
        <ele>535.2</ele>
        <time>2018-07-01T07:22:07Z</time>
      </trkpt>
      <trkpt lat="45.89741" lon="3.04504">
        <ele>538.1</ele>
        <time>2018-07-01T07:22:14Z</time>
      </trkpt>
      <trkpt lat="45.8974" lon="3.04501">
        <ele>538.8</ele>
        <time>2018-07-01T07:22:16Z</time>
      </trkpt>
      <trkpt lat="45.89739" lon="3.04498">
        <ele>539.5</ele>
        <time>2018-07-01T07:22:18Z</time>
      </trkpt>
      <trkpt lat="45.89739" lon="3.04495">
        <ele>540.1</ele>
        <time>2018-07-01T07:22:20Z</time>
      </trkpt>
      <trkpt lat="45.89739" lon="3.04488">
        <ele>540.9</ele>
        <time>2018-07-01T07:22:24Z</time>
      </trkpt>
      <trkpt lat="45.8974" lon="3.04482">
        <ele>541.1</ele>
        <time>2018-07-01T07:22:28Z</time>
      </trkpt>
      <trkpt lat="45.89742" lon="3.04476">
        <ele>541</ele>
        <time>2018-07-01T07:22:32Z</time>
      </trkpt>
      <trkpt lat="45.89746" lon="3.04467">
        <ele>540.2</ele>
        <time>2018-07-01T07:22:38Z</time>
      </trkpt>
      <trkpt lat="45.89749" lon="3.04461">
        <ele>539.1</ele>
        <time>2018-07-01T07:22:43Z</time>
      </trkpt>
      <trkpt lat="45.89752" lon="3.04457">
        <ele>538.3</ele>
        <time>2018-07-01T07:22:47Z</time>
      </trkpt>
      <trkpt lat="45.89754" lon="3.04454">
        <ele>537.8</ele>
        <time>2018-07-01T07:22:51Z</time>
      </trkpt>
      <trkpt lat="45.89758" lon="3.04446">
        <ele>536.4</ele>
        <time>2018-07-01T07:22:56Z</time>
      </trkpt>
      <trkpt lat="45.89761" lon="3.04441">
        <ele>535.7</ele>
        <time>2018-07-01T07:22:59Z</time>
      </trkpt>
      <trkpt lat="45.89764" lon="3.04435">
        <ele>535.3</ele>
        <time>2018-07-01T07:23:03Z</time>
      </trkpt>
      <trkpt lat="45.89765" lon="3.04431">
        <ele>535.3</ele>
        <time>2018-07-01T07:23:06Z</time>
      </trkpt>
      <trkpt lat="45.89765" lon="3.04429">
        <ele>535.4</ele>
        <time>2018-07-01T07:23:08Z</time>
      </trkpt>
      <trkpt lat="45.89766" lon="3.04426">
        <ele>535.7</ele>
        <time>2018-07-01T07:23:12Z</time>
      </trkpt>
      <trkpt lat="45.89765" lon="3.04424">
        <ele>536</ele>
        <time>2018-07-01T07:23:23Z</time>
      </trkpt>
      <trkpt lat="45.89766" lon="3.04422">
        <ele>536.2</ele>
        <time>2018-07-01T07:24:09Z</time>
      </trkpt>
      <trkpt lat="45.89765" lon="3.04421">
        <ele>536.4</ele>
        <time>2018-07-01T07:24:31Z</time>
      </trkpt>
      <trkpt lat="45.89766" lon="3.04419">
        <ele>536.6</ele>
        <time>2018-07-01T07:24:35Z</time>
      </trkpt>
      <trkpt lat="45.89765" lon="3.04418">
        <ele>536.9</ele>
        <time>2018-07-01T07:24:39Z</time>
      </trkpt>
      <trkpt lat="45.89766" lon="3.04416">
        <ele>537.2</ele>
        <time>2018-07-01T07:24:41Z</time>
      </trkpt>
      <trkpt lat="45.89767" lon="3.04408">
        <ele>539.2</ele>
        <time>2018-07-01T07:24:47Z</time>
      </trkpt>
      <trkpt lat="45.89767" lon="3.04405">
        <ele>540.1</ele>
        <time>2018-07-01T07:24:49Z</time>
      </trkpt>
      <trkpt lat="45.89767" lon="3.04403">
        <ele>541</ele>
        <time>2018-07-01T07:24:51Z</time>
      </trkpt>
      <trkpt lat="45.89766" lon="3.04399">
        <ele>542.6</ele>
        <time>2018-07-01T07:24:54Z</time>
      </trkpt>
      <trkpt lat="45.89765" lon="3.04396">
        <ele>544.2</ele>
        <time>2018-07-01T07:24:57Z</time>
      </trkpt>
      <trkpt lat="45.89764" lon="3.04392">
        <ele>546</ele>
        <time>2018-07-01T07:25:00Z</time>
      </trkpt>
      <trkpt lat="45.89762" lon="3.04386">
        <ele>548.8</ele>
        <time>2018-07-01T07:25:05Z</time>
      </trkpt>
      <trkpt lat="45.8976" lon="3.04381">
        <ele>550.9</ele>
        <time>2018-07-01T07:25:10Z</time>
      </trkpt>
      <trkpt lat="45.8976" lon="3.04379">
        <ele>551.9</ele>
        <time>2018-07-01T07:25:14Z</time>
      </trkpt>
      <trkpt lat="45.8976" lon="3.04377">
        <ele>552.4</ele>
        <time>2018-07-01T07:25:18Z</time>
      </trkpt>
      <trkpt lat="45.89761" lon="3.04376">
        <ele>552.5</ele>
        <time>2018-07-01T07:25:21Z</time>
      </trkpt>
      <trkpt lat="45.89762" lon="3.04375">
        <ele>552.2</ele>
        <time>2018-07-01T07:25:23Z</time>
      </trkpt>
      <trkpt lat="45.89771" lon="3.04374">
        <ele>549.5</ele>
        <time>2018-07-01T07:25:29Z</time>
      </trkpt>
      <trkpt lat="45.89775" lon="3.04373">
        <ele>548.5</ele>
        <time>2018-07-01T07:25:32Z</time>
      </trkpt>
      <trkpt lat="45.89777" lon="3.04373">
        <ele>548.1</ele>
        <time>2018-07-01T07:25:34Z</time>
      </trkpt>
      <trkpt lat="45.89782" lon="3.0437">
        <ele>547.3</ele>
        <time>2018-07-01T07:25:39Z</time>
      </trkpt>
      <trkpt lat="45.89785" lon="3.04368">
        <ele>547.1</ele>
        <time>2018-07-01T07:25:43Z</time>
      </trkpt>
      <trkpt lat="45.89792" lon="3.04362">
        <ele>547</ele>
        <time>2018-07-01T07:25:51Z</time>
      </trkpt>
      <trkpt lat="45.89796" lon="3.04359">
        <ele>547.4</ele>
        <time>2018-07-01T07:25:55Z</time>
      </trkpt>
      <trkpt lat="45.89799" lon="3.04355">
        <ele>548.1</ele>
        <time>2018-07-01T07:25:58Z</time>
      </trkpt>
      <trkpt lat="45.89803" lon="3.04347">
        <ele>550.2</ele>
        <time>2018-07-01T07:26:04Z</time>
      </trkpt>
      <trkpt lat="45.89805" lon="3.04345">
        <ele>550.8</ele>
        <time>2018-07-01T07:26:06Z</time>
      </trkpt>
      <trkpt lat="45.89807" lon="3.04342">
        <ele>551.2</ele>
        <time>2018-07-01T07:26:08Z</time>
      </trkpt>
      <trkpt lat="45.89814" lon="3.04337">
        <ele>552</ele>
        <time>2018-07-01T07:26:16Z</time>
      </trkpt>
      <trkpt lat="45.89816" lon="3.04335">
        <ele>552.4</ele>
        <time>2018-07-01T07:26:20Z</time>
      </trkpt>
      <trkpt lat="45.89817" lon="3.04334">
        <ele>552.5</ele>
        <time>2018-07-01T07:26:22Z</time>
      </trkpt>
      <trkpt lat="45.89819" lon="3.04333">
        <ele>552.5</ele>
        <time>2018-07-01T07:26:24Z</time>
      </trkpt>
      <trkpt lat="45.89822" lon="3.04333">
        <ele>552</ele>
        <time>2018-07-01T07:26:27Z</time>
      </trkpt>
      <trkpt lat="45.89826" lon="3.04333">
        <ele>551</ele>
        <time>2018-07-01T07:26:31Z</time>
      </trkpt>
      <trkpt lat="45.89834" lon="3.04335">
        <ele>548.3</ele>
        <time>2018-07-01T07:26:39Z</time>
      </trkpt>
      <trkpt lat="45.89836" lon="3.04335">
        <ele>547.8</ele>
        <time>2018-07-01T07:26:41Z</time>
      </trkpt>
      <trkpt lat="45.89838" lon="3.04335">
        <ele>547.5</ele>
        <time>2018-07-01T07:26:43Z</time>
      </trkpt>
      <trkpt lat="45.89839" lon="3.04334">
        <ele>547.5</ele>
        <time>2018-07-01T07:26:45Z</time>
      </trkpt>
      <trkpt lat="45.89846" lon="3.04331">
        <ele>547.5</ele>
        <time>2018-07-01T07:26:52Z</time>
      </trkpt>
      <trkpt lat="45.89848" lon="3.0433">
        <ele>547.3</ele>
        <time>2018-07-01T07:26:54Z</time>
      </trkpt>
      <trkpt lat="45.8985" lon="3.04331">
        <ele>546.8</ele>
        <time>2018-07-01T07:26:56Z</time>
      </trkpt>
      <trkpt lat="45.89851" lon="3.04331">
        <ele>546.3</ele>
        <time>2018-07-01T07:26:58Z</time>
      </trkpt>
      <trkpt lat="45.89856" lon="3.04334">
        <ele>544.4</ele>
        <time>2018-07-01T07:27:03Z</time>
      </trkpt>
      <trkpt lat="45.89858" lon="3.04335">
        <ele>543.7</ele>
        <time>2018-07-01T07:27:05Z</time>
      </trkpt>
      <trkpt lat="45.89862" lon="3.04335">
        <ele>542.6</ele>
        <time>2018-07-01T07:27:09Z</time>
      </trkpt>
      <trkpt lat="45.89865" lon="3.04335">
        <ele>542.1</ele>
        <time>2018-07-01T07:27:15Z</time>
      </trkpt>
      <trkpt lat="45.89865" lon="3.04335">
        <ele>542.2</ele>
        <time>2018-07-01T07:27:18Z</time>
      </trkpt>
      <trkpt lat="45.89865" lon="3.04336">
        <ele>542</ele>
        <time>2018-07-01T07:27:20Z</time>
      </trkpt>
      <trkpt lat="45.89865" lon="3.04336">
        <ele>541.7</ele>
        <time>2018-07-01T07:27:22Z</time>
      </trkpt>
      <trkpt lat="45.89869" lon="3.04338">
        <ele>540.1</ele>
        <time>2018-07-01T07:27:27Z</time>
      </trkpt>
      <trkpt lat="45.8987" lon="3.0434">
        <ele>539.3</ele>
        <time>2018-07-01T07:27:35Z</time>
      </trkpt>
      <trkpt lat="45.8987" lon="3.0434">
        <ele>539.3</ele>
        <time>2018-07-01T07:27:43Z</time>
      </trkpt>
      <trkpt lat="45.89878" lon="3.04345">
        <ele>535.8</ele>
        <time>2018-07-01T07:27:59Z</time>
      </trkpt>
      <trkpt lat="45.89881" lon="3.04343">
        <ele>536.2</ele>
        <time>2018-07-01T07:28:49Z</time>
      </trkpt>
      <trkpt lat="45.89881" lon="3.04342">
        <ele>536.5</ele>
        <time>2018-07-01T07:28:50Z</time>
      </trkpt>
      <trkpt lat="45.89882" lon="3.0434">
        <ele>537</ele>
        <time>2018-07-01T07:28:51Z</time>
      </trkpt>
      <trkpt lat="45.89882" lon="3.04337">
        <ele>538.4</ele>
        <time>2018-07-01T07:28:53Z</time>
      </trkpt>
      <trkpt lat="45.89881" lon="3.0433">
        <ele>541</ele>
        <time>2018-07-01T07:28:56Z</time>
      </trkpt>
      <trkpt lat="45.89881" lon="3.04325">
        <ele>542.6</ele>
        <time>2018-07-01T07:28:58Z</time>
      </trkpt>
      <trkpt lat="45.89881" lon="3.04323">
        <ele>543.2</ele>
        <time>2018-07-01T07:28:59Z</time>
      </trkpt>
      <trkpt lat="45.89881" lon="3.04322">
        <ele>543.6</ele>
        <time>2018-07-01T07:29:00Z</time>
      </trkpt>
      <trkpt lat="45.89882" lon="3.04319">
        <ele>544.3</ele>
        <time>2018-07-01T07:29:02Z</time>
      </trkpt>
      <trkpt lat="45.89883" lon="3.04317">
        <ele>544.7</ele>
        <time>2018-07-01T07:29:04Z</time>
      </trkpt>
      <trkpt lat="45.89886" lon="3.04314">
        <ele>545.2</ele>
        <time>2018-07-01T07:29:07Z</time>
      </trkpt>
      <trkpt lat="45.89889" lon="3.0431">
        <ele>545.9</ele>
        <time>2018-07-01T07:29:10Z</time>
      </trkpt>
      <trkpt lat="45.8989" lon="3.04307">
        <ele>546.4</ele>
        <time>2018-07-01T07:29:12Z</time>
      </trkpt>
      <trkpt lat="45.89894" lon="3.04299">
        <ele>548.1</ele>
        <time>2018-07-01T07:29:19Z</time>
      </trkpt>
      <trkpt lat="45.89895" lon="3.04298">
        <ele>548.3</ele>
        <time>2018-07-01T07:29:22Z</time>
      </trkpt>
      <trkpt lat="45.89898" lon="3.04297">
        <ele>548.1</ele>
        <time>2018-07-01T07:29:38Z</time>
      </trkpt>
      <trkpt lat="45.89898" lon="3.04297">
        <ele>547.9</ele>
        <time>2018-07-01T07:29:39Z</time>
      </trkpt>
      <trkpt lat="45.899" lon="3.04296">
        <ele>547.8</ele>
        <time>2018-07-01T07:29:41Z</time>
      </trkpt>
      <trkpt lat="45.89901" lon="3.04294">
        <ele>548</ele>
        <time>2018-07-01T07:29:54Z</time>
      </trkpt>
      <trkpt lat="45.89903" lon="3.04291">
        <ele>548.7</ele>
        <time>2018-07-01T07:30:02Z</time>
      </trkpt>
      <trkpt lat="45.89905" lon="3.04289">
        <ele>549</ele>
        <time>2018-07-01T07:30:06Z</time>
      </trkpt>
      <trkpt lat="45.8991" lon="3.04285">
        <ele>549.1</ele>
        <time>2018-07-01T07:30:22Z</time>
      </trkpt>
      <trkpt lat="45.8991" lon="3.04285">
        <ele>549.2</ele>
        <time>2018-07-01T07:30:34Z</time>
      </trkpt>
      <trkpt lat="45.89915" lon="3.04283">
        <ele>548.6</ele>
        <time>2018-07-01T07:31:03Z</time>
      </trkpt>
      <trkpt lat="45.89916" lon="3.04282">
        <ele>548.6</ele>
        <time>2018-07-01T07:31:04Z</time>
      </trkpt>
      <trkpt lat="45.89918" lon="3.0428">
        <ele>549</ele>
        <time>2018-07-01T07:31:06Z</time>
      </trkpt>
      <trkpt lat="45.8992" lon="3.04278">
        <ele>549.6</ele>
        <time>2018-07-01T07:31:09Z</time>
      </trkpt>
      <trkpt lat="45.89922" lon="3.04278">
        <ele>549.7</ele>
        <time>2018-07-01T07:31:12Z</time>
      </trkpt>
      <trkpt lat="45.89925" lon="3.04278">
        <ele>549.7</ele>
        <time>2018-07-01T07:31:16Z</time>
      </trkpt>
      <trkpt lat="45.89928" lon="3.04277">
        <ele>549.7</ele>
        <time>2018-07-01T07:31:20Z</time>
      </trkpt>
      <trkpt lat="45.89931" lon="3.04277">
        <ele>549.9</ele>
        <time>2018-07-01T07:31:23Z</time>
      </trkpt>
      <trkpt lat="45.89932" lon="3.04276">
        <ele>550</ele>
        <time>2018-07-01T07:31:25Z</time>
      </trkpt>
      <trkpt lat="45.89936" lon="3.04274">
        <ele>550.5</ele>
        <time>2018-07-01T07:31:29Z</time>
      </trkpt>
      <trkpt lat="45.89937" lon="3.04272">
        <ele>550.9</ele>
        <time>2018-07-01T07:31:31Z</time>
      </trkpt>
      <trkpt lat="45.89941" lon="3.04267">
        <ele>551.9</ele>
        <time>2018-07-01T07:31:36Z</time>
      </trkpt>
      <trkpt lat="45.89945" lon="3.04264">
        <ele>552.3</ele>
        <time>2018-07-01T07:31:41Z</time>
      </trkpt>
      <trkpt lat="45.89948" lon="3.04261">
        <ele>552.9</ele>
        <time>2018-07-01T07:31:44Z</time>
      </trkpt>
      <trkpt lat="45.89954" lon="3.04253">
        <ele>553.9</ele>
        <time>2018-07-01T07:31:50Z</time>
      </trkpt>
      <trkpt lat="45.89955" lon="3.04251">
        <ele>554.1</ele>
        <time>2018-07-01T07:31:52Z</time>
      </trkpt>
      <trkpt lat="45.89958" lon="3.04249">
        <ele>554.1</ele>
        <time>2018-07-01T07:31:55Z</time>
      </trkpt>
      <trkpt lat="45.89962" lon="3.04247">
        <ele>554</ele>
        <time>2018-07-01T07:32:00Z</time>
      </trkpt>
      <trkpt lat="45.89965" lon="3.04245">
        <ele>554.1</ele>
        <time>2018-07-01T07:32:03Z</time>
      </trkpt>
      <trkpt lat="45.89967" lon="3.04242">
        <ele>554.3</ele>
        <time>2018-07-01T07:32:06Z</time>
      </trkpt>
      <trkpt lat="45.89969" lon="3.04238">
        <ele>554.7</ele>
        <time>2018-07-01T07:32:09Z</time>
      </trkpt>
      <trkpt lat="45.89971" lon="3.04234">
        <ele>555.3</ele>
        <time>2018-07-01T07:32:12Z</time>
      </trkpt>
      <trkpt lat="45.89972" lon="3.04227">
        <ele>556.2</ele>
        <time>2018-07-01T07:32:16Z</time>
      </trkpt>
      <trkpt lat="45.89975" lon="3.04215">
        <ele>558</ele>
        <time>2018-07-01T07:32:24Z</time>
      </trkpt>
      <trkpt lat="45.89975" lon="3.04213">
        <ele>558.4</ele>
        <time>2018-07-01T07:32:26Z</time>
      </trkpt>
      <trkpt lat="45.89975" lon="3.0421">
        <ele>558.8</ele>
        <time>2018-07-01T07:32:28Z</time>
      </trkpt>
      <trkpt lat="45.89975" lon="3.04208">
        <ele>559.3</ele>
        <time>2018-07-01T07:32:30Z</time>
      </trkpt>
      <trkpt lat="45.89975" lon="3.04204">
        <ele>559.9</ele>
        <time>2018-07-01T07:32:33Z</time>
      </trkpt>
      <trkpt lat="45.89974" lon="3.04199">
        <ele>560.6</ele>
        <time>2018-07-01T07:32:38Z</time>
      </trkpt>
      <trkpt lat="45.89973" lon="3.04197">
        <ele>561</ele>
        <time>2018-07-01T07:32:43Z</time>
      </trkpt>
      <trkpt lat="45.89973" lon="3.04195">
        <ele>561.2</ele>
        <time>2018-07-01T07:32:47Z</time>
      </trkpt>
      <trkpt lat="45.89974" lon="3.04193">
        <ele>561.5</ele>
        <time>2018-07-01T07:32:56Z</time>
      </trkpt>
      <trkpt lat="45.89974" lon="3.04189">
        <ele>562.3</ele>
        <time>2018-07-01T07:33:05Z</time>
      </trkpt>
      <trkpt lat="45.89974" lon="3.04185">
        <ele>562.8</ele>
        <time>2018-07-01T07:33:10Z</time>
      </trkpt>
      <trkpt lat="45.89974" lon="3.04183">
        <ele>563.3</ele>
        <time>2018-07-01T07:33:20Z</time>
      </trkpt>
      <trkpt lat="45.89974" lon="3.04183">
        <ele>563.3</ele>
        <time>2018-07-01T07:33:26Z</time>
      </trkpt>
      <trkpt lat="45.89975" lon="3.04183">
        <ele>563.3</ele>
        <time>2018-07-01T07:33:32Z</time>
      </trkpt>
      <trkpt lat="45.89973" lon="3.04187">
        <ele>562.5</ele>
        <time>2018-07-01T07:33:45Z</time>
      </trkpt>
      <trkpt lat="45.89972" lon="3.04189">
        <ele>562.2</ele>
        <time>2018-07-01T07:33:58Z</time>
      </trkpt>
      <trkpt lat="45.89971" lon="3.04184">
        <ele>562.8</ele>
        <time>2018-07-01T07:34:11Z</time>
      </trkpt>
      <trkpt lat="45.89971" lon="3.04182">
        <ele>563.2</ele>
        <time>2018-07-01T07:34:15Z</time>
      </trkpt>
      <trkpt lat="45.89971" lon="3.04181">
        <ele>563.4</ele>
        <time>2018-07-01T07:34:18Z</time>
      </trkpt>
      <trkpt lat="45.8997" lon="3.04178">
        <ele>563.7</ele>
        <time>2018-07-01T07:34:22Z</time>
      </trkpt>
      <trkpt lat="45.89967" lon="3.04173">
        <ele>564.3</ele>
        <time>2018-07-01T07:34:27Z</time>
      </trkpt>
      <trkpt lat="45.89965" lon="3.0417">
        <ele>564.6</ele>
        <time>2018-07-01T07:34:30Z</time>
      </trkpt>
      <trkpt lat="45.89962" lon="3.04166">
        <ele>564.9</ele>
        <time>2018-07-01T07:34:34Z</time>
      </trkpt>
      <trkpt lat="45.89955" lon="3.04161">
        <ele>565.1</ele>
        <time>2018-07-01T07:34:42Z</time>
      </trkpt>
      <trkpt lat="45.89949" lon="3.04153">
        <ele>565.5</ele>
        <time>2018-07-01T07:34:50Z</time>
      </trkpt>
      <trkpt lat="45.89947" lon="3.04151">
        <ele>565.4</ele>
        <time>2018-07-01T07:34:53Z</time>
      </trkpt>
      <trkpt lat="45.89937" lon="3.04148">
        <ele>564.6</ele>
        <time>2018-07-01T07:35:07Z</time>
      </trkpt>
      <trkpt lat="45.89936" lon="3.04147">
        <ele>564.7</ele>
        <time>2018-07-01T07:35:11Z</time>
      </trkpt>
      <trkpt lat="45.89936" lon="3.04146">
        <ele>564.6</ele>
        <time>2018-07-01T07:35:13Z</time>
      </trkpt>
      <trkpt lat="45.89933" lon="3.04144">
        <ele>564.6</ele>
        <time>2018-07-01T07:35:17Z</time>
      </trkpt>
      <trkpt lat="45.89931" lon="3.0414">
        <ele>564.6</ele>
        <time>2018-07-01T07:35:21Z</time>
      </trkpt>
      <trkpt lat="45.89927" lon="3.04137">
        <ele>564.4</ele>
        <time>2018-07-01T07:35:25Z</time>
      </trkpt>
      <trkpt lat="45.89924" lon="3.04135">
        <ele>564.1</ele>
        <time>2018-07-01T07:35:28Z</time>
      </trkpt>
      <trkpt lat="45.89921" lon="3.04133">
        <ele>563.7</ele>
        <time>2018-07-01T07:35:32Z</time>
      </trkpt>
      <trkpt lat="45.89918" lon="3.04131">
        <ele>563.4</ele>
        <time>2018-07-01T07:35:36Z</time>
      </trkpt>
      <trkpt lat="45.89916" lon="3.04128">
        <ele>563.4</ele>
        <time>2018-07-01T07:35:39Z</time>
      </trkpt>
      <trkpt lat="45.89912" lon="3.04121">
        <ele>564.5</ele>
        <time>2018-07-01T07:35:45Z</time>
      </trkpt>
      <trkpt lat="45.89904" lon="3.04109">
        <ele>566.5</ele>
        <time>2018-07-01T07:36:02Z</time>
      </trkpt>
      <trkpt lat="45.89902" lon="3.04104">
        <ele>566.9</ele>
        <time>2018-07-01T07:36:08Z</time>
      </trkpt>
      <trkpt lat="45.89901" lon="3.041">
        <ele>567.4</ele>
        <time>2018-07-01T07:36:12Z</time>
      </trkpt>
      <trkpt lat="45.899" lon="3.04097">
        <ele>567.7</ele>
        <time>2018-07-01T07:36:15Z</time>
      </trkpt>
      <trkpt lat="45.89898" lon="3.04091">
        <ele>568.2</ele>
        <time>2018-07-01T07:36:19Z</time>
      </trkpt>
      <trkpt lat="45.89896" lon="3.04088">
        <ele>568.5</ele>
        <time>2018-07-01T07:36:21Z</time>
      </trkpt>
      <trkpt lat="45.89894" lon="3.04084">
        <ele>568.9</ele>
        <time>2018-07-01T07:36:24Z</time>
      </trkpt>
      <trkpt lat="45.89892" lon="3.0408">
        <ele>569.6</ele>
        <time>2018-07-01T07:36:28Z</time>
      </trkpt>
      <trkpt lat="45.8989" lon="3.04076">
        <ele>570.2</ele>
        <time>2018-07-01T07:36:31Z</time>
      </trkpt>
      <trkpt lat="45.89888" lon="3.04072">
        <ele>570.6</ele>
        <time>2018-07-01T07:36:34Z</time>
      </trkpt>
      <trkpt lat="45.89887" lon="3.04068">
        <ele>571.1</ele>
        <time>2018-07-01T07:36:37Z</time>
      </trkpt>
      <trkpt lat="45.89886" lon="3.0406">
        <ele>571.8</ele>
        <time>2018-07-01T07:36:41Z</time>
      </trkpt>
      <trkpt lat="45.89886" lon="3.04057">
        <ele>572.1</ele>
        <time>2018-07-01T07:36:43Z</time>
      </trkpt>
      <trkpt lat="45.89884" lon="3.04054">
        <ele>572.5</ele>
        <time>2018-07-01T07:36:46Z</time>
      </trkpt>
      <trkpt lat="45.89878" lon="3.04046">
        <ele>573.7</ele>
        <time>2018-07-01T07:36:54Z</time>
      </trkpt>
      <trkpt lat="45.89876" lon="3.04042">
        <ele>574.1</ele>
        <time>2018-07-01T07:36:57Z</time>
      </trkpt>
      <trkpt lat="45.89875" lon="3.04039">
        <ele>574.5</ele>
        <time>2018-07-01T07:37:00Z</time>
      </trkpt>
      <trkpt lat="45.89873" lon="3.04034">
        <ele>574.9</ele>
        <time>2018-07-01T07:37:04Z</time>
      </trkpt>
      <trkpt lat="45.89871" lon="3.04026">
        <ele>575.6</ele>
        <time>2018-07-01T07:37:11Z</time>
      </trkpt>
      <trkpt lat="45.89869" lon="3.0402">
        <ele>576.1</ele>
        <time>2018-07-01T07:37:14Z</time>
      </trkpt>
      <trkpt lat="45.89868" lon="3.04014">
        <ele>576.5</ele>
        <time>2018-07-01T07:37:17Z</time>
      </trkpt>
      <trkpt lat="45.89868" lon="3.04005">
        <ele>577</ele>
        <time>2018-07-01T07:37:23Z</time>
      </trkpt>
      <trkpt lat="45.89868" lon="3.04002">
        <ele>577.2</ele>
        <time>2018-07-01T07:37:25Z</time>
      </trkpt>
      <trkpt lat="45.89869" lon="3.03998">
        <ele>577.4</ele>
        <time>2018-07-01T07:37:27Z</time>
      </trkpt>
      <trkpt lat="45.89871" lon="3.03988">
        <ele>577.9</ele>
        <time>2018-07-01T07:37:33Z</time>
      </trkpt>
      <trkpt lat="45.89872" lon="3.03981">
        <ele>578.3</ele>
        <time>2018-07-01T07:37:37Z</time>
      </trkpt>
      <trkpt lat="45.89873" lon="3.03973">
        <ele>578.7</ele>
        <time>2018-07-01T07:37:42Z</time>
      </trkpt>
      <trkpt lat="45.89873" lon="3.03968">
        <ele>578.9</ele>
        <time>2018-07-01T07:37:45Z</time>
      </trkpt>
      <trkpt lat="45.89873" lon="3.03963">
        <ele>579.2</ele>
        <time>2018-07-01T07:37:49Z</time>
      </trkpt>
      <trkpt lat="45.89874" lon="3.03958">
        <ele>579.4</ele>
        <time>2018-07-01T07:37:52Z</time>
      </trkpt>
      <trkpt lat="45.89875" lon="3.03955">
        <ele>579.5</ele>
        <time>2018-07-01T07:37:54Z</time>
      </trkpt>
      <trkpt lat="45.89879" lon="3.03943">
        <ele>579.6</ele>
        <time>2018-07-01T07:38:02Z</time>
      </trkpt>
      <trkpt lat="45.8988" lon="3.03936">
        <ele>579.8</ele>
        <time>2018-07-01T07:38:06Z</time>
      </trkpt>
      <trkpt lat="45.89881" lon="3.03931">
        <ele>579.9</ele>
        <time>2018-07-01T07:38:09Z</time>
      </trkpt>
      <trkpt lat="45.89883" lon="3.03922">
        <ele>580.1</ele>
        <time>2018-07-01T07:38:13Z</time>
      </trkpt>
      <trkpt lat="45.89885" lon="3.03916">
        <ele>580.1</ele>
        <time>2018-07-01T07:38:16Z</time>
      </trkpt>
      <trkpt lat="45.89888" lon="3.03904">
        <ele>580.1</ele>
        <time>2018-07-01T07:38:22Z</time>
      </trkpt>
      <trkpt lat="45.8989" lon="3.03898">
        <ele>580.2</ele>
        <time>2018-07-01T07:38:26Z</time>
      </trkpt>
      <trkpt lat="45.8989" lon="3.03896">
        <ele>580.3</ele>
        <time>2018-07-01T07:38:28Z</time>
      </trkpt>
      <trkpt lat="45.8989" lon="3.03891">
        <ele>580.5</ele>
        <time>2018-07-01T07:38:32Z</time>
      </trkpt>
      <trkpt lat="45.89891" lon="3.03876">
        <ele>581.2</ele>
        <time>2018-07-01T07:38:42Z</time>
      </trkpt>
      <trkpt lat="45.89892" lon="3.03859">
        <ele>581.8</ele>
        <time>2018-07-01T07:38:55Z</time>
      </trkpt>
      <trkpt lat="45.89892" lon="3.03855">
        <ele>582</ele>
        <time>2018-07-01T07:39:00Z</time>
      </trkpt>
      <trkpt lat="45.89892" lon="3.03854">
        <ele>582.1</ele>
        <time>2018-07-01T07:39:02Z</time>
      </trkpt>
      <trkpt lat="45.89891" lon="3.03854">
        <ele>582.2</ele>
        <time>2018-07-01T07:39:07Z</time>
      </trkpt>
      <trkpt lat="45.89891" lon="3.03853">
        <ele>582.3</ele>
        <time>2018-07-01T07:39:09Z</time>
      </trkpt>
      <trkpt lat="45.8989" lon="3.03846">
        <ele>582.8</ele>
        <time>2018-07-01T07:39:14Z</time>
      </trkpt>
      <trkpt lat="45.89889" lon="3.03842">
        <ele>583.2</ele>
        <time>2018-07-01T07:39:17Z</time>
      </trkpt>
      <trkpt lat="45.89888" lon="3.0384">
        <ele>583.5</ele>
        <time>2018-07-01T07:39:19Z</time>
      </trkpt>
      <trkpt lat="45.89887" lon="3.03838">
        <ele>583.8</ele>
        <time>2018-07-01T07:39:21Z</time>
      </trkpt>
      <trkpt lat="45.89886" lon="3.03834">
        <ele>584.1</ele>
        <time>2018-07-01T07:39:24Z</time>
      </trkpt>
      <trkpt lat="45.89886" lon="3.03828">
        <ele>584.4</ele>
        <time>2018-07-01T07:39:28Z</time>
      </trkpt>
      <trkpt lat="45.89886" lon="3.03826">
        <ele>584.7</ele>
        <time>2018-07-01T07:39:30Z</time>
      </trkpt>
      <trkpt lat="45.89884" lon="3.03816">
        <ele>585.5</ele>
        <time>2018-07-01T07:39:37Z</time>
      </trkpt>
      <trkpt lat="45.89883" lon="3.03808">
        <ele>586</ele>
        <time>2018-07-01T07:39:41Z</time>
      </trkpt>
      <trkpt lat="45.89883" lon="3.03797">
        <ele>586.5</ele>
        <time>2018-07-01T07:39:46Z</time>
      </trkpt>
      <trkpt lat="45.89883" lon="3.03792">
        <ele>586.8</ele>
        <time>2018-07-01T07:39:49Z</time>
      </trkpt>
      <trkpt lat="45.89882" lon="3.03789">
        <ele>587.1</ele>
        <time>2018-07-01T07:39:52Z</time>
      </trkpt>
      <trkpt lat="45.89881" lon="3.03786">
        <ele>587.3</ele>
        <time>2018-07-01T07:39:55Z</time>
      </trkpt>
      <trkpt lat="45.8988" lon="3.03782">
        <ele>587.7</ele>
        <time>2018-07-01T07:39:59Z</time>
      </trkpt>
      <trkpt lat="45.89878" lon="3.03777">
        <ele>588.1</ele>
        <time>2018-07-01T07:40:03Z</time>
      </trkpt>
      <trkpt lat="45.89876" lon="3.03773">
        <ele>588.4</ele>
        <time>2018-07-01T07:40:06Z</time>
      </trkpt>
      <trkpt lat="45.89876" lon="3.03769">
        <ele>588.7</ele>
        <time>2018-07-01T07:40:08Z</time>
      </trkpt>
      <trkpt lat="45.89873" lon="3.03757">
        <ele>589.3</ele>
        <time>2018-07-01T07:40:14Z</time>
      </trkpt>
      <trkpt lat="45.8987" lon="3.03744">
        <ele>589.7</ele>
        <time>2018-07-01T07:40:22Z</time>
      </trkpt>
      <trkpt lat="45.8987" lon="3.0374">
        <ele>589.8</ele>
        <time>2018-07-01T07:40:25Z</time>
      </trkpt>
      <trkpt lat="45.8987" lon="3.03737">
        <ele>589.7</ele>
        <time>2018-07-01T07:40:27Z</time>
      </trkpt>
      <trkpt lat="45.8987" lon="3.03733">
        <ele>589.7</ele>
        <time>2018-07-01T07:40:30Z</time>
      </trkpt>
      <trkpt lat="45.89871" lon="3.03729">
        <ele>589.6</ele>
        <time>2018-07-01T07:40:33Z</time>
      </trkpt>
      <trkpt lat="45.89873" lon="3.03722">
        <ele>589.5</ele>
        <time>2018-07-01T07:40:38Z</time>
      </trkpt>
      <trkpt lat="45.89875" lon="3.03713">
        <ele>589.3</ele>
        <time>2018-07-01T07:40:44Z</time>
      </trkpt>
      <trkpt lat="45.89876" lon="3.03707">
        <ele>589.2</ele>
        <time>2018-07-01T07:40:48Z</time>
      </trkpt>
      <trkpt lat="45.89876" lon="3.037">
        <ele>589.1</ele>
        <time>2018-07-01T07:40:53Z</time>
      </trkpt>
      <trkpt lat="45.89877" lon="3.03691">
        <ele>589</ele>
        <time>2018-07-01T07:40:59Z</time>
      </trkpt>
      <trkpt lat="45.89878" lon="3.03686">
        <ele>589</ele>
        <time>2018-07-01T07:41:03Z</time>
      </trkpt>
      <trkpt lat="45.89879" lon="3.03674">
        <ele>588.9</ele>
        <time>2018-07-01T07:41:12Z</time>
      </trkpt>
      <trkpt lat="45.8988" lon="3.0367">
        <ele>588.8</ele>
        <time>2018-07-01T07:41:15Z</time>
      </trkpt>
      <trkpt lat="45.89881" lon="3.03662">
        <ele>588.7</ele>
        <time>2018-07-01T07:41:21Z</time>
      </trkpt>
      <trkpt lat="45.89882" lon="3.03658">
        <ele>588.6</ele>
        <time>2018-07-01T07:41:24Z</time>
      </trkpt>
      <trkpt lat="45.89882" lon="3.03655">
        <ele>588.6</ele>
        <time>2018-07-01T07:41:28Z</time>
      </trkpt>
      <trkpt lat="45.89883" lon="3.0365">
        <ele>588.5</ele>
        <time>2018-07-01T07:41:36Z</time>
      </trkpt>
      <trkpt lat="45.89885" lon="3.03644">
        <ele>588.4</ele>
        <time>2018-07-01T07:41:41Z</time>
      </trkpt>
      <trkpt lat="45.89886" lon="3.03636">
        <ele>588.4</ele>
        <time>2018-07-01T07:41:47Z</time>
      </trkpt>
      <trkpt lat="45.89888" lon="3.03625">
        <ele>588.3</ele>
        <time>2018-07-01T07:41:56Z</time>
      </trkpt>
      <trkpt lat="45.89889" lon="3.03622">
        <ele>588.3</ele>
        <time>2018-07-01T07:41:59Z</time>
      </trkpt>
      <trkpt lat="45.89889" lon="3.03618">
        <ele>588.3</ele>
        <time>2018-07-01T07:42:02Z</time>
      </trkpt>
      <trkpt lat="45.89888" lon="3.03613">
        <ele>588.3</ele>
        <time>2018-07-01T07:42:06Z</time>
      </trkpt>
      <trkpt lat="45.89886" lon="3.03607">
        <ele>588.3</ele>
        <time>2018-07-01T07:42:11Z</time>
      </trkpt>
      <trkpt lat="45.89885" lon="3.03605">
        <ele>588.2</ele>
        <time>2018-07-01T07:42:13Z</time>
      </trkpt>
      <trkpt lat="45.89883" lon="3.03603">
        <ele>588.1</ele>
        <time>2018-07-01T07:42:18Z</time>
      </trkpt>
      <trkpt lat="45.89883" lon="3.03602">
        <ele>588.1</ele>
        <time>2018-07-01T07:42:23Z</time>
      </trkpt>
      <trkpt lat="45.89883" lon="3.03602">
        <ele>588.1</ele>
        <time>2018-07-01T07:42:25Z</time>
      </trkpt>
      <trkpt lat="45.89883" lon="3.03602">
        <ele>588.1</ele>
        <time>2018-07-01T07:42:30Z</time>
      </trkpt>
      <trkpt lat="45.89883" lon="3.03602">
        <ele>588.1</ele>
        <time>2018-07-01T07:42:32Z</time>
      </trkpt>
      <trkpt lat="45.89881" lon="3.03593">
        <ele>588</ele>
        <time>2018-07-01T07:42:39Z</time>
      </trkpt>
      <trkpt lat="45.89881" lon="3.0359">
        <ele>587.9</ele>
        <time>2018-07-01T07:42:42Z</time>
      </trkpt>
      <trkpt lat="45.89881" lon="3.03583">
        <ele>587.9</ele>
        <time>2018-07-01T07:42:48Z</time>
      </trkpt>
      <trkpt lat="45.89881" lon="3.03582">
        <ele>588</ele>
        <time>2018-07-01T07:42:51Z</time>
      </trkpt>
      <trkpt lat="45.89881" lon="3.03581">
        <ele>588.1</ele>
        <time>2018-07-01T07:42:53Z</time>
      </trkpt>
      <trkpt lat="45.8988" lon="3.03581">
        <ele>588.1</ele>
        <time>2018-07-01T07:42:55Z</time>
      </trkpt>
      <trkpt lat="45.89877" lon="3.03579">
        <ele>588</ele>
        <time>2018-07-01T07:42:59Z</time>
      </trkpt>
      <trkpt lat="45.89874" lon="3.03578">
        <ele>587.8</ele>
        <time>2018-07-01T07:43:03Z</time>
      </trkpt>
      <trkpt lat="45.89867" lon="3.03577">
        <ele>587.5</ele>
        <time>2018-07-01T07:43:10Z</time>
      </trkpt>
      <trkpt lat="45.89863" lon="3.03575">
        <ele>587.3</ele>
        <time>2018-07-01T07:43:14Z</time>
      </trkpt>
      <trkpt lat="45.89859" lon="3.03574">
        <ele>587.1</ele>
        <time>2018-07-01T07:43:18Z</time>
      </trkpt>
      <trkpt lat="45.89857" lon="3.03573">
        <ele>586.9</ele>
        <time>2018-07-01T07:43:20Z</time>
      </trkpt>
      <trkpt lat="45.89853" lon="3.0357">
        <ele>586.7</ele>
        <time>2018-07-01T07:43:24Z</time>
      </trkpt>
      <trkpt lat="45.89848" lon="3.03566">
        <ele>586.5</ele>
        <time>2018-07-01T07:43:29Z</time>
      </trkpt>
      <trkpt lat="45.89844" lon="3.03562">
        <ele>586.3</ele>
        <time>2018-07-01T07:43:33Z</time>
      </trkpt>
      <trkpt lat="45.89841" lon="3.03558">
        <ele>586.1</ele>
        <time>2018-07-01T07:43:37Z</time>
      </trkpt>
      <trkpt lat="45.89839" lon="3.03554">
        <ele>585.9</ele>
        <time>2018-07-01T07:43:40Z</time>
      </trkpt>
      <trkpt lat="45.89836" lon="3.03548">
        <ele>585.7</ele>
        <time>2018-07-01T07:43:45Z</time>
      </trkpt>
      <trkpt lat="45.89833" lon="3.03539">
        <ele>585.7</ele>
        <time>2018-07-01T07:43:52Z</time>
      </trkpt>
      <trkpt lat="45.8983" lon="3.03532">
        <ele>586.4</ele>
        <time>2018-07-01T07:43:58Z</time>
      </trkpt>
      <trkpt lat="45.89826" lon="3.03525">
        <ele>587.3</ele>
        <time>2018-07-01T07:44:09Z</time>
      </trkpt>
      <trkpt lat="45.89826" lon="3.03525">
        <ele>587.3</ele>
        <time>2018-07-01T07:44:11Z</time>
      </trkpt>
      <trkpt lat="45.89826" lon="3.03525">
        <ele>587.3</ele>
        <time>2018-07-01T07:44:13Z</time>
      </trkpt>
      <trkpt lat="45.89825" lon="3.03524">
        <ele>587.5</ele>
        <time>2018-07-01T07:44:15Z</time>
      </trkpt>
      <trkpt lat="45.89823" lon="3.03522">
        <ele>587.9</ele>
        <time>2018-07-01T07:44:17Z</time>
      </trkpt>
      <trkpt lat="45.89821" lon="3.0352">
        <ele>588.2</ele>
        <time>2018-07-01T07:44:19Z</time>
      </trkpt>
      <trkpt lat="45.8982" lon="3.03517">
        <ele>588.6</ele>
        <time>2018-07-01T07:44:22Z</time>
      </trkpt>
      <trkpt lat="45.89817" lon="3.03509">
        <ele>589.2</ele>
        <time>2018-07-01T07:44:29Z</time>
      </trkpt>
      <trkpt lat="45.89816" lon="3.03507">
        <ele>589.4</ele>
        <time>2018-07-01T07:44:31Z</time>
      </trkpt>
      <trkpt lat="45.89815" lon="3.03503">
        <ele>589.6</ele>
        <time>2018-07-01T07:44:34Z</time>
      </trkpt>
      <trkpt lat="45.89815" lon="3.035">
        <ele>589.6</ele>
        <time>2018-07-01T07:44:36Z</time>
      </trkpt>
      <trkpt lat="45.89815" lon="3.03498">
        <ele>589.7</ele>
        <time>2018-07-01T07:44:38Z</time>
      </trkpt>
      <trkpt lat="45.89815" lon="3.03491">
        <ele>590</ele>
        <time>2018-07-01T07:44:43Z</time>
      </trkpt>
      <trkpt lat="45.89814" lon="3.03484">
        <ele>590.5</ele>
        <time>2018-07-01T07:44:47Z</time>
      </trkpt>
      <trkpt lat="45.89814" lon="3.0348">
        <ele>590.9</ele>
        <time>2018-07-01T07:44:49Z</time>
      </trkpt>
      <trkpt lat="45.89812" lon="3.03471">
        <ele>591.9</ele>
        <time>2018-07-01T07:44:54Z</time>
      </trkpt>
      <trkpt lat="45.8981" lon="3.03459">
        <ele>593</ele>
        <time>2018-07-01T07:45:02Z</time>
      </trkpt>
      <trkpt lat="45.89808" lon="3.03452">
        <ele>593.8</ele>
        <time>2018-07-01T07:45:08Z</time>
      </trkpt>
      <trkpt lat="45.89807" lon="3.03449">
        <ele>594.1</ele>
        <time>2018-07-01T07:45:11Z</time>
      </trkpt>
      <trkpt lat="45.89807" lon="3.03445">
        <ele>594.4</ele>
        <time>2018-07-01T07:45:15Z</time>
      </trkpt>
      <trkpt lat="45.89805" lon="3.03434">
        <ele>595.4</ele>
        <time>2018-07-01T07:45:23Z</time>
      </trkpt>
      <trkpt lat="45.89803" lon="3.03423">
        <ele>596.6</ele>
        <time>2018-07-01T07:45:31Z</time>
      </trkpt>
      <trkpt lat="45.89801" lon="3.03417">
        <ele>597.4</ele>
        <time>2018-07-01T07:45:36Z</time>
      </trkpt>
      <trkpt lat="45.89799" lon="3.0341">
        <ele>598</ele>
        <time>2018-07-01T07:45:42Z</time>
      </trkpt>
      <trkpt lat="45.89798" lon="3.03402">
        <ele>598.4</ele>
        <time>2018-07-01T07:45:47Z</time>
      </trkpt>
      <trkpt lat="45.89797" lon="3.03396">
        <ele>598.8</ele>
        <time>2018-07-01T07:45:51Z</time>
      </trkpt>
      <trkpt lat="45.89794" lon="3.03386">
        <ele>599.7</ele>
        <time>2018-07-01T07:45:58Z</time>
      </trkpt>
      <trkpt lat="45.89793" lon="3.03383">
        <ele>599.9</ele>
        <time>2018-07-01T07:46:00Z</time>
      </trkpt>
      <trkpt lat="45.89793" lon="3.0338">
        <ele>600.1</ele>
        <time>2018-07-01T07:46:02Z</time>
      </trkpt>
      <trkpt lat="45.89793" lon="3.03373">
        <ele>600.3</ele>
        <time>2018-07-01T07:46:06Z</time>
      </trkpt>
      <trkpt lat="45.89792" lon="3.03366">
        <ele>600.6</ele>
        <time>2018-07-01T07:46:11Z</time>
      </trkpt>
      <trkpt lat="45.89792" lon="3.0336">
        <ele>600.8</ele>
        <time>2018-07-01T07:46:15Z</time>
      </trkpt>
      <trkpt lat="45.89793" lon="3.03346">
        <ele>600.9</ele>
        <time>2018-07-01T07:46:23Z</time>
      </trkpt>
      <trkpt lat="45.89793" lon="3.03338">
        <ele>601.1</ele>
        <time>2018-07-01T07:46:27Z</time>
      </trkpt>
      <trkpt lat="45.89793" lon="3.03331">
        <ele>601.3</ele>
        <time>2018-07-01T07:46:31Z</time>
      </trkpt>
      <trkpt lat="45.89792" lon="3.03323">
        <ele>601.1</ele>
        <time>2018-07-01T07:46:35Z</time>
      </trkpt>
      <trkpt lat="45.89792" lon="3.03311">
        <ele>600.8</ele>
        <time>2018-07-01T07:46:41Z</time>
      </trkpt>
      <trkpt lat="45.89793" lon="3.03303">
        <ele>600.6</ele>
        <time>2018-07-01T07:46:45Z</time>
      </trkpt>
      <trkpt lat="45.89793" lon="3.03293">
        <ele>600.3</ele>
        <time>2018-07-01T07:46:51Z</time>
      </trkpt>
      <trkpt lat="45.89794" lon="3.03287">
        <ele>600</ele>
        <time>2018-07-01T07:46:55Z</time>
      </trkpt>
      <trkpt lat="45.89795" lon="3.03282">
        <ele>599.7</ele>
        <time>2018-07-01T07:46:59Z</time>
      </trkpt>
      <trkpt lat="45.89796" lon="3.03273">
        <ele>599.2</ele>
        <time>2018-07-01T07:47:05Z</time>
      </trkpt>
      <trkpt lat="45.89799" lon="3.03263">
        <ele>598.5</ele>
        <time>2018-07-01T07:47:11Z</time>
      </trkpt>
      <trkpt lat="45.898" lon="3.03258">
        <ele>598.1</ele>
        <time>2018-07-01T07:47:15Z</time>
      </trkpt>
      <trkpt lat="45.89803" lon="3.03253">
        <ele>597.5</ele>
        <time>2018-07-01T07:47:20Z</time>
      </trkpt>
      <trkpt lat="45.89808" lon="3.03245">
        <ele>596.6</ele>
        <time>2018-07-01T07:47:26Z</time>
      </trkpt>
      <trkpt lat="45.89809" lon="3.03242">
        <ele>596.2</ele>
        <time>2018-07-01T07:47:28Z</time>
      </trkpt>
      <trkpt lat="45.89813" lon="3.03239">
        <ele>595.6</ele>
        <time>2018-07-01T07:47:32Z</time>
      </trkpt>
      <trkpt lat="45.89815" lon="3.03238">
        <ele>595.2</ele>
        <time>2018-07-01T07:47:34Z</time>
      </trkpt>
      <trkpt lat="45.89817" lon="3.03237">
        <ele>594.8</ele>
        <time>2018-07-01T07:47:36Z</time>
      </trkpt>
      <trkpt lat="45.89827" lon="3.03233">
        <ele>593.2</ele>
        <time>2018-07-01T07:47:45Z</time>
      </trkpt>
      <trkpt lat="45.89829" lon="3.03233">
        <ele>593</ele>
        <time>2018-07-01T07:47:47Z</time>
      </trkpt>
      <trkpt lat="45.8983" lon="3.03231">
        <ele>592.7</ele>
        <time>2018-07-01T07:47:51Z</time>
      </trkpt>
      <trkpt lat="45.89833" lon="3.0323">
        <ele>592.3</ele>
        <time>2018-07-01T07:47:57Z</time>
      </trkpt>
      <trkpt lat="45.89839" lon="3.03226">
        <ele>593.4</ele>
        <time>2018-07-01T07:48:04Z</time>
      </trkpt>
      <trkpt lat="45.89846" lon="3.0322">
        <ele>595.2</ele>
        <time>2018-07-01T07:48:13Z</time>
      </trkpt>
      <trkpt lat="45.89853" lon="3.03215">
        <ele>596.8</ele>
        <time>2018-07-01T07:48:21Z</time>
      </trkpt>
      <trkpt lat="45.89855" lon="3.03214">
        <ele>597.2</ele>
        <time>2018-07-01T07:48:23Z</time>
      </trkpt>
      <trkpt lat="45.89856" lon="3.03211">
        <ele>597.5</ele>
        <time>2018-07-01T07:48:26Z</time>
      </trkpt>
      <trkpt lat="45.89857" lon="3.03209">
        <ele>597.7</ele>
        <time>2018-07-01T07:48:28Z</time>
      </trkpt>
      <trkpt lat="45.89857" lon="3.03203">
        <ele>597.9</ele>
        <time>2018-07-01T07:48:32Z</time>
      </trkpt>
      <trkpt lat="45.89857" lon="3.03196">
        <ele>597.9</ele>
        <time>2018-07-01T07:48:36Z</time>
      </trkpt>
      <trkpt lat="45.89857" lon="3.03183">
        <ele>597.9</ele>
        <time>2018-07-01T07:48:44Z</time>
      </trkpt>
      <trkpt lat="45.89857" lon="3.03177">
        <ele>597.9</ele>
        <time>2018-07-01T07:48:48Z</time>
      </trkpt>
      <trkpt lat="45.89856" lon="3.03171">
        <ele>597.9</ele>
        <time>2018-07-01T07:48:52Z</time>
      </trkpt>
      <trkpt lat="45.89855" lon="3.03164">
        <ele>597.9</ele>
        <time>2018-07-01T07:48:56Z</time>
      </trkpt>
      <trkpt lat="45.89854" lon="3.03161">
        <ele>597.8</ele>
        <time>2018-07-01T07:48:58Z</time>
      </trkpt>
      <trkpt lat="45.89853" lon="3.03158">
        <ele>597.8</ele>
        <time>2018-07-01T07:49:00Z</time>
      </trkpt>
      <trkpt lat="45.89852" lon="3.03157">
        <ele>597.6</ele>
        <time>2018-07-01T07:49:02Z</time>
      </trkpt>
      <trkpt lat="45.89851" lon="3.03156">
        <ele>597.5</ele>
        <time>2018-07-01T07:49:03Z</time>
      </trkpt>
      <trkpt lat="45.8985" lon="3.03155">
        <ele>597.3</ele>
        <time>2018-07-01T07:49:05Z</time>
      </trkpt>
      <trkpt lat="45.8985" lon="3.03155">
        <ele>597.2</ele>
        <time>2018-07-01T07:49:06Z</time>
      </trkpt>
      <trkpt lat="45.89849" lon="3.03152">
        <ele>597.2</ele>
        <time>2018-07-01T07:49:10Z</time>
      </trkpt>
      <trkpt lat="45.89849" lon="3.03153">
        <ele>597.2</ele>
        <time>2018-07-01T07:49:13Z</time>
      </trkpt>
      <trkpt lat="45.89849" lon="3.03152">
        <ele>597.3</ele>
        <time>2018-07-01T07:49:14Z</time>
      </trkpt>
      <trkpt lat="45.8985" lon="3.03148">
        <ele>597.8</ele>
        <time>2018-07-01T07:49:19Z</time>
      </trkpt>
      <trkpt lat="45.89851" lon="3.03146">
        <ele>598.1</ele>
        <time>2018-07-01T07:49:21Z</time>
      </trkpt>
      <trkpt lat="45.89852" lon="3.03144">
        <ele>598.4</ele>
        <time>2018-07-01T07:49:23Z</time>
      </trkpt>
      <trkpt lat="45.89854" lon="3.03142">
        <ele>598.8</ele>
        <time>2018-07-01T07:49:25Z</time>
      </trkpt>
      <trkpt lat="45.89857" lon="3.03138">
        <ele>599.5</ele>
        <time>2018-07-01T07:49:29Z</time>
      </trkpt>
      <trkpt lat="45.89858" lon="3.03136">
        <ele>599.8</ele>
        <time>2018-07-01T07:49:31Z</time>
      </trkpt>
      <trkpt lat="45.8986" lon="3.03133">
        <ele>600.2</ele>
        <time>2018-07-01T07:49:34Z</time>
      </trkpt>
      <trkpt lat="45.89861" lon="3.03131">
        <ele>600.5</ele>
        <time>2018-07-01T07:49:36Z</time>
      </trkpt>
      <trkpt lat="45.89863" lon="3.03117">
        <ele>601.5</ele>
        <time>2018-07-01T07:49:47Z</time>
      </trkpt>
      <trkpt lat="45.89864" lon="3.03114">
        <ele>601.7</ele>
        <time>2018-07-01T07:49:49Z</time>
      </trkpt>
      <trkpt lat="45.89864" lon="3.03108">
        <ele>602</ele>
        <time>2018-07-01T07:49:53Z</time>
      </trkpt>
      <trkpt lat="45.89864" lon="3.03102">
        <ele>602.2</ele>
        <time>2018-07-01T07:49:57Z</time>
      </trkpt>
      <trkpt lat="45.89864" lon="3.03099">
        <ele>602.3</ele>
        <time>2018-07-01T07:49:59Z</time>
      </trkpt>
      <trkpt lat="45.89865" lon="3.03093">
        <ele>602.7</ele>
        <time>2018-07-01T07:50:03Z</time>
      </trkpt>
      <trkpt lat="45.89867" lon="3.03087">
        <ele>603.1</ele>
        <time>2018-07-01T07:50:07Z</time>
      </trkpt>
      <trkpt lat="45.89868" lon="3.03085">
        <ele>603.3</ele>
        <time>2018-07-01T07:50:09Z</time>
      </trkpt>
      <trkpt lat="45.89873" lon="3.03068">
        <ele>604.7</ele>
        <time>2018-07-01T07:50:21Z</time>
      </trkpt>
      <trkpt lat="45.89875" lon="3.03061">
        <ele>605.2</ele>
        <time>2018-07-01T07:50:26Z</time>
      </trkpt>
      <trkpt lat="45.89878" lon="3.03055">
        <ele>605.6</ele>
        <time>2018-07-01T07:50:30Z</time>
      </trkpt>
      <trkpt lat="45.89882" lon="3.03047">
        <ele>605.9</ele>
        <time>2018-07-01T07:50:35Z</time>
      </trkpt>
      <trkpt lat="45.8989" lon="3.03032">
        <ele>606.1</ele>
        <time>2018-07-01T07:50:45Z</time>
      </trkpt>
      <trkpt lat="45.89892" lon="3.03029">
        <ele>606.1</ele>
        <time>2018-07-01T07:50:47Z</time>
      </trkpt>
      <trkpt lat="45.89893" lon="3.03025">
        <ele>606</ele>
        <time>2018-07-01T07:50:50Z</time>
      </trkpt>
      <trkpt lat="45.89895" lon="3.03018">
        <ele>605.8</ele>
        <time>2018-07-01T07:50:55Z</time>
      </trkpt>
      <trkpt lat="45.89897" lon="3.03014">
        <ele>605.7</ele>
        <time>2018-07-01T07:50:58Z</time>
      </trkpt>
      <trkpt lat="45.899" lon="3.03007">
        <ele>605.3</ele>
        <time>2018-07-01T07:51:02Z</time>
      </trkpt>
      <trkpt lat="45.89901" lon="3.03004">
        <ele>605.1</ele>
        <time>2018-07-01T07:51:04Z</time>
      </trkpt>
      <trkpt lat="45.89904" lon="3.02988">
        <ele>604.7</ele>
        <time>2018-07-01T07:51:14Z</time>
      </trkpt>
      <trkpt lat="45.89906" lon="3.02979">
        <ele>604.3</ele>
        <time>2018-07-01T07:51:20Z</time>
      </trkpt>
      <trkpt lat="45.89913" lon="3.02958">
        <ele>602.7</ele>
        <time>2018-07-01T07:51:34Z</time>
      </trkpt>
      <trkpt lat="45.89915" lon="3.02952">
        <ele>602.2</ele>
        <time>2018-07-01T07:51:38Z</time>
      </trkpt>
      <trkpt lat="45.89916" lon="3.02948">
        <ele>602</ele>
        <time>2018-07-01T07:51:41Z</time>
      </trkpt>
      <trkpt lat="45.89917" lon="3.02942">
        <ele>601.6</ele>
        <time>2018-07-01T07:51:45Z</time>
      </trkpt>
      <trkpt lat="45.89917" lon="3.02937">
        <ele>601.6</ele>
        <time>2018-07-01T07:51:49Z</time>
      </trkpt>
      <trkpt lat="45.89918" lon="3.02925">
        <ele>601.6</ele>
        <time>2018-07-01T07:51:57Z</time>
      </trkpt>
      <trkpt lat="45.8992" lon="3.02893">
        <ele>603</ele>
        <time>2018-07-01T07:52:18Z</time>
      </trkpt>
      <trkpt lat="45.89921" lon="3.02886">
        <ele>603.5</ele>
        <time>2018-07-01T07:52:23Z</time>
      </trkpt>
      <trkpt lat="45.89922" lon="3.02879">
        <ele>604.1</ele>
        <time>2018-07-01T07:52:27Z</time>
      </trkpt>
      <trkpt lat="45.89926" lon="3.02867">
        <ele>605.5</ele>
        <time>2018-07-01T07:52:34Z</time>
      </trkpt>
      <trkpt lat="45.89927" lon="3.02862">
        <ele>606.1</ele>
        <time>2018-07-01T07:52:37Z</time>
      </trkpt>
      <trkpt lat="45.8993" lon="3.02852">
        <ele>607.1</ele>
        <time>2018-07-01T07:52:43Z</time>
      </trkpt>
      <trkpt lat="45.89932" lon="3.02845">
        <ele>607.6</ele>
        <time>2018-07-01T07:52:47Z</time>
      </trkpt>
      <trkpt lat="45.89934" lon="3.02835">
        <ele>608.2</ele>
        <time>2018-07-01T07:52:53Z</time>
      </trkpt>
      <trkpt lat="45.89936" lon="3.02823">
        <ele>609</ele>
        <time>2018-07-01T07:53:00Z</time>
      </trkpt>
      <trkpt lat="45.89939" lon="3.02811">
        <ele>609.9</ele>
        <time>2018-07-01T07:53:08Z</time>
      </trkpt>
      <trkpt lat="45.89945" lon="3.0279">
        <ele>611.5</ele>
        <time>2018-07-01T07:53:21Z</time>
      </trkpt>
      <trkpt lat="45.89947" lon="3.02783">
        <ele>611.9</ele>
        <time>2018-07-01T07:53:26Z</time>
      </trkpt>
      <trkpt lat="45.89948" lon="3.02777">
        <ele>612.1</ele>
        <time>2018-07-01T07:53:30Z</time>
      </trkpt>
      <trkpt lat="45.89948" lon="3.02771">
        <ele>612.3</ele>
        <time>2018-07-01T07:53:34Z</time>
      </trkpt>
      <trkpt lat="45.89948" lon="3.02763">
        <ele>612.3</ele>
        <time>2018-07-01T07:53:40Z</time>
      </trkpt>
      <trkpt lat="45.89947" lon="3.02754">
        <ele>612.2</ele>
        <time>2018-07-01T07:53:48Z</time>
      </trkpt>
      <trkpt lat="45.89947" lon="3.02751">
        <ele>612.1</ele>
        <time>2018-07-01T07:53:50Z</time>
      </trkpt>
      <trkpt lat="45.89946" lon="3.0275">
        <ele>611.9</ele>
        <time>2018-07-01T07:53:52Z</time>
      </trkpt>
      <trkpt lat="45.89943" lon="3.02746">
        <ele>611.5</ele>
        <time>2018-07-01T07:53:56Z</time>
      </trkpt>
      <trkpt lat="45.89941" lon="3.02741">
        <ele>611.3</ele>
        <time>2018-07-01T07:54:01Z</time>
      </trkpt>
      <trkpt lat="45.89938" lon="3.02734">
        <ele>611.1</ele>
        <time>2018-07-01T07:54:06Z</time>
      </trkpt>
      <trkpt lat="45.89937" lon="3.0273">
        <ele>611</ele>
        <time>2018-07-01T07:54:09Z</time>
      </trkpt>
      <trkpt lat="45.89937" lon="3.0272">
        <ele>611.2</ele>
        <time>2018-07-01T07:54:16Z</time>
      </trkpt>
      <trkpt lat="45.89936" lon="3.02717">
        <ele>611.2</ele>
        <time>2018-07-01T07:54:19Z</time>
      </trkpt>
      <trkpt lat="45.89934" lon="3.02713">
        <ele>611</ele>
        <time>2018-07-01T07:54:22Z</time>
      </trkpt>
      <trkpt lat="45.89932" lon="3.0271">
        <ele>610.4</ele>
        <time>2018-07-01T07:54:26Z</time>
      </trkpt>
      <trkpt lat="45.89929" lon="3.02707">
        <ele>609.8</ele>
        <time>2018-07-01T07:54:30Z</time>
      </trkpt>
      <trkpt lat="45.89927" lon="3.02706">
        <ele>609.3</ele>
        <time>2018-07-01T07:54:53Z</time>
      </trkpt>
      <trkpt lat="45.89927" lon="3.02706">
        <ele>609.4</ele>
        <time>2018-07-01T07:57:22Z</time>
      </trkpt>
      <trkpt lat="45.89922" lon="3.02695">
        <ele>608.1</ele>
        <time>2018-07-01T07:59:13Z</time>
      </trkpt>
      <trkpt lat="45.89921" lon="3.02694">
        <ele>608</ele>
        <time>2018-07-01T07:59:14Z</time>
      </trkpt>
      <trkpt lat="45.89921" lon="3.02691">
        <ele>607.9</ele>
        <time>2018-07-01T07:59:16Z</time>
      </trkpt>
      <trkpt lat="45.8992" lon="3.02676">
        <ele>607.8</ele>
        <time>2018-07-01T07:59:26Z</time>
      </trkpt>
      <trkpt lat="45.89918" lon="3.02665">
        <ele>607.5</ele>
        <time>2018-07-01T07:59:34Z</time>
      </trkpt>
      <trkpt lat="45.89917" lon="3.02659">
        <ele>607.6</ele>
        <time>2018-07-01T07:59:38Z</time>
      </trkpt>
      <trkpt lat="45.89917" lon="3.02655">
        <ele>607.8</ele>
        <time>2018-07-01T07:59:42Z</time>
      </trkpt>
      <trkpt lat="45.89917" lon="3.02648">
        <ele>608.1</ele>
        <time>2018-07-01T07:59:49Z</time>
      </trkpt>
      <trkpt lat="45.89918" lon="3.02643">
        <ele>608.5</ele>
        <time>2018-07-01T07:59:53Z</time>
      </trkpt>
      <trkpt lat="45.89919" lon="3.02634">
        <ele>609.3</ele>
        <time>2018-07-01T07:59:59Z</time>
      </trkpt>
      <trkpt lat="45.89919" lon="3.02629">
        <ele>609.6</ele>
        <time>2018-07-01T08:00:02Z</time>
      </trkpt>
      <trkpt lat="45.89918" lon="3.02625">
        <ele>609.6</ele>
        <time>2018-07-01T08:00:06Z</time>
      </trkpt>
      <trkpt lat="45.89919" lon="3.02624">
        <ele>609.7</ele>
        <time>2018-07-01T08:00:07Z</time>
      </trkpt>
      <trkpt lat="45.89919" lon="3.02618">
        <ele>610.2</ele>
        <time>2018-07-01T08:00:11Z</time>
      </trkpt>
      <trkpt lat="45.8992" lon="3.02591">
        <ele>611.7</ele>
        <time>2018-07-01T08:00:25Z</time>
      </trkpt>
      <trkpt lat="45.8992" lon="3.02588">
        <ele>611.8</ele>
        <time>2018-07-01T08:00:27Z</time>
      </trkpt>
      <trkpt lat="45.89919" lon="3.02585">
        <ele>611.7</ele>
        <time>2018-07-01T08:00:29Z</time>
      </trkpt>
      <trkpt lat="45.89918" lon="3.02584">
        <ele>611.5</ele>
        <time>2018-07-01T08:00:30Z</time>
      </trkpt>
      <trkpt lat="45.89917" lon="3.02582">
        <ele>611.2</ele>
        <time>2018-07-01T08:00:32Z</time>
      </trkpt>
      <trkpt lat="45.89912" lon="3.02578">
        <ele>611.9</ele>
        <time>2018-07-01T08:00:36Z</time>
      </trkpt>
      <trkpt lat="45.89911" lon="3.02575">
        <ele>612.3</ele>
        <time>2018-07-01T08:00:38Z</time>
      </trkpt>
      <trkpt lat="45.89908" lon="3.02566">
        <ele>613.5</ele>
        <time>2018-07-01T08:00:45Z</time>
      </trkpt>
      <trkpt lat="45.89903" lon="3.02554">
        <ele>615.1</ele>
        <time>2018-07-01T08:00:54Z</time>
      </trkpt>
      <trkpt lat="45.899" lon="3.02548">
        <ele>615.9</ele>
        <time>2018-07-01T08:00:58Z</time>
      </trkpt>
      <trkpt lat="45.89899" lon="3.02545">
        <ele>616.2</ele>
        <time>2018-07-01T08:01:00Z</time>
      </trkpt>
      <trkpt lat="45.89899" lon="3.02541">
        <ele>616.8</ele>
        <time>2018-07-01T08:01:03Z</time>
      </trkpt>
      <trkpt lat="45.89897" lon="3.02527">
        <ele>618.3</ele>
        <time>2018-07-01T08:01:12Z</time>
      </trkpt>
      <trkpt lat="45.89896" lon="3.02523">
        <ele>618.9</ele>
        <time>2018-07-01T08:01:15Z</time>
      </trkpt>
      <trkpt lat="45.89895" lon="3.02518">
        <ele>619.4</ele>
        <time>2018-07-01T08:01:18Z</time>
      </trkpt>
      <trkpt lat="45.89894" lon="3.02515">
        <ele>619.8</ele>
        <time>2018-07-01T08:01:20Z</time>
      </trkpt>
      <trkpt lat="45.89887" lon="3.02503">
        <ele>621.5</ele>
        <time>2018-07-01T08:01:31Z</time>
      </trkpt>
      <trkpt lat="45.89886" lon="3.025">
        <ele>621.8</ele>
        <time>2018-07-01T08:01:33Z</time>
      </trkpt>
      <trkpt lat="45.89883" lon="3.02489">
        <ele>622.9</ele>
        <time>2018-07-01T08:01:41Z</time>
      </trkpt>
      <trkpt lat="45.89883" lon="3.02486">
        <ele>623.2</ele>
        <time>2018-07-01T08:01:43Z</time>
      </trkpt>
      <trkpt lat="45.89883" lon="3.02485">
        <ele>623.3</ele>
        <time>2018-07-01T08:01:44Z</time>
      </trkpt>
      <trkpt lat="45.89883" lon="3.02483">
        <ele>623.4</ele>
        <time>2018-07-01T08:01:45Z</time>
      </trkpt>
      <trkpt lat="45.89885" lon="3.02479">
        <ele>623.6</ele>
        <time>2018-07-01T08:01:48Z</time>
      </trkpt>
      <trkpt lat="45.89885" lon="3.02476">
        <ele>623.8</ele>
        <time>2018-07-01T08:01:50Z</time>
      </trkpt>
      <trkpt lat="45.89886" lon="3.02469">
        <ele>624.2</ele>
        <time>2018-07-01T08:01:55Z</time>
      </trkpt>
      <trkpt lat="45.89887" lon="3.02465">
        <ele>624.5</ele>
        <time>2018-07-01T08:01:58Z</time>
      </trkpt>
      <trkpt lat="45.89888" lon="3.02462">
        <ele>624.5</ele>
        <time>2018-07-01T08:02:00Z</time>
      </trkpt>
      <trkpt lat="45.8989" lon="3.02457">
        <ele>624.6</ele>
        <time>2018-07-01T08:02:04Z</time>
      </trkpt>
      <trkpt lat="45.89892" lon="3.02452">
        <ele>624.7</ele>
        <time>2018-07-01T08:02:07Z</time>
      </trkpt>
      <trkpt lat="45.89893" lon="3.02449">
        <ele>624.8</ele>
        <time>2018-07-01T08:02:09Z</time>
      </trkpt>
      <trkpt lat="45.89893" lon="3.02443">
        <ele>625.1</ele>
        <time>2018-07-01T08:02:13Z</time>
      </trkpt>
      <trkpt lat="45.89894" lon="3.02441">
        <ele>625.1</ele>
        <time>2018-07-01T08:02:14Z</time>
      </trkpt>
      <trkpt lat="45.89895" lon="3.02436">
        <ele>625.3</ele>
        <time>2018-07-01T08:02:18Z</time>
      </trkpt>
      <trkpt lat="45.89896" lon="3.02431">
        <ele>625.4</ele>
        <time>2018-07-01T08:02:22Z</time>
      </trkpt>
      <trkpt lat="45.89897" lon="3.02424">
        <ele>625.7</ele>
        <time>2018-07-01T08:02:28Z</time>
      </trkpt>
      <trkpt lat="45.89898" lon="3.02419">
        <ele>625.7</ele>
        <time>2018-07-01T08:02:32Z</time>
      </trkpt>
      <trkpt lat="45.89901" lon="3.0241">
        <ele>626.2</ele>
        <time>2018-07-01T08:02:39Z</time>
      </trkpt>
      <trkpt lat="45.89902" lon="3.02405">
        <ele>626.6</ele>
        <time>2018-07-01T08:02:43Z</time>
      </trkpt>
      <trkpt lat="45.89903" lon="3.024">
        <ele>627</ele>
        <time>2018-07-01T08:02:47Z</time>
      </trkpt>
      <trkpt lat="45.89904" lon="3.02391">
        <ele>627.9</ele>
        <time>2018-07-01T08:02:55Z</time>
      </trkpt>
      <trkpt lat="45.89906" lon="3.02374">
        <ele>629.3</ele>
        <time>2018-07-01T08:03:08Z</time>
      </trkpt>
      <trkpt lat="45.89907" lon="3.02372">
        <ele>629.4</ele>
        <time>2018-07-01T08:03:10Z</time>
      </trkpt>
      <trkpt lat="45.89908" lon="3.02369">
        <ele>629.3</ele>
        <time>2018-07-01T08:03:14Z</time>
      </trkpt>
      <trkpt lat="45.89909" lon="3.02367">
        <ele>629.5</ele>
        <time>2018-07-01T08:03:18Z</time>
      </trkpt>
      <trkpt lat="45.89909" lon="3.02366">
        <ele>629.5</ele>
        <time>2018-07-01T08:03:19Z</time>
      </trkpt>
      <trkpt lat="45.89911" lon="3.02364">
        <ele>629.2</ele>
        <time>2018-07-01T08:03:22Z</time>
      </trkpt>
      <trkpt lat="45.89913" lon="3.02364">
        <ele>628.7</ele>
        <time>2018-07-01T08:03:25Z</time>
      </trkpt>
      <trkpt lat="45.89915" lon="3.02364">
        <ele>628.3</ele>
        <time>2018-07-01T08:03:28Z</time>
      </trkpt>
      <trkpt lat="45.89917" lon="3.02365">
        <ele>627.6</ele>
        <time>2018-07-01T08:03:33Z</time>
      </trkpt>
      <trkpt lat="45.89918" lon="3.02364">
        <ele>627.8</ele>
        <time>2018-07-01T08:03:36Z</time>
      </trkpt>
      <trkpt lat="45.89919" lon="3.02363">
        <ele>628</ele>
        <time>2018-07-01T08:03:42Z</time>
      </trkpt>
      <trkpt lat="45.8992" lon="3.02362">
        <ele>628.3</ele>
        <time>2018-07-01T08:03:46Z</time>
      </trkpt>
      <trkpt lat="45.89921" lon="3.0236">
        <ele>628.6</ele>
        <time>2018-07-01T08:03:48Z</time>
      </trkpt>
      <trkpt lat="45.89922" lon="3.0236">
        <ele>628.7</ele>
        <time>2018-07-01T08:03:49Z</time>
      </trkpt>
      <trkpt lat="45.89923" lon="3.0236">
        <ele>628.8</ele>
        <time>2018-07-01T08:03:51Z</time>
      </trkpt>
      <trkpt lat="45.89923" lon="3.02358">
        <ele>629</ele>
        <time>2018-07-01T08:03:56Z</time>
      </trkpt>
      <trkpt lat="45.89924" lon="3.02358">
        <ele>629.1</ele>
        <time>2018-07-01T08:03:58Z</time>
      </trkpt>
      <trkpt lat="45.89926" lon="3.02357">
        <ele>629.4</ele>
        <time>2018-07-01T08:04:03Z</time>
      </trkpt>
      <trkpt lat="45.89928" lon="3.02356">
        <ele>629.6</ele>
        <time>2018-07-01T08:04:07Z</time>
      </trkpt>
      <trkpt lat="45.8993" lon="3.0235">
        <ele>630.3</ele>
        <time>2018-07-01T08:04:15Z</time>
      </trkpt>
      <trkpt lat="45.89931" lon="3.02349">
        <ele>630.4</ele>
        <time>2018-07-01T08:04:17Z</time>
      </trkpt>
      <trkpt lat="45.89935" lon="3.02348">
        <ele>630.7</ele>
        <time>2018-07-01T08:04:23Z</time>
      </trkpt>
      <trkpt lat="45.89936" lon="3.02347">
        <ele>630.8</ele>
        <time>2018-07-01T08:04:27Z</time>
      </trkpt>
      <trkpt lat="45.89941" lon="3.02345">
        <ele>631.2</ele>
        <time>2018-07-01T08:04:32Z</time>
      </trkpt>
      <trkpt lat="45.89946" lon="3.02343">
        <ele>631.5</ele>
        <time>2018-07-01T08:04:37Z</time>
      </trkpt>
      <trkpt lat="45.89948" lon="3.02343">
        <ele>631.7</ele>
        <time>2018-07-01T08:04:39Z</time>
      </trkpt>
      <trkpt lat="45.89956" lon="3.02342">
        <ele>632.1</ele>
        <time>2018-07-01T08:04:46Z</time>
      </trkpt>
      <trkpt lat="45.89957" lon="3.02341">
        <ele>632.1</ele>
        <time>2018-07-01T08:04:48Z</time>
      </trkpt>
      <trkpt lat="45.89959" lon="3.0234">
        <ele>632.2</ele>
        <time>2018-07-01T08:04:50Z</time>
      </trkpt>
      <trkpt lat="45.89964" lon="3.02339">
        <ele>632.3</ele>
        <time>2018-07-01T08:04:54Z</time>
      </trkpt>
      <trkpt lat="45.89969" lon="3.02338">
        <ele>632.5</ele>
        <time>2018-07-01T08:04:59Z</time>
      </trkpt>
      <trkpt lat="45.89987" lon="3.02341">
        <ele>633.6</ele>
        <time>2018-07-01T08:05:14Z</time>
      </trkpt>
      <trkpt lat="45.89992" lon="3.02341">
        <ele>633.8</ele>
        <time>2018-07-01T08:05:19Z</time>
      </trkpt>
      <trkpt lat="45.89995" lon="3.02341">
        <ele>633.9</ele>
        <time>2018-07-01T08:05:23Z</time>
      </trkpt>
      <trkpt lat="45.89998" lon="3.0234">
        <ele>633.9</ele>
        <time>2018-07-01T08:05:26Z</time>
      </trkpt>
      <trkpt lat="45.89999" lon="3.02339">
        <ele>633.8</ele>
        <time>2018-07-01T08:05:28Z</time>
      </trkpt>
      <trkpt lat="45.9" lon="3.02337">
        <ele>633.5</ele>
        <time>2018-07-01T08:05:31Z</time>
      </trkpt>
      <trkpt lat="45.9" lon="3.02335">
        <ele>633.3</ele>
        <time>2018-07-01T08:05:34Z</time>
      </trkpt>
      <trkpt lat="45.9" lon="3.02334">
        <ele>633</ele>
        <time>2018-07-01T08:05:38Z</time>
      </trkpt>
      <trkpt lat="45.89999" lon="3.02333">
        <ele>633.1</ele>
        <time>2018-07-01T08:05:42Z</time>
      </trkpt>
      <trkpt lat="45.89998" lon="3.02331">
        <ele>633.5</ele>
        <time>2018-07-01T08:05:45Z</time>
      </trkpt>
      <trkpt lat="45.89997" lon="3.02331">
        <ele>633.6</ele>
        <time>2018-07-01T08:05:46Z</time>
      </trkpt>
      <trkpt lat="45.89998" lon="3.02329">
        <ele>634</ele>
        <time>2018-07-01T08:05:48Z</time>
      </trkpt>
      <trkpt lat="45.9" lon="3.02326">
        <ele>634.8</ele>
        <time>2018-07-01T08:05:52Z</time>
      </trkpt>
      <trkpt lat="45.90002" lon="3.02321">
        <ele>636.1</ele>
        <time>2018-07-01T08:05:58Z</time>
      </trkpt>
      <trkpt lat="45.90003" lon="3.02319">
        <ele>636.7</ele>
        <time>2018-07-01T08:06:00Z</time>
      </trkpt>
      <trkpt lat="45.90006" lon="3.02315">
        <ele>637.6</ele>
        <time>2018-07-01T08:06:04Z</time>
      </trkpt>
      <trkpt lat="45.90009" lon="3.02313">
        <ele>638.2</ele>
        <time>2018-07-01T08:06:07Z</time>
      </trkpt>
      <trkpt lat="45.9001" lon="3.02312">
        <ele>638.4</ele>
        <time>2018-07-01T08:06:09Z</time>
      </trkpt>
      <trkpt lat="45.90012" lon="3.02311">
        <ele>638.5</ele>
        <time>2018-07-01T08:06:11Z</time>
      </trkpt>
      <trkpt lat="45.90013" lon="3.02311">
        <ele>638.6</ele>
        <time>2018-07-01T08:06:13Z</time>
      </trkpt>
      <trkpt lat="45.90015" lon="3.02311">
        <ele>638.5</ele>
        <time>2018-07-01T08:06:15Z</time>
      </trkpt>
      <trkpt lat="45.90017" lon="3.02313">
        <ele>638.4</ele>
        <time>2018-07-01T08:06:18Z</time>
      </trkpt>
      <trkpt lat="45.90023" lon="3.02316">
        <ele>637.9</ele>
        <time>2018-07-01T08:06:26Z</time>
      </trkpt>
      <trkpt lat="45.90027" lon="3.02318">
        <ele>637.5</ele>
        <time>2018-07-01T08:06:33Z</time>
      </trkpt>
      <trkpt lat="45.9003" lon="3.0232">
        <ele>637.4</ele>
        <time>2018-07-01T08:06:38Z</time>
      </trkpt>
      <trkpt lat="45.90033" lon="3.0232">
        <ele>637.5</ele>
        <time>2018-07-01T08:06:43Z</time>
      </trkpt>
      <trkpt lat="45.90035" lon="3.0232">
        <ele>637.6</ele>
        <time>2018-07-01T08:06:51Z</time>
      </trkpt>
      <trkpt lat="45.9004" lon="3.02323">
        <ele>637.4</ele>
        <time>2018-07-01T08:08:27Z</time>
      </trkpt>
      <trkpt lat="45.9004" lon="3.02323">
        <ele>637.4</ele>
        <time>2018-07-01T08:10:00Z</time>
      </trkpt>
      <trkpt lat="45.90039" lon="3.02322">
        <ele>637.4</ele>
        <time>2018-07-01T08:10:03Z</time>
      </trkpt>
      <trkpt lat="45.90039" lon="3.02321">
        <ele>637.5</ele>
        <time>2018-07-01T08:10:05Z</time>
      </trkpt>
      <trkpt lat="45.9004" lon="3.0232">
        <ele>637.7</ele>
        <time>2018-07-01T08:10:07Z</time>
      </trkpt>
      <trkpt lat="45.90041" lon="3.02319">
        <ele>637.9</ele>
        <time>2018-07-01T08:10:09Z</time>
      </trkpt>
      <trkpt lat="45.90042" lon="3.02318">
        <ele>638.1</ele>
        <time>2018-07-01T08:10:11Z</time>
      </trkpt>
      <trkpt lat="45.90044" lon="3.02318">
        <ele>638.2</ele>
        <time>2018-07-01T08:10:14Z</time>
      </trkpt>
      <trkpt lat="45.90047" lon="3.02318">
        <ele>638.4</ele>
        <time>2018-07-01T08:10:19Z</time>
      </trkpt>
      <trkpt lat="45.90048" lon="3.02317">
        <ele>638.4</ele>
        <time>2018-07-01T08:10:20Z</time>
      </trkpt>
      <trkpt lat="45.90049" lon="3.02316">
        <ele>638.7</ele>
        <time>2018-07-01T08:10:24Z</time>
      </trkpt>
      <trkpt lat="45.9005" lon="3.02315">
        <ele>638.7</ele>
        <time>2018-07-01T08:10:25Z</time>
      </trkpt>
      <trkpt lat="45.90051" lon="3.02315">
        <ele>638.8</ele>
        <time>2018-07-01T08:10:27Z</time>
      </trkpt>
      <trkpt lat="45.90052" lon="3.02315">
        <ele>638.8</ele>
        <time>2018-07-01T08:10:28Z</time>
      </trkpt>
      <trkpt lat="45.90053" lon="3.02316">
        <ele>638.7</ele>
        <time>2018-07-01T08:10:30Z</time>
      </trkpt>
      <trkpt lat="45.90054" lon="3.02318">
        <ele>638.5</ele>
        <time>2018-07-01T08:10:32Z</time>
      </trkpt>
      <trkpt lat="45.90056" lon="3.0232">
        <ele>638.5</ele>
        <time>2018-07-01T08:10:34Z</time>
      </trkpt>
      <trkpt lat="45.90057" lon="3.0232">
        <ele>638.4</ele>
        <time>2018-07-01T08:10:35Z</time>
      </trkpt>
      <trkpt lat="45.90059" lon="3.0232">
        <ele>638.5</ele>
        <time>2018-07-01T08:10:37Z</time>
      </trkpt>
      <trkpt lat="45.9006" lon="3.0232">
        <ele>638.5</ele>
        <time>2018-07-01T08:10:38Z</time>
      </trkpt>
      <trkpt lat="45.90064" lon="3.02318">
        <ele>638.8</ele>
        <time>2018-07-01T08:10:42Z</time>
      </trkpt>
      <trkpt lat="45.90071" lon="3.02314">
        <ele>639.4</ele>
        <time>2018-07-01T08:10:49Z</time>
      </trkpt>
      <trkpt lat="45.90074" lon="3.02312">
        <ele>639.6</ele>
        <time>2018-07-01T08:10:52Z</time>
      </trkpt>
      <trkpt lat="45.90076" lon="3.0231">
        <ele>639.8</ele>
        <time>2018-07-01T08:10:56Z</time>
      </trkpt>
      <trkpt lat="45.90078" lon="3.02308">
        <ele>639.9</ele>
        <time>2018-07-01T08:11:00Z</time>
      </trkpt>
      <trkpt lat="45.90079" lon="3.02306">
        <ele>640</ele>
        <time>2018-07-01T08:11:05Z</time>
      </trkpt>
      <trkpt lat="45.9008" lon="3.02304">
        <ele>640.1</ele>
        <time>2018-07-01T08:11:08Z</time>
      </trkpt>
      <trkpt lat="45.90081" lon="3.02299">
        <ele>640.2</ele>
        <time>2018-07-01T08:11:12Z</time>
      </trkpt>
      <trkpt lat="45.90082" lon="3.02298">
        <ele>640.3</ele>
        <time>2018-07-01T08:11:14Z</time>
      </trkpt>
      <trkpt lat="45.90082" lon="3.02296">
        <ele>640.4</ele>
        <time>2018-07-01T08:11:20Z</time>
      </trkpt>
      <trkpt lat="45.90083" lon="3.02295">
        <ele>640.4</ele>
        <time>2018-07-01T08:11:22Z</time>
      </trkpt>
      <trkpt lat="45.90084" lon="3.02296">
        <ele>640.4</ele>
        <time>2018-07-01T08:11:25Z</time>
      </trkpt>
      <trkpt lat="45.90085" lon="3.02297">
        <ele>640.3</ele>
        <time>2018-07-01T08:11:28Z</time>
      </trkpt>
      <trkpt lat="45.90086" lon="3.02298">
        <ele>640.3</ele>
        <time>2018-07-01T08:11:30Z</time>
      </trkpt>
      <trkpt lat="45.90088" lon="3.02299">
        <ele>640.4</ele>
        <time>2018-07-01T08:11:32Z</time>
      </trkpt>
      <trkpt lat="45.90089" lon="3.02298">
        <ele>640.4</ele>
        <time>2018-07-01T08:11:34Z</time>
      </trkpt>
      <trkpt lat="45.90091" lon="3.02298">
        <ele>640.4</ele>
        <time>2018-07-01T08:11:36Z</time>
      </trkpt>
      <trkpt lat="45.90093" lon="3.02296">
        <ele>640.5</ele>
        <time>2018-07-01T08:11:39Z</time>
      </trkpt>
      <trkpt lat="45.90099" lon="3.02292">
        <ele>640.7</ele>
        <time>2018-07-01T08:11:46Z</time>
      </trkpt>
      <trkpt lat="45.90102" lon="3.02289">
        <ele>640.7</ele>
        <time>2018-07-01T08:11:50Z</time>
      </trkpt>
      <trkpt lat="45.90103" lon="3.02287">
        <ele>640.8</ele>
        <time>2018-07-01T08:11:52Z</time>
      </trkpt>
      <trkpt lat="45.90104" lon="3.02284">
        <ele>640.8</ele>
        <time>2018-07-01T08:11:54Z</time>
      </trkpt>
      <trkpt lat="45.90104" lon="3.02282">
        <ele>640.8</ele>
        <time>2018-07-01T08:11:56Z</time>
      </trkpt>
      <trkpt lat="45.90106" lon="3.02276">
        <ele>640.8</ele>
        <time>2018-07-01T08:12:00Z</time>
      </trkpt>
      <trkpt lat="45.90106" lon="3.0227">
        <ele>640.8</ele>
        <time>2018-07-01T08:12:05Z</time>
      </trkpt>
      <trkpt lat="45.90106" lon="3.02261">
        <ele>640.9</ele>
        <time>2018-07-01T08:12:12Z</time>
      </trkpt>
      <trkpt lat="45.90107" lon="3.02256">
        <ele>640.9</ele>
        <time>2018-07-01T08:12:15Z</time>
      </trkpt>
      <trkpt lat="45.90108" lon="3.02253">
        <ele>640.8</ele>
        <time>2018-07-01T08:12:17Z</time>
      </trkpt>
      <trkpt lat="45.9011" lon="3.02249">
        <ele>640.9</ele>
        <time>2018-07-01T08:12:20Z</time>
      </trkpt>
      <trkpt lat="45.90115" lon="3.02242">
        <ele>641.3</ele>
        <time>2018-07-01T08:12:25Z</time>
      </trkpt>
      <trkpt lat="45.90117" lon="3.02238">
        <ele>641.6</ele>
        <time>2018-07-01T08:12:28Z</time>
      </trkpt>
      <trkpt lat="45.90122" lon="3.02225">
        <ele>642.4</ele>
        <time>2018-07-01T08:12:37Z</time>
      </trkpt>
      <trkpt lat="45.90123" lon="3.02222">
        <ele>642.5</ele>
        <time>2018-07-01T08:12:39Z</time>
      </trkpt>
      <trkpt lat="45.90124" lon="3.0222">
        <ele>642.6</ele>
        <time>2018-07-01T08:12:41Z</time>
      </trkpt>
      <trkpt lat="45.90126" lon="3.02217">
        <ele>642.7</ele>
        <time>2018-07-01T08:12:43Z</time>
      </trkpt>
      <trkpt lat="45.9013" lon="3.02213">
        <ele>642.6</ele>
        <time>2018-07-01T08:12:48Z</time>
      </trkpt>
      <trkpt lat="45.90131" lon="3.02211">
        <ele>642.6</ele>
        <time>2018-07-01T08:12:51Z</time>
      </trkpt>
      <trkpt lat="45.90131" lon="3.02211">
        <ele>642.7</ele>
        <time>2018-07-01T08:12:55Z</time>
      </trkpt>
      <trkpt lat="45.90133" lon="3.02206">
        <ele>642.7</ele>
        <time>2018-07-01T08:13:01Z</time>
      </trkpt>
      <trkpt lat="45.90134" lon="3.02205">
        <ele>642.6</ele>
        <time>2018-07-01T08:13:03Z</time>
      </trkpt>
      <trkpt lat="45.90138" lon="3.02202">
        <ele>642.4</ele>
        <time>2018-07-01T08:13:08Z</time>
      </trkpt>
      <trkpt lat="45.90139" lon="3.022">
        <ele>642.3</ele>
        <time>2018-07-01T08:13:10Z</time>
      </trkpt>
      <trkpt lat="45.90141" lon="3.02196">
        <ele>642.3</ele>
        <time>2018-07-01T08:13:14Z</time>
      </trkpt>
      <trkpt lat="45.90149" lon="3.0218">
        <ele>641.8</ele>
        <time>2018-07-01T08:13:26Z</time>
      </trkpt>
      <trkpt lat="45.90154" lon="3.02171">
        <ele>641.3</ele>
        <time>2018-07-01T08:13:33Z</time>
      </trkpt>
      <trkpt lat="45.90161" lon="3.02159">
        <ele>640.8</ele>
        <time>2018-07-01T08:13:43Z</time>
      </trkpt>
      <trkpt lat="45.90166" lon="3.02152">
        <ele>640.7</ele>
        <time>2018-07-01T08:13:49Z</time>
      </trkpt>
      <trkpt lat="45.90168" lon="3.02149">
        <ele>641.2</ele>
        <time>2018-07-01T08:13:52Z</time>
      </trkpt>
      <trkpt lat="45.90177" lon="3.02139">
        <ele>643.4</ele>
        <time>2018-07-01T08:14:00Z</time>
      </trkpt>
      <trkpt lat="45.90179" lon="3.02137">
        <ele>643.9</ele>
        <time>2018-07-01T08:14:02Z</time>
      </trkpt>
      <trkpt lat="45.90181" lon="3.02134">
        <ele>644.3</ele>
        <time>2018-07-01T08:14:04Z</time>
      </trkpt>
      <trkpt lat="45.90181" lon="3.02133">
        <ele>644.5</ele>
        <time>2018-07-01T08:14:05Z</time>
      </trkpt>
      <trkpt lat="45.90182" lon="3.0213">
        <ele>644.8</ele>
        <time>2018-07-01T08:14:07Z</time>
      </trkpt>
      <trkpt lat="45.90182" lon="3.02127">
        <ele>645.2</ele>
        <time>2018-07-01T08:14:54Z</time>
      </trkpt>
      <trkpt lat="45.90182" lon="3.02127">
        <ele>645.2</ele>
        <time>2018-07-01T08:14:58Z</time>
      </trkpt>
      <trkpt lat="45.90183" lon="3.02119">
        <ele>645.9</ele>
        <time>2018-07-01T08:15:05Z</time>
      </trkpt>
      <trkpt lat="45.90181" lon="3.02108">
        <ele>646.8</ele>
        <time>2018-07-01T08:15:13Z</time>
      </trkpt>
      <trkpt lat="45.90181" lon="3.02104">
        <ele>647.2</ele>
        <time>2018-07-01T08:15:16Z</time>
      </trkpt>
      <trkpt lat="45.90182" lon="3.02102">
        <ele>647.4</ele>
        <time>2018-07-01T08:15:18Z</time>
      </trkpt>
      <trkpt lat="45.90183" lon="3.02097">
        <ele>648</ele>
        <time>2018-07-01T08:15:22Z</time>
      </trkpt>
      <trkpt lat="45.90185" lon="3.02089">
        <ele>648.9</ele>
        <time>2018-07-01T08:15:28Z</time>
      </trkpt>
      <trkpt lat="45.90186" lon="3.02083">
        <ele>649.5</ele>
        <time>2018-07-01T08:15:32Z</time>
      </trkpt>
      <trkpt lat="45.90187" lon="3.02076">
        <ele>650.3</ele>
        <time>2018-07-01T08:15:36Z</time>
      </trkpt>
      <trkpt lat="45.90188" lon="3.0207">
        <ele>651.1</ele>
        <time>2018-07-01T08:15:40Z</time>
      </trkpt>
      <trkpt lat="45.90191" lon="3.02058">
        <ele>652.6</ele>
        <time>2018-07-01T08:15:47Z</time>
      </trkpt>
      <trkpt lat="45.90192" lon="3.02053">
        <ele>653.1</ele>
        <time>2018-07-01T08:15:49Z</time>
      </trkpt>
      <trkpt lat="45.90193" lon="3.02046">
        <ele>653.8</ele>
        <time>2018-07-01T08:15:52Z</time>
      </trkpt>
      <trkpt lat="45.90193" lon="3.02033">
        <ele>655.2</ele>
        <time>2018-07-01T08:15:58Z</time>
      </trkpt>
      <trkpt lat="45.90193" lon="3.02029">
        <ele>655.7</ele>
        <time>2018-07-01T08:16:02Z</time>
      </trkpt>
      <trkpt lat="45.90194" lon="3.02027">
        <ele>655.9</ele>
        <time>2018-07-01T08:16:05Z</time>
      </trkpt>
      <trkpt lat="45.90195" lon="3.02026">
        <ele>655.9</ele>
        <time>2018-07-01T08:16:07Z</time>
      </trkpt>
      <trkpt lat="45.90198" lon="3.02025">
        <ele>656.1</ele>
        <time>2018-07-01T08:16:15Z</time>
      </trkpt>
      <trkpt lat="45.90198" lon="3.02024">
        <ele>656.1</ele>
        <time>2018-07-01T08:16:17Z</time>
      </trkpt>
      <trkpt lat="45.90198" lon="3.02023">
        <ele>656.2</ele>
        <time>2018-07-01T08:16:20Z</time>
      </trkpt>
      <trkpt lat="45.90198" lon="3.02023">
        <ele>656.3</ele>
        <time>2018-07-01T08:16:21Z</time>
      </trkpt>
      <trkpt lat="45.90198" lon="3.02021">
        <ele>656.5</ele>
        <time>2018-07-01T08:16:23Z</time>
      </trkpt>
      <trkpt lat="45.90198" lon="3.02018">
        <ele>656.7</ele>
        <time>2018-07-01T08:16:25Z</time>
      </trkpt>
      <trkpt lat="45.90197" lon="3.02013">
        <ele>657.3</ele>
        <time>2018-07-01T08:16:29Z</time>
      </trkpt>
      <trkpt lat="45.90196" lon="3.0201">
        <ele>657.6</ele>
        <time>2018-07-01T08:16:31Z</time>
      </trkpt>
      <trkpt lat="45.90196" lon="3.02006">
        <ele>658</ele>
        <time>2018-07-01T08:16:34Z</time>
      </trkpt>
      <trkpt lat="45.90196" lon="3.01993">
        <ele>659.3</ele>
        <time>2018-07-01T08:16:45Z</time>
      </trkpt>
      <trkpt lat="45.90195" lon="3.0199">
        <ele>659.5</ele>
        <time>2018-07-01T08:16:48Z</time>
      </trkpt>
      <trkpt lat="45.90195" lon="3.01989">
        <ele>659.7</ele>
        <time>2018-07-01T08:16:51Z</time>
      </trkpt>
      <trkpt lat="45.90194" lon="3.01988">
        <ele>659.8</ele>
        <time>2018-07-01T08:16:53Z</time>
      </trkpt>
      <trkpt lat="45.90193" lon="3.01988">
        <ele>659.8</ele>
        <time>2018-07-01T08:16:55Z</time>
      </trkpt>
      <trkpt lat="45.90193" lon="3.01989">
        <ele>659.8</ele>
        <time>2018-07-01T08:16:57Z</time>
      </trkpt>
      <trkpt lat="45.90192" lon="3.0199">
        <ele>659.7</ele>
        <time>2018-07-01T08:17:00Z</time>
      </trkpt>
      <trkpt lat="45.90191" lon="3.01992">
        <ele>659.6</ele>
        <time>2018-07-01T08:17:02Z</time>
      </trkpt>
      <trkpt lat="45.9019" lon="3.01994">
        <ele>659.4</ele>
        <time>2018-07-01T08:17:05Z</time>
      </trkpt>
      <trkpt lat="45.90191" lon="3.01999">
        <ele>659</ele>
        <time>2018-07-01T08:17:10Z</time>
      </trkpt>
      <trkpt lat="45.9019" lon="3.02001">
        <ele>658.7</ele>
        <time>2018-07-01T08:17:13Z</time>
      </trkpt>
      <trkpt lat="45.90185" lon="3.02008">
        <ele>658.1</ele>
        <time>2018-07-01T08:17:20Z</time>
      </trkpt>
      <trkpt lat="45.90176" lon="3.02021">
        <ele>656.8</ele>
        <time>2018-07-01T08:17:29Z</time>
      </trkpt>
      <trkpt lat="45.90171" lon="3.02028">
        <ele>655.9</ele>
        <time>2018-07-01T08:17:33Z</time>
      </trkpt>
      <trkpt lat="45.90167" lon="3.02034">
        <ele>655.1</ele>
        <time>2018-07-01T08:17:37Z</time>
      </trkpt>
      <trkpt lat="45.90163" lon="3.02043">
        <ele>654.5</ele>
        <time>2018-07-01T08:17:44Z</time>
      </trkpt>
      <trkpt lat="45.90161" lon="3.02045">
        <ele>654.4</ele>
        <time>2018-07-01T08:17:47Z</time>
      </trkpt>
      <trkpt lat="45.90155" lon="3.02051">
        <ele>654.5</ele>
        <time>2018-07-01T08:17:54Z</time>
      </trkpt>
      <trkpt lat="45.90148" lon="3.02059">
        <ele>654.5</ele>
        <time>2018-07-01T08:18:02Z</time>
      </trkpt>
      <trkpt lat="45.90145" lon="3.02061">
        <ele>654.6</ele>
        <time>2018-07-01T08:18:06Z</time>
      </trkpt>
      <trkpt lat="45.90139" lon="3.02065">
        <ele>655.1</ele>
        <time>2018-07-01T08:18:14Z</time>
      </trkpt>
      <trkpt lat="45.90136" lon="3.02066">
        <ele>655.5</ele>
        <time>2018-07-01T08:18:18Z</time>
      </trkpt>
      <trkpt lat="45.90131" lon="3.0207">
        <ele>655.8</ele>
        <time>2018-07-01T08:18:23Z</time>
      </trkpt>
      <trkpt lat="45.90128" lon="3.02072">
        <ele>655.9</ele>
        <time>2018-07-01T08:18:27Z</time>
      </trkpt>
      <trkpt lat="45.90127" lon="3.02073">
        <ele>655.9</ele>
        <time>2018-07-01T08:18:31Z</time>
      </trkpt>
      <trkpt lat="45.90127" lon="3.02074">
        <ele>655.9</ele>
        <time>2018-07-01T08:18:39Z</time>
      </trkpt>
      <trkpt lat="45.90125" lon="3.02076">
        <ele>656</ele>
        <time>2018-07-01T08:19:15Z</time>
      </trkpt>
      <trkpt lat="45.90121" lon="3.02078">
        <ele>656.4</ele>
        <time>2018-07-01T08:19:21Z</time>
      </trkpt>
      <trkpt lat="45.90119" lon="3.02079">
        <ele>656.6</ele>
        <time>2018-07-01T08:19:23Z</time>
      </trkpt>
      <trkpt lat="45.90117" lon="3.02079">
        <ele>656.8</ele>
        <time>2018-07-01T08:19:25Z</time>
      </trkpt>
      <trkpt lat="45.90115" lon="3.02079">
        <ele>657.1</ele>
        <time>2018-07-01T08:19:27Z</time>
      </trkpt>
      <trkpt lat="45.90114" lon="3.02078">
        <ele>657.5</ele>
        <time>2018-07-01T08:19:29Z</time>
      </trkpt>
      <trkpt lat="45.90112" lon="3.02077">
        <ele>657.9</ele>
        <time>2018-07-01T08:19:31Z</time>
      </trkpt>
      <trkpt lat="45.90111" lon="3.02075">
        <ele>658.4</ele>
        <time>2018-07-01T08:19:33Z</time>
      </trkpt>
      <trkpt lat="45.90109" lon="3.0207">
        <ele>659.3</ele>
        <time>2018-07-01T08:19:37Z</time>
      </trkpt>
      <trkpt lat="45.90108" lon="3.02066">
        <ele>660</ele>
        <time>2018-07-01T08:19:40Z</time>
      </trkpt>
      <trkpt lat="45.90107" lon="3.02061">
        <ele>660.7</ele>
        <time>2018-07-01T08:19:43Z</time>
      </trkpt>
      <trkpt lat="45.90106" lon="3.02053">
        <ele>661.9</ele>
        <time>2018-07-01T08:19:49Z</time>
      </trkpt>
      <trkpt lat="45.90105" lon="3.02047">
        <ele>662.5</ele>
        <time>2018-07-01T08:19:53Z</time>
      </trkpt>
      <trkpt lat="45.90105" lon="3.02033">
        <ele>664.2</ele>
        <time>2018-07-01T08:20:06Z</time>
      </trkpt>
      <trkpt lat="45.90105" lon="3.02024">
        <ele>665.4</ele>
        <time>2018-07-01T08:20:16Z</time>
      </trkpt>
      <trkpt lat="45.90105" lon="3.0202">
        <ele>665.8</ele>
        <time>2018-07-01T08:20:20Z</time>
      </trkpt>
      <trkpt lat="45.90105" lon="3.02016">
        <ele>666.2</ele>
        <time>2018-07-01T08:20:24Z</time>
      </trkpt>
      <trkpt lat="45.90105" lon="3.02014">
        <ele>666.5</ele>
        <time>2018-07-01T08:20:26Z</time>
      </trkpt>
      <trkpt lat="45.90104" lon="3.02012">
        <ele>666.9</ele>
        <time>2018-07-01T08:20:28Z</time>
      </trkpt>
      <trkpt lat="45.90103" lon="3.02008">
        <ele>667.6</ele>
        <time>2018-07-01T08:20:31Z</time>
      </trkpt>
      <trkpt lat="45.90098" lon="3.01998">
        <ele>669.4</ele>
        <time>2018-07-01T08:20:38Z</time>
      </trkpt>
      <trkpt lat="45.90094" lon="3.01986">
        <ele>671.4</ele>
        <time>2018-07-01T08:20:53Z</time>
      </trkpt>
      <trkpt lat="45.90095" lon="3.01986">
        <ele>671.2</ele>
        <time>2018-07-01T08:21:29Z</time>
      </trkpt>
      <trkpt lat="45.90095" lon="3.01986">
        <ele>671.2</ele>
        <time>2018-07-01T08:21:30Z</time>
      </trkpt>
      <trkpt lat="45.90095" lon="3.01985">
        <ele>671.4</ele>
        <time>2018-07-01T08:21:31Z</time>
      </trkpt>
      <trkpt lat="45.90094" lon="3.01982">
        <ele>671.9</ele>
        <time>2018-07-01T08:21:36Z</time>
      </trkpt>
      <trkpt lat="45.90095" lon="3.01985">
        <ele>671.4</ele>
        <time>2018-07-01T08:21:50Z</time>
      </trkpt>
      <trkpt lat="45.90095" lon="3.01985">
        <ele>671.4</ele>
        <time>2018-07-01T08:23:01Z</time>
      </trkpt>
      <trkpt lat="45.90095" lon="3.01985">
        <ele>671.4</ele>
        <time>2018-07-01T08:23:04Z</time>
      </trkpt>
      <trkpt lat="45.90093" lon="3.0198">
        <ele>672.4</ele>
        <time>2018-07-01T08:23:12Z</time>
      </trkpt>
      <trkpt lat="45.90091" lon="3.01976">
        <ele>673</ele>
        <time>2018-07-01T08:23:15Z</time>
      </trkpt>
      <trkpt lat="45.90091" lon="3.01973">
        <ele>673.5</ele>
        <time>2018-07-01T08:23:19Z</time>
      </trkpt>
      <trkpt lat="45.90091" lon="3.01973">
        <ele>673.5</ele>
        <time>2018-07-01T08:23:20Z</time>
      </trkpt>
      <trkpt lat="45.90091" lon="3.01973">
        <ele>673.6</ele>
        <time>2018-07-01T08:23:23Z</time>
      </trkpt>
      <trkpt lat="45.90088" lon="3.01969">
        <ele>674.5</ele>
        <time>2018-07-01T08:23:28Z</time>
      </trkpt>
      <trkpt lat="45.90084" lon="3.0196">
        <ele>676.2</ele>
        <time>2018-07-01T08:23:35Z</time>
      </trkpt>
      <trkpt lat="45.90078" lon="3.01951">
        <ele>677.3</ele>
        <time>2018-07-01T08:23:42Z</time>
      </trkpt>
      <trkpt lat="45.90074" lon="3.01946">
        <ele>677.9</ele>
        <time>2018-07-01T08:23:47Z</time>
      </trkpt>
      <trkpt lat="45.90067" lon="3.01938">
        <ele>678.7</ele>
        <time>2018-07-01T08:23:55Z</time>
      </trkpt>
      <trkpt lat="45.90065" lon="3.01935">
        <ele>678.9</ele>
        <time>2018-07-01T08:23:58Z</time>
      </trkpt>
      <trkpt lat="45.90057" lon="3.01923">
        <ele>680</ele>
        <time>2018-07-01T08:24:10Z</time>
      </trkpt>
      <trkpt lat="45.90048" lon="3.01908">
        <ele>681</ele>
        <time>2018-07-01T08:24:20Z</time>
      </trkpt>
      <trkpt lat="45.90045" lon="3.01902">
        <ele>681.3</ele>
        <time>2018-07-01T08:24:24Z</time>
      </trkpt>
      <trkpt lat="45.9004" lon="3.0189">
        <ele>682</ele>
        <time>2018-07-01T08:24:32Z</time>
      </trkpt>
      <trkpt lat="45.90038" lon="3.01886">
        <ele>682.2</ele>
        <time>2018-07-01T08:24:35Z</time>
      </trkpt>
      <trkpt lat="45.90036" lon="3.01884">
        <ele>682.4</ele>
        <time>2018-07-01T08:24:37Z</time>
      </trkpt>
      <trkpt lat="45.90031" lon="3.01878">
        <ele>682.7</ele>
        <time>2018-07-01T08:24:42Z</time>
      </trkpt>
      <trkpt lat="45.90028" lon="3.01875">
        <ele>682.9</ele>
        <time>2018-07-01T08:24:51Z</time>
      </trkpt>
      <trkpt lat="45.90028" lon="3.01875">
        <ele>682.8</ele>
        <time>2018-07-01T08:24:58Z</time>
      </trkpt>
      <trkpt lat="45.90021" lon="3.01865">
        <ele>683.5</ele>
        <time>2018-07-01T08:25:28Z</time>
      </trkpt>
      <trkpt lat="45.90016" lon="3.01859">
        <ele>683.9</ele>
        <time>2018-07-01T08:25:34Z</time>
      </trkpt>
      <trkpt lat="45.90013" lon="3.01854">
        <ele>684.3</ele>
        <time>2018-07-01T08:25:38Z</time>
      </trkpt>
      <trkpt lat="45.90007" lon="3.01843">
        <ele>685.1</ele>
        <time>2018-07-01T08:25:46Z</time>
      </trkpt>
      <trkpt lat="45.90004" lon="3.0184">
        <ele>685.5</ele>
        <time>2018-07-01T08:25:49Z</time>
      </trkpt>
      <trkpt lat="45.90001" lon="3.01835">
        <ele>685.8</ele>
        <time>2018-07-01T08:25:53Z</time>
      </trkpt>
      <trkpt lat="45.89997" lon="3.01832">
        <ele>686</ele>
        <time>2018-07-01T08:25:58Z</time>
      </trkpt>
      <trkpt lat="45.89993" lon="3.01827">
        <ele>686.2</ele>
        <time>2018-07-01T08:26:03Z</time>
      </trkpt>
      <trkpt lat="45.89991" lon="3.01826">
        <ele>686.3</ele>
        <time>2018-07-01T08:26:05Z</time>
      </trkpt>
      <trkpt lat="45.89989" lon="3.01825">
        <ele>686.3</ele>
        <time>2018-07-01T08:26:07Z</time>
      </trkpt>
      <trkpt lat="45.89984" lon="3.01825">
        <ele>686.1</ele>
        <time>2018-07-01T08:26:13Z</time>
      </trkpt>
      <trkpt lat="45.89978" lon="3.01823">
        <ele>686</ele>
        <time>2018-07-01T08:26:21Z</time>
      </trkpt>
      <trkpt lat="45.89974" lon="3.01823">
        <ele>686</ele>
        <time>2018-07-01T08:26:24Z</time>
      </trkpt>
      <trkpt lat="45.89969" lon="3.01822">
        <ele>685.8</ele>
        <time>2018-07-01T08:26:28Z</time>
      </trkpt>
      <trkpt lat="45.89964" lon="3.01822">
        <ele>685.6</ele>
        <time>2018-07-01T08:26:32Z</time>
      </trkpt>
      <trkpt lat="45.89961" lon="3.01823">
        <ele>685.5</ele>
        <time>2018-07-01T08:26:35Z</time>
      </trkpt>
      <trkpt lat="45.89958" lon="3.01824">
        <ele>685.4</ele>
        <time>2018-07-01T08:26:37Z</time>
      </trkpt>
      <trkpt lat="45.89955" lon="3.01826">
        <ele>685.2</ele>
        <time>2018-07-01T08:26:40Z</time>
      </trkpt>
      <trkpt lat="45.89947" lon="3.01831">
        <ele>684.8</ele>
        <time>2018-07-01T08:26:47Z</time>
      </trkpt>
      <trkpt lat="45.89944" lon="3.01833">
        <ele>684.7</ele>
        <time>2018-07-01T08:26:50Z</time>
      </trkpt>
      <trkpt lat="45.89936" lon="3.01836">
        <ele>684.4</ele>
        <time>2018-07-01T08:26:58Z</time>
      </trkpt>
      <trkpt lat="45.89932" lon="3.01838">
        <ele>684.4</ele>
        <time>2018-07-01T08:27:01Z</time>
      </trkpt>
      <trkpt lat="45.89928" lon="3.01841">
        <ele>684.3</ele>
        <time>2018-07-01T08:27:06Z</time>
      </trkpt>
      <trkpt lat="45.89926" lon="3.01842">
        <ele>684.3</ele>
        <time>2018-07-01T08:27:09Z</time>
      </trkpt>
      <trkpt lat="45.89925" lon="3.01842">
        <ele>684.3</ele>
        <time>2018-07-01T08:27:13Z</time>
      </trkpt>
      <trkpt lat="45.89922" lon="3.01842">
        <ele>684.3</ele>
        <time>2018-07-01T08:27:17Z</time>
      </trkpt>
      <trkpt lat="45.89919" lon="3.01843">
        <ele>684.3</ele>
        <time>2018-07-01T08:27:20Z</time>
      </trkpt>
      <trkpt lat="45.89916" lon="3.01844">
        <ele>684.3</ele>
        <time>2018-07-01T08:27:22Z</time>
      </trkpt>
      <trkpt lat="45.89913" lon="3.01846">
        <ele>685.1</ele>
        <time>2018-07-01T08:27:25Z</time>
      </trkpt>
      <trkpt lat="45.89911" lon="3.01848">
        <ele>685.5</ele>
        <time>2018-07-01T08:27:27Z</time>
      </trkpt>
      <trkpt lat="45.89909" lon="3.0185">
        <ele>686</ele>
        <time>2018-07-01T08:27:30Z</time>
      </trkpt>
      <trkpt lat="45.89906" lon="3.01855">
        <ele>686.6</ele>
        <time>2018-07-01T08:27:35Z</time>
      </trkpt>
      <trkpt lat="45.89903" lon="3.01861">
        <ele>687.4</ele>
        <time>2018-07-01T08:27:41Z</time>
      </trkpt>
      <trkpt lat="45.89902" lon="3.01866">
        <ele>687.8</ele>
        <time>2018-07-01T08:27:50Z</time>
      </trkpt>
      <trkpt lat="45.89901" lon="3.01871">
        <ele>688.1</ele>
        <time>2018-07-01T08:27:56Z</time>
      </trkpt>
      <trkpt lat="45.899" lon="3.0188">
        <ele>688.5</ele>
        <time>2018-07-01T08:28:02Z</time>
      </trkpt>
      <trkpt lat="45.899" lon="3.01883">
        <ele>688.6</ele>
        <time>2018-07-01T08:28:04Z</time>
      </trkpt>
      <trkpt lat="45.89901" lon="3.01892">
        <ele>688.6</ele>
        <time>2018-07-01T08:28:09Z</time>
      </trkpt>
      <trkpt lat="45.89901" lon="3.01896">
        <ele>688.7</ele>
        <time>2018-07-01T08:28:11Z</time>
      </trkpt>
      <trkpt lat="45.89901" lon="3.01903">
        <ele>688.9</ele>
        <time>2018-07-01T08:28:15Z</time>
      </trkpt>
      <trkpt lat="45.89901" lon="3.01908">
        <ele>689.1</ele>
        <time>2018-07-01T08:28:18Z</time>
      </trkpt>
      <trkpt lat="45.89902" lon="3.01929">
        <ele>689</ele>
        <time>2018-07-01T08:28:29Z</time>
      </trkpt>
      <trkpt lat="45.89901" lon="3.01937">
        <ele>688.9</ele>
        <time>2018-07-01T08:28:33Z</time>
      </trkpt>
      <trkpt lat="45.899" lon="3.01946">
        <ele>689.1</ele>
        <time>2018-07-01T08:28:38Z</time>
      </trkpt>
      <trkpt lat="45.899" lon="3.01954">
        <ele>689.1</ele>
        <time>2018-07-01T08:28:42Z</time>
      </trkpt>
      <trkpt lat="45.899" lon="3.0196">
        <ele>689</ele>
        <time>2018-07-01T08:28:45Z</time>
      </trkpt>
      <trkpt lat="45.899" lon="3.01967">
        <ele>688.8</ele>
        <time>2018-07-01T08:28:49Z</time>
      </trkpt>
      <trkpt lat="45.899" lon="3.01972">
        <ele>688.8</ele>
        <time>2018-07-01T08:28:52Z</time>
      </trkpt>
      <trkpt lat="45.899" lon="3.01977">
        <ele>688.9</ele>
        <time>2018-07-01T08:28:55Z</time>
      </trkpt>
      <trkpt lat="45.89898" lon="3.01987">
        <ele>689.1</ele>
        <time>2018-07-01T08:29:02Z</time>
      </trkpt>
      <trkpt lat="45.89897" lon="3.01994">
        <ele>689.2</ele>
        <time>2018-07-01T08:29:06Z</time>
      </trkpt>
      <trkpt lat="45.89897" lon="3.02001">
        <ele>689.1</ele>
        <time>2018-07-01T08:29:10Z</time>
      </trkpt>
      <trkpt lat="45.89896" lon="3.02014">
        <ele>689.1</ele>
        <time>2018-07-01T08:29:18Z</time>
      </trkpt>
      <trkpt lat="45.89896" lon="3.02022">
        <ele>689.1</ele>
        <time>2018-07-01T08:29:23Z</time>
      </trkpt>
      <trkpt lat="45.89895" lon="3.02027">
        <ele>689.2</ele>
        <time>2018-07-01T08:29:26Z</time>
      </trkpt>
      <trkpt lat="45.89894" lon="3.0203">
        <ele>689.3</ele>
        <time>2018-07-01T08:29:28Z</time>
      </trkpt>
      <trkpt lat="45.89893" lon="3.02033">
        <ele>689.4</ele>
        <time>2018-07-01T08:29:30Z</time>
      </trkpt>
      <trkpt lat="45.89891" lon="3.02038">
        <ele>689.6</ele>
        <time>2018-07-01T08:29:33Z</time>
      </trkpt>
      <trkpt lat="45.89886" lon="3.02047">
        <ele>690.1</ele>
        <time>2018-07-01T08:29:39Z</time>
      </trkpt>
      <trkpt lat="45.89884" lon="3.02052">
        <ele>690.2</ele>
        <time>2018-07-01T08:29:42Z</time>
      </trkpt>
      <trkpt lat="45.89882" lon="3.02058">
        <ele>690.4</ele>
        <time>2018-07-01T08:29:46Z</time>
      </trkpt>
      <trkpt lat="45.89881" lon="3.02061">
        <ele>690.5</ele>
        <time>2018-07-01T08:29:48Z</time>
      </trkpt>
      <trkpt lat="45.89879" lon="3.02064">
        <ele>690.6</ele>
        <time>2018-07-01T08:29:50Z</time>
      </trkpt>
      <trkpt lat="45.89876" lon="3.02067">
        <ele>690.8</ele>
        <time>2018-07-01T08:29:53Z</time>
      </trkpt>
      <trkpt lat="45.89874" lon="3.02069">
        <ele>691</ele>
        <time>2018-07-01T08:29:55Z</time>
      </trkpt>
      <trkpt lat="45.89869" lon="3.02071">
        <ele>691.4</ele>
        <time>2018-07-01T08:30:00Z</time>
      </trkpt>
      <trkpt lat="45.89867" lon="3.02071">
        <ele>691.6</ele>
        <time>2018-07-01T08:30:07Z</time>
      </trkpt>
      <trkpt lat="45.89867" lon="3.02071">
        <ele>691.6</ele>
        <time>2018-07-01T08:30:11Z</time>
      </trkpt>
      <trkpt lat="45.89864" lon="3.02071">
        <ele>691.8</ele>
        <time>2018-07-01T08:30:22Z</time>
      </trkpt>
      <trkpt lat="45.89861" lon="3.02071">
        <ele>692.1</ele>
        <time>2018-07-01T08:30:25Z</time>
      </trkpt>
      <trkpt lat="45.89857" lon="3.0207">
        <ele>692.5</ele>
        <time>2018-07-01T08:30:29Z</time>
      </trkpt>
      <trkpt lat="45.89853" lon="3.02068">
        <ele>693</ele>
        <time>2018-07-01T08:30:36Z</time>
      </trkpt>
      <trkpt lat="45.89853" lon="3.02068">
        <ele>693</ele>
        <time>2018-07-01T08:31:08Z</time>
      </trkpt>
      <trkpt lat="45.89844" lon="3.02064">
        <ele>694.1</ele>
        <time>2018-07-01T08:31:22Z</time>
      </trkpt>
      <trkpt lat="45.89838" lon="3.02062">
        <ele>694.8</ele>
        <time>2018-07-01T08:31:26Z</time>
      </trkpt>
      <trkpt lat="45.8983" lon="3.0206">
        <ele>695.4</ele>
        <time>2018-07-01T08:31:32Z</time>
      </trkpt>
      <trkpt lat="45.89824" lon="3.02059">
        <ele>695.5</ele>
        <time>2018-07-01T08:31:37Z</time>
      </trkpt>
      <trkpt lat="45.89781" lon="3.02055">
        <ele>695.9</ele>
        <time>2018-07-01T08:32:09Z</time>
      </trkpt>
      <trkpt lat="45.89767" lon="3.02054">
        <ele>696.1</ele>
        <time>2018-07-01T08:32:20Z</time>
      </trkpt>
      <trkpt lat="45.89748" lon="3.02054">
        <ele>696.2</ele>
        <time>2018-07-01T08:32:34Z</time>
      </trkpt>
      <trkpt lat="45.89741" lon="3.02053">
        <ele>696.5</ele>
        <time>2018-07-01T08:32:40Z</time>
      </trkpt>
      <trkpt lat="45.89737" lon="3.02052">
        <ele>696.6</ele>
        <time>2018-07-01T08:32:43Z</time>
      </trkpt>
      <trkpt lat="45.89733" lon="3.02051">
        <ele>696.8</ele>
        <time>2018-07-01T08:32:46Z</time>
      </trkpt>
      <trkpt lat="45.89726" lon="3.02048">
        <ele>697.2</ele>
        <time>2018-07-01T08:32:52Z</time>
      </trkpt>
      <trkpt lat="45.8972" lon="3.02046">
        <ele>697.5</ele>
        <time>2018-07-01T08:32:56Z</time>
      </trkpt>
      <trkpt lat="45.89715" lon="3.02044">
        <ele>697.7</ele>
        <time>2018-07-01T08:33:00Z</time>
      </trkpt>
      <trkpt lat="45.8971" lon="3.0204">
        <ele>698</ele>
        <time>2018-07-01T08:33:06Z</time>
      </trkpt>
      <trkpt lat="45.89708" lon="3.0204">
        <ele>698.1</ele>
        <time>2018-07-01T08:33:11Z</time>
      </trkpt>
      <trkpt lat="45.89706" lon="3.02039">
        <ele>698.2</ele>
        <time>2018-07-01T08:33:14Z</time>
      </trkpt>
      <trkpt lat="45.89696" lon="3.02033">
        <ele>698.6</ele>
        <time>2018-07-01T08:33:22Z</time>
      </trkpt>
      <trkpt lat="45.89693" lon="3.02032">
        <ele>698.7</ele>
        <time>2018-07-01T08:33:24Z</time>
      </trkpt>
      <trkpt lat="45.8969" lon="3.02031">
        <ele>698.8</ele>
        <time>2018-07-01T08:33:27Z</time>
      </trkpt>
      <trkpt lat="45.89689" lon="3.02031">
        <ele>698.9</ele>
        <time>2018-07-01T08:33:28Z</time>
      </trkpt>
      <trkpt lat="45.89686" lon="3.02031">
        <ele>698.9</ele>
        <time>2018-07-01T08:33:30Z</time>
      </trkpt>
      <trkpt lat="45.89684" lon="3.02032">
        <ele>698.9</ele>
        <time>2018-07-01T08:33:32Z</time>
      </trkpt>
      <trkpt lat="45.89681" lon="3.02035">
        <ele>698.9</ele>
        <time>2018-07-01T08:33:35Z</time>
      </trkpt>
      <trkpt lat="45.8968" lon="3.02036">
        <ele>698.9</ele>
        <time>2018-07-01T08:33:36Z</time>
      </trkpt>
      <trkpt lat="45.89679" lon="3.02039">
        <ele>698.8</ele>
        <time>2018-07-01T08:33:38Z</time>
      </trkpt>
      <trkpt lat="45.89678" lon="3.02042">
        <ele>698.7</ele>
        <time>2018-07-01T08:33:40Z</time>
      </trkpt>
      <trkpt lat="45.89677" lon="3.02046">
        <ele>698.6</ele>
        <time>2018-07-01T08:33:42Z</time>
      </trkpt>
      <trkpt lat="45.89676" lon="3.02049">
        <ele>698.5</ele>
        <time>2018-07-01T08:33:44Z</time>
      </trkpt>
      <trkpt lat="45.89676" lon="3.02059">
        <ele>698.3</ele>
        <time>2018-07-01T08:33:49Z</time>
      </trkpt>
      <trkpt lat="45.89675" lon="3.02064">
        <ele>698.1</ele>
        <time>2018-07-01T08:33:52Z</time>
      </trkpt>
      <trkpt lat="45.89674" lon="3.02072">
        <ele>698</ele>
        <time>2018-07-01T08:33:56Z</time>
      </trkpt>
      <trkpt lat="45.89672" lon="3.02082">
        <ele>697.8</ele>
        <time>2018-07-01T08:34:02Z</time>
      </trkpt>
      <trkpt lat="45.8967" lon="3.02089">
        <ele>698.1</ele>
        <time>2018-07-01T08:34:06Z</time>
      </trkpt>
      <trkpt lat="45.89667" lon="3.02097">
        <ele>698.6</ele>
        <time>2018-07-01T08:34:11Z</time>
      </trkpt>
      <trkpt lat="45.89664" lon="3.02105">
        <ele>699.4</ele>
        <time>2018-07-01T08:34:16Z</time>
      </trkpt>
      <trkpt lat="45.89661" lon="3.02111">
        <ele>700</ele>
        <time>2018-07-01T08:34:20Z</time>
      </trkpt>
      <trkpt lat="45.89658" lon="3.02119">
        <ele>700.6</ele>
        <time>2018-07-01T08:34:25Z</time>
      </trkpt>
      <trkpt lat="45.89656" lon="3.02124">
        <ele>701</ele>
        <time>2018-07-01T08:34:28Z</time>
      </trkpt>
      <trkpt lat="45.89655" lon="3.02128">
        <ele>701.3</ele>
        <time>2018-07-01T08:34:31Z</time>
      </trkpt>
      <trkpt lat="45.89654" lon="3.02132">
        <ele>701.5</ele>
        <time>2018-07-01T08:34:33Z</time>
      </trkpt>
      <trkpt lat="45.89654" lon="3.02135">
        <ele>701.7</ele>
        <time>2018-07-01T08:34:35Z</time>
      </trkpt>
      <trkpt lat="45.89654" lon="3.02138">
        <ele>701.8</ele>
        <time>2018-07-01T08:34:37Z</time>
      </trkpt>
      <trkpt lat="45.89654" lon="3.02142">
        <ele>701.9</ele>
        <time>2018-07-01T08:34:39Z</time>
      </trkpt>
      <trkpt lat="45.89655" lon="3.02145">
        <ele>702</ele>
        <time>2018-07-01T08:34:41Z</time>
      </trkpt>
      <trkpt lat="45.89657" lon="3.02162">
        <ele>702.5</ele>
        <time>2018-07-01T08:34:50Z</time>
      </trkpt>
      <trkpt lat="45.89658" lon="3.02168">
        <ele>702.6</ele>
        <time>2018-07-01T08:34:53Z</time>
      </trkpt>
      <trkpt lat="45.89658" lon="3.02173">
        <ele>702.2</ele>
        <time>2018-07-01T08:34:56Z</time>
      </trkpt>
      <trkpt lat="45.89659" lon="3.02179">
        <ele>701.8</ele>
        <time>2018-07-01T08:34:59Z</time>
      </trkpt>
      <trkpt lat="45.89658" lon="3.02185">
        <ele>701.5</ele>
        <time>2018-07-01T08:35:02Z</time>
      </trkpt>
      <trkpt lat="45.89658" lon="3.02192">
        <ele>701.1</ele>
        <time>2018-07-01T08:35:06Z</time>
      </trkpt>
      <trkpt lat="45.89656" lon="3.022">
        <ele>700.7</ele>
        <time>2018-07-01T08:35:10Z</time>
      </trkpt>
      <trkpt lat="45.89655" lon="3.02207">
        <ele>700.4</ele>
        <time>2018-07-01T08:35:14Z</time>
      </trkpt>
      <trkpt lat="45.89653" lon="3.02213">
        <ele>700.1</ele>
        <time>2018-07-01T08:35:18Z</time>
      </trkpt>
      <trkpt lat="45.89651" lon="3.02218">
        <ele>699.9</ele>
        <time>2018-07-01T08:35:21Z</time>
      </trkpt>
      <trkpt lat="45.89648" lon="3.02223">
        <ele>699.8</ele>
        <time>2018-07-01T08:35:25Z</time>
      </trkpt>
      <trkpt lat="45.89647" lon="3.02226">
        <ele>699.7</ele>
        <time>2018-07-01T08:35:28Z</time>
      </trkpt>
      <trkpt lat="45.89646" lon="3.02226">
        <ele>699.7</ele>
        <time>2018-07-01T08:35:31Z</time>
      </trkpt>
      <trkpt lat="45.89646" lon="3.02226">
        <ele>699.7</ele>
        <time>2018-07-01T08:35:33Z</time>
      </trkpt>
      <trkpt lat="45.89644" lon="3.02229">
        <ele>699.7</ele>
        <time>2018-07-01T08:35:39Z</time>
      </trkpt>
      <trkpt lat="45.89639" lon="3.02231">
        <ele>699.8</ele>
        <time>2018-07-01T08:35:43Z</time>
      </trkpt>
      <trkpt lat="45.89637" lon="3.02232">
        <ele>699.9</ele>
        <time>2018-07-01T08:35:45Z</time>
      </trkpt>
      <trkpt lat="45.89634" lon="3.02233">
        <ele>700.1</ele>
        <time>2018-07-01T08:35:48Z</time>
      </trkpt>
      <trkpt lat="45.89625" lon="3.02231">
        <ele>700.8</ele>
        <time>2018-07-01T08:35:56Z</time>
      </trkpt>
      <trkpt lat="45.89614" lon="3.0223">
        <ele>701.5</ele>
        <time>2018-07-01T08:36:05Z</time>
      </trkpt>
      <trkpt lat="45.89609" lon="3.02229">
        <ele>701.9</ele>
        <time>2018-07-01T08:36:09Z</time>
      </trkpt>
      <trkpt lat="45.89605" lon="3.02228">
        <ele>702.2</ele>
        <time>2018-07-01T08:36:12Z</time>
      </trkpt>
      <trkpt lat="45.89597" lon="3.02226">
        <ele>702.9</ele>
        <time>2018-07-01T08:36:19Z</time>
      </trkpt>
      <trkpt lat="45.89594" lon="3.02225">
        <ele>703.1</ele>
        <time>2018-07-01T08:36:22Z</time>
      </trkpt>
      <trkpt lat="45.89588" lon="3.02226">
        <ele>703.5</ele>
        <time>2018-07-01T08:36:30Z</time>
      </trkpt>
      <trkpt lat="45.89582" lon="3.02227">
        <ele>703.9</ele>
        <time>2018-07-01T08:36:35Z</time>
      </trkpt>
      <trkpt lat="45.8958" lon="3.02228">
        <ele>704.4</ele>
        <time>2018-07-01T08:36:37Z</time>
      </trkpt>
      <trkpt lat="45.89577" lon="3.02229">
        <ele>704.8</ele>
        <time>2018-07-01T08:36:39Z</time>
      </trkpt>
      <trkpt lat="45.89574" lon="3.02232">
        <ele>705.4</ele>
        <time>2018-07-01T08:36:42Z</time>
      </trkpt>
      <trkpt lat="45.89572" lon="3.02235">
        <ele>705.7</ele>
        <time>2018-07-01T08:36:44Z</time>
      </trkpt>
      <trkpt lat="45.89569" lon="3.02238">
        <ele>706</ele>
        <time>2018-07-01T08:36:47Z</time>
      </trkpt>
      <trkpt lat="45.89568" lon="3.02241">
        <ele>706.1</ele>
        <time>2018-07-01T08:36:49Z</time>
      </trkpt>
      <trkpt lat="45.89565" lon="3.02251">
        <ele>706.1</ele>
        <time>2018-07-01T08:36:56Z</time>
      </trkpt>
      <trkpt lat="45.89564" lon="3.02253">
        <ele>706.2</ele>
        <time>2018-07-01T08:36:59Z</time>
      </trkpt>
      <trkpt lat="45.89561" lon="3.02258">
        <ele>706.4</ele>
        <time>2018-07-01T08:37:04Z</time>
      </trkpt>
      <trkpt lat="45.89559" lon="3.02263">
        <ele>706.5</ele>
        <time>2018-07-01T08:37:07Z</time>
      </trkpt>
      <trkpt lat="45.89556" lon="3.02273">
        <ele>706.5</ele>
        <time>2018-07-01T08:37:13Z</time>
      </trkpt>
      <trkpt lat="45.89549" lon="3.02293">
        <ele>706.9</ele>
        <time>2018-07-01T08:37:26Z</time>
      </trkpt>
      <trkpt lat="45.89547" lon="3.023">
        <ele>707</ele>
        <time>2018-07-01T08:37:30Z</time>
      </trkpt>
      <trkpt lat="45.89546" lon="3.02307">
        <ele>706.9</ele>
        <time>2018-07-01T08:37:34Z</time>
      </trkpt>
      <trkpt lat="45.89546" lon="3.02311">
        <ele>706.8</ele>
        <time>2018-07-01T08:37:36Z</time>
      </trkpt>
      <trkpt lat="45.89546" lon="3.02315">
        <ele>706.5</ele>
        <time>2018-07-01T08:37:38Z</time>
      </trkpt>
      <trkpt lat="45.89546" lon="3.02321">
        <ele>706</ele>
        <time>2018-07-01T08:37:41Z</time>
      </trkpt>
      <trkpt lat="45.89548" lon="3.0233">
        <ele>704.8</ele>
        <time>2018-07-01T08:37:46Z</time>
      </trkpt>
      <trkpt lat="45.89549" lon="3.02335">
        <ele>704.1</ele>
        <time>2018-07-01T08:37:49Z</time>
      </trkpt>
      <trkpt lat="45.8955" lon="3.02339">
        <ele>703.8</ele>
        <time>2018-07-01T08:37:51Z</time>
      </trkpt>
      <trkpt lat="45.8955" lon="3.02342">
        <ele>703.4</ele>
        <time>2018-07-01T08:37:53Z</time>
      </trkpt>
      <trkpt lat="45.8955" lon="3.02348">
        <ele>703.1</ele>
        <time>2018-07-01T08:37:56Z</time>
      </trkpt>
      <trkpt lat="45.89549" lon="3.02354">
        <ele>702.7</ele>
        <time>2018-07-01T08:38:00Z</time>
      </trkpt>
      <trkpt lat="45.89549" lon="3.02359">
        <ele>702.5</ele>
        <time>2018-07-01T08:38:03Z</time>
      </trkpt>
      <trkpt lat="45.89548" lon="3.0237">
        <ele>702</ele>
        <time>2018-07-01T08:38:09Z</time>
      </trkpt>
      <trkpt lat="45.89548" lon="3.02373">
        <ele>701.8</ele>
        <time>2018-07-01T08:38:11Z</time>
      </trkpt>
      <trkpt lat="45.89549" lon="3.02376">
        <ele>701.4</ele>
        <time>2018-07-01T08:38:15Z</time>
      </trkpt>
      <trkpt lat="45.89549" lon="3.02377">
        <ele>701.2</ele>
        <time>2018-07-01T08:38:20Z</time>
      </trkpt>
      <trkpt lat="45.89551" lon="3.02384">
        <ele>700.2</ele>
        <time>2018-07-01T08:38:26Z</time>
      </trkpt>
      <trkpt lat="45.89554" lon="3.02395">
        <ele>698.2</ele>
        <time>2018-07-01T08:38:32Z</time>
      </trkpt>
      <trkpt lat="45.89555" lon="3.024">
        <ele>697.3</ele>
        <time>2018-07-01T08:38:35Z</time>
      </trkpt>
      <trkpt lat="45.89556" lon="3.02404">
        <ele>696.9</ele>
        <time>2018-07-01T08:38:37Z</time>
      </trkpt>
      <trkpt lat="45.89556" lon="3.02408">
        <ele>696.5</ele>
        <time>2018-07-01T08:38:39Z</time>
      </trkpt>
      <trkpt lat="45.89556" lon="3.02417">
        <ele>695.8</ele>
        <time>2018-07-01T08:38:44Z</time>
      </trkpt>
      <trkpt lat="45.89556" lon="3.02421">
        <ele>695.7</ele>
        <time>2018-07-01T08:38:46Z</time>
      </trkpt>
      <trkpt lat="45.89557" lon="3.02427">
        <ele>695.2</ele>
        <time>2018-07-01T08:38:50Z</time>
      </trkpt>
      <trkpt lat="45.89558" lon="3.02434">
        <ele>694.7</ele>
        <time>2018-07-01T08:38:54Z</time>
      </trkpt>
      <trkpt lat="45.89559" lon="3.02444">
        <ele>694.1</ele>
        <time>2018-07-01T08:39:00Z</time>
      </trkpt>
      <trkpt lat="45.89561" lon="3.02452">
        <ele>693.5</ele>
        <time>2018-07-01T08:39:04Z</time>
      </trkpt>
      <trkpt lat="45.89561" lon="3.02455">
        <ele>693.4</ele>
        <time>2018-07-01T08:39:06Z</time>
      </trkpt>
      <trkpt lat="45.8956" lon="3.02459">
        <ele>693.5</ele>
        <time>2018-07-01T08:39:08Z</time>
      </trkpt>
      <trkpt lat="45.89559" lon="3.02468">
        <ele>693.8</ele>
        <time>2018-07-01T08:39:13Z</time>
      </trkpt>
      <trkpt lat="45.89558" lon="3.02471">
        <ele>693.9</ele>
        <time>2018-07-01T08:39:15Z</time>
      </trkpt>
      <trkpt lat="45.89558" lon="3.02475">
        <ele>693.9</ele>
        <time>2018-07-01T08:39:17Z</time>
      </trkpt>
      <trkpt lat="45.89558" lon="3.02488">
        <ele>693.7</ele>
        <time>2018-07-01T08:39:23Z</time>
      </trkpt>
      <trkpt lat="45.89558" lon="3.02494">
        <ele>693.7</ele>
        <time>2018-07-01T08:39:26Z</time>
      </trkpt>
      <trkpt lat="45.89557" lon="3.025">
        <ele>693.7</ele>
        <time>2018-07-01T08:39:29Z</time>
      </trkpt>
      <trkpt lat="45.89556" lon="3.02511">
        <ele>693.8</ele>
        <time>2018-07-01T08:39:36Z</time>
      </trkpt>
      <trkpt lat="45.89555" lon="3.02515">
        <ele>693.8</ele>
        <time>2018-07-01T08:39:39Z</time>
      </trkpt>
      <trkpt lat="45.89554" lon="3.0252">
        <ele>694</ele>
        <time>2018-07-01T08:39:43Z</time>
      </trkpt>
      <trkpt lat="45.89552" lon="3.02526">
        <ele>694.4</ele>
        <time>2018-07-01T08:39:47Z</time>
      </trkpt>
      <trkpt lat="45.89547" lon="3.02541">
        <ele>695.6</ele>
        <time>2018-07-01T08:39:57Z</time>
      </trkpt>
      <trkpt lat="45.89545" lon="3.02546">
        <ele>695.9</ele>
        <time>2018-07-01T08:40:00Z</time>
      </trkpt>
      <trkpt lat="45.89544" lon="3.02551">
        <ele>696.2</ele>
        <time>2018-07-01T08:40:03Z</time>
      </trkpt>
      <trkpt lat="45.89543" lon="3.02559">
        <ele>696.3</ele>
        <time>2018-07-01T08:40:07Z</time>
      </trkpt>
      <trkpt lat="45.89542" lon="3.02566">
        <ele>696.2</ele>
        <time>2018-07-01T08:40:11Z</time>
      </trkpt>
      <trkpt lat="45.89542" lon="3.02574">
        <ele>696</ele>
        <time>2018-07-01T08:40:15Z</time>
      </trkpt>
      <trkpt lat="45.89542" lon="3.02582">
        <ele>695.5</ele>
        <time>2018-07-01T08:40:20Z</time>
      </trkpt>
      <trkpt lat="45.89543" lon="3.02589">
        <ele>694.9</ele>
        <time>2018-07-01T08:40:24Z</time>
      </trkpt>
      <trkpt lat="45.89544" lon="3.02597">
        <ele>694.1</ele>
        <time>2018-07-01T08:40:29Z</time>
      </trkpt>
      <trkpt lat="45.89545" lon="3.02601">
        <ele>693.9</ele>
        <time>2018-07-01T08:40:31Z</time>
      </trkpt>
      <trkpt lat="45.89545" lon="3.02618">
        <ele>693</ele>
        <time>2018-07-01T08:40:40Z</time>
      </trkpt>
      <trkpt lat="45.89546" lon="3.02624">
        <ele>692.7</ele>
        <time>2018-07-01T08:40:43Z</time>
      </trkpt>
      <trkpt lat="45.89547" lon="3.02632">
        <ele>692.1</ele>
        <time>2018-07-01T08:40:47Z</time>
      </trkpt>
      <trkpt lat="45.89549" lon="3.02639">
        <ele>691.4</ele>
        <time>2018-07-01T08:40:51Z</time>
      </trkpt>
      <trkpt lat="45.89552" lon="3.02646">
        <ele>690.7</ele>
        <time>2018-07-01T08:40:55Z</time>
      </trkpt>
      <trkpt lat="45.89555" lon="3.02653">
        <ele>689.9</ele>
        <time>2018-07-01T08:41:00Z</time>
      </trkpt>
      <trkpt lat="45.89561" lon="3.02663">
        <ele>688.8</ele>
        <time>2018-07-01T08:41:07Z</time>
      </trkpt>
      <trkpt lat="45.8957" lon="3.02675">
        <ele>686.4</ele>
        <time>2018-07-01T08:41:20Z</time>
      </trkpt>
      <trkpt lat="45.89574" lon="3.02683">
        <ele>684.8</ele>
        <time>2018-07-01T08:41:28Z</time>
      </trkpt>
      <trkpt lat="45.89579" lon="3.02691">
        <ele>683.4</ele>
        <time>2018-07-01T08:41:35Z</time>
      </trkpt>
      <trkpt lat="45.89589" lon="3.02713">
        <ele>680</ele>
        <time>2018-07-01T08:41:50Z</time>
      </trkpt>
      <trkpt lat="45.8959" lon="3.02716">
        <ele>679.6</ele>
        <time>2018-07-01T08:41:52Z</time>
      </trkpt>
      <trkpt lat="45.8959" lon="3.02717">
        <ele>679.4</ele>
        <time>2018-07-01T08:41:53Z</time>
      </trkpt>
      <trkpt lat="45.8959" lon="3.02721">
        <ele>679.2</ele>
        <time>2018-07-01T08:41:55Z</time>
      </trkpt>
      <trkpt lat="45.8959" lon="3.02722">
        <ele>679.1</ele>
        <time>2018-07-01T08:41:56Z</time>
      </trkpt>
      <trkpt lat="45.89589" lon="3.02723">
        <ele>679.1</ele>
        <time>2018-07-01T08:41:57Z</time>
      </trkpt>
      <trkpt lat="45.89588" lon="3.02725">
        <ele>679</ele>
        <time>2018-07-01T08:41:59Z</time>
      </trkpt>
      <trkpt lat="45.89587" lon="3.02726">
        <ele>679</ele>
        <time>2018-07-01T08:42:00Z</time>
      </trkpt>
      <trkpt lat="45.89584" lon="3.02727">
        <ele>679.2</ele>
        <time>2018-07-01T08:42:03Z</time>
      </trkpt>
      <trkpt lat="45.8958" lon="3.02728">
        <ele>679.6</ele>
        <time>2018-07-01T08:42:06Z</time>
      </trkpt>
      <trkpt lat="45.89571" lon="3.02728">
        <ele>680.8</ele>
        <time>2018-07-01T08:42:15Z</time>
      </trkpt>
      <trkpt lat="45.89565" lon="3.02729">
        <ele>681.5</ele>
        <time>2018-07-01T08:42:20Z</time>
      </trkpt>
      <trkpt lat="45.89556" lon="3.0273">
        <ele>682.5</ele>
        <time>2018-07-01T08:42:28Z</time>
      </trkpt>
      <trkpt lat="45.89554" lon="3.02731">
        <ele>682.7</ele>
        <time>2018-07-01T08:42:31Z</time>
      </trkpt>
      <trkpt lat="45.89553" lon="3.02732">
        <ele>682.8</ele>
        <time>2018-07-01T08:42:36Z</time>
      </trkpt>
      <trkpt lat="45.89552" lon="3.02732">
        <ele>682.7</ele>
        <time>2018-07-01T08:42:38Z</time>
      </trkpt>
      <trkpt lat="45.89545" lon="3.0274">
        <ele>682.8</ele>
        <time>2018-07-01T08:42:51Z</time>
      </trkpt>
      <trkpt lat="45.89545" lon="3.02742">
        <ele>682.6</ele>
        <time>2018-07-01T08:43:26Z</time>
      </trkpt>
      <trkpt lat="45.89544" lon="3.02743">
        <ele>682.5</ele>
        <time>2018-07-01T08:43:27Z</time>
      </trkpt>
      <trkpt lat="45.89539" lon="3.0275">
        <ele>682.3</ele>
        <time>2018-07-01T08:43:34Z</time>
      </trkpt>
      <trkpt lat="45.89529" lon="3.02765">
        <ele>681.1</ele>
        <time>2018-07-01T08:43:47Z</time>
      </trkpt>
      <trkpt lat="45.89517" lon="3.02782">
        <ele>679.7</ele>
        <time>2018-07-01T08:44:01Z</time>
      </trkpt>
      <trkpt lat="45.89508" lon="3.02794">
        <ele>678.6</ele>
        <time>2018-07-01T08:44:10Z</time>
      </trkpt>
      <trkpt lat="45.89505" lon="3.02799">
        <ele>678.2</ele>
        <time>2018-07-01T08:44:13Z</time>
      </trkpt>
      <trkpt lat="45.89501" lon="3.02805">
        <ele>677.6</ele>
        <time>2018-07-01T08:44:17Z</time>
      </trkpt>
      <trkpt lat="45.89499" lon="3.0281">
        <ele>677.1</ele>
        <time>2018-07-01T08:44:20Z</time>
      </trkpt>
      <trkpt lat="45.89497" lon="3.02817">
        <ele>676.3</ele>
        <time>2018-07-01T08:44:24Z</time>
      </trkpt>
      <trkpt lat="45.89495" lon="3.02823">
        <ele>675.5</ele>
        <time>2018-07-01T08:44:28Z</time>
      </trkpt>
      <trkpt lat="45.89492" lon="3.02829">
        <ele>674.8</ele>
        <time>2018-07-01T08:44:32Z</time>
      </trkpt>
      <trkpt lat="45.8949" lon="3.02834">
        <ele>674.4</ele>
        <time>2018-07-01T08:44:35Z</time>
      </trkpt>
      <trkpt lat="45.89488" lon="3.02839">
        <ele>673.9</ele>
        <time>2018-07-01T08:44:39Z</time>
      </trkpt>
      <trkpt lat="45.89487" lon="3.02842">
        <ele>673.6</ele>
        <time>2018-07-01T08:44:41Z</time>
      </trkpt>
      <trkpt lat="45.89485" lon="3.02849">
        <ele>672.9</ele>
        <time>2018-07-01T08:44:45Z</time>
      </trkpt>
      <trkpt lat="45.89483" lon="3.02859">
        <ele>671.8</ele>
        <time>2018-07-01T08:44:52Z</time>
      </trkpt>
      <trkpt lat="45.89479" lon="3.02874">
        <ele>670.3</ele>
        <time>2018-07-01T08:45:03Z</time>
      </trkpt>
      <trkpt lat="45.89477" lon="3.02882">
        <ele>669.5</ele>
        <time>2018-07-01T08:45:08Z</time>
      </trkpt>
      <trkpt lat="45.89474" lon="3.0291">
        <ele>666.2</ele>
        <time>2018-07-01T08:45:25Z</time>
      </trkpt>
      <trkpt lat="45.89472" lon="3.02918">
        <ele>665.5</ele>
        <time>2018-07-01T08:45:29Z</time>
      </trkpt>
      <trkpt lat="45.89471" lon="3.02926">
        <ele>665.1</ele>
        <time>2018-07-01T08:45:33Z</time>
      </trkpt>
      <trkpt lat="45.89466" lon="3.02947">
        <ele>663.8</ele>
        <time>2018-07-01T08:45:44Z</time>
      </trkpt>
      <trkpt lat="45.89465" lon="3.02952">
        <ele>663.5</ele>
        <time>2018-07-01T08:45:47Z</time>
      </trkpt>
      <trkpt lat="45.89462" lon="3.02969">
        <ele>662.3</ele>
        <time>2018-07-01T08:45:57Z</time>
      </trkpt>
      <trkpt lat="45.8946" lon="3.02977">
        <ele>661.7</ele>
        <time>2018-07-01T08:46:02Z</time>
      </trkpt>
      <trkpt lat="45.89458" lon="3.02985">
        <ele>661.1</ele>
        <time>2018-07-01T08:46:07Z</time>
      </trkpt>
      <trkpt lat="45.89455" lon="3.02997">
        <ele>660.4</ele>
        <time>2018-07-01T08:46:14Z</time>
      </trkpt>
      <trkpt lat="45.89453" lon="3.03002">
        <ele>660.1</ele>
        <time>2018-07-01T08:46:17Z</time>
      </trkpt>
      <trkpt lat="45.8945" lon="3.03009">
        <ele>660</ele>
        <time>2018-07-01T08:46:22Z</time>
      </trkpt>
      <trkpt lat="45.89448" lon="3.03014">
        <ele>659.9</ele>
        <time>2018-07-01T08:46:25Z</time>
      </trkpt>
      <trkpt lat="45.89446" lon="3.03017">
        <ele>659.9</ele>
        <time>2018-07-01T08:46:27Z</time>
      </trkpt>
      <trkpt lat="45.89442" lon="3.03025">
        <ele>659.9</ele>
        <time>2018-07-01T08:46:32Z</time>
      </trkpt>
      <trkpt lat="45.89431" lon="3.03041">
        <ele>659.8</ele>
        <time>2018-07-01T08:46:44Z</time>
      </trkpt>
      <trkpt lat="45.89419" lon="3.0306">
        <ele>659.2</ele>
        <time>2018-07-01T08:46:58Z</time>
      </trkpt>
      <trkpt lat="45.89416" lon="3.03066">
        <ele>658.8</ele>
        <time>2018-07-01T08:47:02Z</time>
      </trkpt>
      <trkpt lat="45.89408" lon="3.03082">
        <ele>657</ele>
        <time>2018-07-01T08:47:13Z</time>
      </trkpt>
      <trkpt lat="45.89406" lon="3.03089">
        <ele>656.6</ele>
        <time>2018-07-01T08:47:17Z</time>
      </trkpt>
      <trkpt lat="45.89405" lon="3.03094">
        <ele>656.5</ele>
        <time>2018-07-01T08:47:20Z</time>
      </trkpt>
      <trkpt lat="45.89403" lon="3.03104">
        <ele>656.2</ele>
        <time>2018-07-01T08:47:25Z</time>
      </trkpt>
      <trkpt lat="45.894" lon="3.03117">
        <ele>655.9</ele>
        <time>2018-07-01T08:47:33Z</time>
      </trkpt>
      <trkpt lat="45.89398" lon="3.03127">
        <ele>655.6</ele>
        <time>2018-07-01T08:47:39Z</time>
      </trkpt>
      <trkpt lat="45.89392" lon="3.03158">
        <ele>654.9</ele>
        <time>2018-07-01T08:47:55Z</time>
      </trkpt>
      <trkpt lat="45.8939" lon="3.03165">
        <ele>654.7</ele>
        <time>2018-07-01T08:47:59Z</time>
      </trkpt>
      <trkpt lat="45.89386" lon="3.03182">
        <ele>654.9</ele>
        <time>2018-07-01T08:48:08Z</time>
      </trkpt>
      <trkpt lat="45.89385" lon="3.03187">
        <ele>655</ele>
        <time>2018-07-01T08:48:11Z</time>
      </trkpt>
      <trkpt lat="45.89384" lon="3.03191">
        <ele>655.1</ele>
        <time>2018-07-01T08:48:13Z</time>
      </trkpt>
      <trkpt lat="45.89384" lon="3.03197">
        <ele>655.2</ele>
        <time>2018-07-01T08:48:16Z</time>
      </trkpt>
      <trkpt lat="45.89384" lon="3.03201">
        <ele>655.3</ele>
        <time>2018-07-01T08:48:18Z</time>
      </trkpt>
      <trkpt lat="45.89384" lon="3.03206">
        <ele>655.3</ele>
        <time>2018-07-01T08:48:20Z</time>
      </trkpt>
      <trkpt lat="45.89386" lon="3.03218">
        <ele>655.5</ele>
        <time>2018-07-01T08:48:26Z</time>
      </trkpt>
      <trkpt lat="45.89387" lon="3.03222">
        <ele>655.6</ele>
        <time>2018-07-01T08:48:28Z</time>
      </trkpt>
      <trkpt lat="45.89387" lon="3.03225">
        <ele>655.6</ele>
        <time>2018-07-01T08:48:30Z</time>
      </trkpt>
      <trkpt lat="45.89387" lon="3.0323">
        <ele>655.7</ele>
        <time>2018-07-01T08:48:33Z</time>
      </trkpt>
      <trkpt lat="45.89388" lon="3.03233">
        <ele>655.8</ele>
        <time>2018-07-01T08:48:35Z</time>
      </trkpt>
      <trkpt lat="45.89389" lon="3.03239">
        <ele>655.8</ele>
        <time>2018-07-01T08:48:39Z</time>
      </trkpt>
      <trkpt lat="45.8939" lon="3.03242">
        <ele>655.8</ele>
        <time>2018-07-01T08:48:41Z</time>
      </trkpt>
      <trkpt lat="45.89391" lon="3.03248">
        <ele>655.9</ele>
        <time>2018-07-01T08:48:44Z</time>
      </trkpt>
      <trkpt lat="45.89391" lon="3.03255">
        <ele>655.9</ele>
        <time>2018-07-01T08:48:48Z</time>
      </trkpt>
      <trkpt lat="45.89392" lon="3.0327">
        <ele>655.9</ele>
        <time>2018-07-01T08:48:55Z</time>
      </trkpt>
      <trkpt lat="45.89392" lon="3.03286">
        <ele>655.8</ele>
        <time>2018-07-01T08:49:03Z</time>
      </trkpt>
      <trkpt lat="45.89391" lon="3.03302">
        <ele>655.9</ele>
        <time>2018-07-01T08:49:11Z</time>
      </trkpt>
      <trkpt lat="45.8939" lon="3.03326">
        <ele>655.9</ele>
        <time>2018-07-01T08:49:23Z</time>
      </trkpt>
      <trkpt lat="45.89389" lon="3.03347">
        <ele>656.2</ele>
        <time>2018-07-01T08:49:33Z</time>
      </trkpt>
      <trkpt lat="45.89387" lon="3.03366">
        <ele>656.6</ele>
        <time>2018-07-01T08:49:42Z</time>
      </trkpt>
      <trkpt lat="45.89385" lon="3.03382">
        <ele>657.1</ele>
        <time>2018-07-01T08:49:51Z</time>
      </trkpt>
      <trkpt lat="45.89383" lon="3.03398">
        <ele>657.5</ele>
        <time>2018-07-01T08:50:00Z</time>
      </trkpt>
      <trkpt lat="45.89382" lon="3.03406">
        <ele>657.8</ele>
        <time>2018-07-01T08:50:08Z</time>
      </trkpt>
      <trkpt lat="45.89382" lon="3.03405">
        <ele>657.8</ele>
        <time>2018-07-01T08:50:17Z</time>
      </trkpt>
      <trkpt lat="45.89381" lon="3.03406">
        <ele>657.8</ele>
        <time>2018-07-01T08:50:20Z</time>
      </trkpt>
      <trkpt lat="45.89381" lon="3.03408">
        <ele>657.9</ele>
        <time>2018-07-01T08:50:22Z</time>
      </trkpt>
      <trkpt lat="45.89381" lon="3.0341">
        <ele>657.9</ele>
        <time>2018-07-01T08:50:25Z</time>
      </trkpt>
      <trkpt lat="45.89381" lon="3.0341">
        <ele>657.9</ele>
        <time>2018-07-01T08:50:28Z</time>
      </trkpt>
      <trkpt lat="45.8938" lon="3.03415">
        <ele>658.1</ele>
        <time>2018-07-01T08:50:33Z</time>
      </trkpt>
      <trkpt lat="45.89379" lon="3.03423">
        <ele>658.3</ele>
        <time>2018-07-01T08:50:38Z</time>
      </trkpt>
      <trkpt lat="45.89379" lon="3.03426">
        <ele>658.4</ele>
        <time>2018-07-01T08:50:41Z</time>
      </trkpt>
      <trkpt lat="45.89379" lon="3.03429">
        <ele>658.4</ele>
        <time>2018-07-01T08:50:44Z</time>
      </trkpt>
      <trkpt lat="45.89379" lon="3.03433">
        <ele>658.5</ele>
        <time>2018-07-01T08:50:46Z</time>
      </trkpt>
      <trkpt lat="45.89379" lon="3.03435">
        <ele>658.6</ele>
        <time>2018-07-01T08:50:48Z</time>
      </trkpt>
      <trkpt lat="45.89378" lon="3.03436">
        <ele>658.6</ele>
        <time>2018-07-01T08:50:49Z</time>
      </trkpt>
      <trkpt lat="45.89378" lon="3.03436">
        <ele>658.7</ele>
        <time>2018-07-01T08:50:50Z</time>
      </trkpt>
      <trkpt lat="45.89377" lon="3.03436">
        <ele>658.7</ele>
        <time>2018-07-01T08:50:51Z</time>
      </trkpt>
      <trkpt lat="45.89377" lon="3.03435">
        <ele>658.7</ele>
        <time>2018-07-01T08:50:53Z</time>
      </trkpt>
      <trkpt lat="45.89376" lon="3.03433">
        <ele>658.7</ele>
        <time>2018-07-01T08:50:55Z</time>
      </trkpt>
      <trkpt lat="45.89377" lon="3.03428">
        <ele>658.6</ele>
        <time>2018-07-01T08:50:58Z</time>
      </trkpt>
      <trkpt lat="45.89377" lon="3.03424">
        <ele>658.5</ele>
        <time>2018-07-01T08:51:00Z</time>
      </trkpt>
      <trkpt lat="45.89378" lon="3.03417">
        <ele>658.3</ele>
        <time>2018-07-01T08:51:04Z</time>
      </trkpt>
      <trkpt lat="45.89378" lon="3.03414">
        <ele>658.2</ele>
        <time>2018-07-01T08:51:06Z</time>
      </trkpt>
      <trkpt lat="45.89377" lon="3.03408">
        <ele>658.1</ele>
        <time>2018-07-01T08:51:11Z</time>
      </trkpt>
      <trkpt lat="45.89377" lon="3.03404">
        <ele>658.1</ele>
        <time>2018-07-01T08:51:14Z</time>
      </trkpt>
      <trkpt lat="45.89376" lon="3.03403">
        <ele>658.2</ele>
        <time>2018-07-01T08:51:15Z</time>
      </trkpt>
      <trkpt lat="45.89375" lon="3.03403">
        <ele>658.2</ele>
        <time>2018-07-01T08:51:16Z</time>
      </trkpt>
      <trkpt lat="45.89374" lon="3.03402">
        <ele>658.3</ele>
        <time>2018-07-01T08:51:17Z</time>
      </trkpt>
      <trkpt lat="45.89372" lon="3.03402">
        <ele>658.5</ele>
        <time>2018-07-01T08:51:19Z</time>
      </trkpt>
      <trkpt lat="45.89369" lon="3.03403">
        <ele>658.7</ele>
        <time>2018-07-01T08:51:21Z</time>
      </trkpt>
      <trkpt lat="45.89368" lon="3.03403">
        <ele>658.9</ele>
        <time>2018-07-01T08:51:22Z</time>
      </trkpt>
      <trkpt lat="45.89366" lon="3.03405">
        <ele>659.1</ele>
        <time>2018-07-01T08:51:24Z</time>
      </trkpt>
      <trkpt lat="45.89364" lon="3.03408">
        <ele>659.2</ele>
        <time>2018-07-01T08:51:26Z</time>
      </trkpt>
      <trkpt lat="45.89361" lon="3.03413">
        <ele>659.6</ele>
        <time>2018-07-01T08:51:30Z</time>
      </trkpt>
      <trkpt lat="45.8936" lon="3.03416">
        <ele>659.8</ele>
        <time>2018-07-01T08:51:32Z</time>
      </trkpt>
      <trkpt lat="45.89357" lon="3.03419">
        <ele>660</ele>
        <time>2018-07-01T08:51:35Z</time>
      </trkpt>
      <trkpt lat="45.89354" lon="3.03423">
        <ele>660.2</ele>
        <time>2018-07-01T08:51:38Z</time>
      </trkpt>
      <trkpt lat="45.89352" lon="3.03425">
        <ele>660.4</ele>
        <time>2018-07-01T08:51:40Z</time>
      </trkpt>
      <trkpt lat="45.89348" lon="3.03428">
        <ele>660.7</ele>
        <time>2018-07-01T08:51:44Z</time>
      </trkpt>
      <trkpt lat="45.89343" lon="3.03429">
        <ele>661</ele>
        <time>2018-07-01T08:51:48Z</time>
      </trkpt>
      <trkpt lat="45.89341" lon="3.0343">
        <ele>661.1</ele>
        <time>2018-07-01T08:51:50Z</time>
      </trkpt>
      <trkpt lat="45.89338" lon="3.0343">
        <ele>661.3</ele>
        <time>2018-07-01T08:51:53Z</time>
      </trkpt>
      <trkpt lat="45.89336" lon="3.0343">
        <ele>661.5</ele>
        <time>2018-07-01T08:51:55Z</time>
      </trkpt>
      <trkpt lat="45.89333" lon="3.03429">
        <ele>661.7</ele>
        <time>2018-07-01T08:51:58Z</time>
      </trkpt>
      <trkpt lat="45.89327" lon="3.03425">
        <ele>660.5</ele>
        <time>2018-07-01T08:52:04Z</time>
      </trkpt>
      <trkpt lat="45.89324" lon="3.03424">
        <ele>660.1</ele>
        <time>2018-07-01T08:52:06Z</time>
      </trkpt>
      <trkpt lat="45.89322" lon="3.03424">
        <ele>659.6</ele>
        <time>2018-07-01T08:52:08Z</time>
      </trkpt>
      <trkpt lat="45.89319" lon="3.03425">
        <ele>659.1</ele>
        <time>2018-07-01T08:52:10Z</time>
      </trkpt>
      <trkpt lat="45.89316" lon="3.03426">
        <ele>658.6</ele>
        <time>2018-07-01T08:52:12Z</time>
      </trkpt>
      <trkpt lat="45.89309" lon="3.03432">
        <ele>656.9</ele>
        <time>2018-07-01T08:52:18Z</time>
      </trkpt>
      <trkpt lat="45.89305" lon="3.03434">
        <ele>655.9</ele>
        <time>2018-07-01T08:52:22Z</time>
      </trkpt>
      <trkpt lat="45.89295" lon="3.03436">
        <ele>653.9</ele>
        <time>2018-07-01T08:52:32Z</time>
      </trkpt>
      <trkpt lat="45.89291" lon="3.03436">
        <ele>653.1</ele>
        <time>2018-07-01T08:52:36Z</time>
      </trkpt>
      <trkpt lat="45.89288" lon="3.03436">
        <ele>652.6</ele>
        <time>2018-07-01T08:52:39Z</time>
      </trkpt>
      <trkpt lat="45.89286" lon="3.03434">
        <ele>652.1</ele>
        <time>2018-07-01T08:52:42Z</time>
      </trkpt>
      <trkpt lat="45.89282" lon="3.03431">
        <ele>651.6</ele>
        <time>2018-07-01T08:52:46Z</time>
      </trkpt>
      <trkpt lat="45.89279" lon="3.03428">
        <ele>651.3</ele>
        <time>2018-07-01T08:52:51Z</time>
      </trkpt>
      <trkpt lat="45.89277" lon="3.03427">
        <ele>651</ele>
        <time>2018-07-01T08:52:54Z</time>
      </trkpt>
      <trkpt lat="45.89275" lon="3.03427">
        <ele>650.7</ele>
        <time>2018-07-01T08:52:56Z</time>
      </trkpt>
      <trkpt lat="45.89275" lon="3.03428">
        <ele>650.6</ele>
        <time>2018-07-01T08:52:57Z</time>
      </trkpt>
      <trkpt lat="45.89275" lon="3.03429">
        <ele>650.4</ele>
        <time>2018-07-01T08:52:58Z</time>
      </trkpt>
      <trkpt lat="45.89274" lon="3.03432">
        <ele>650</ele>
        <time>2018-07-01T08:53:01Z</time>
      </trkpt>
      <trkpt lat="45.89275" lon="3.0344">
        <ele>649.6</ele>
        <time>2018-07-01T08:53:05Z</time>
      </trkpt>
      <trkpt lat="45.89276" lon="3.03445">
        <ele>649.3</ele>
        <time>2018-07-01T08:53:08Z</time>
      </trkpt>
      <trkpt lat="45.89277" lon="3.03452">
        <ele>649.1</ele>
        <time>2018-07-01T08:53:12Z</time>
      </trkpt>
      <trkpt lat="45.89278" lon="3.03456">
        <ele>648.9</ele>
        <time>2018-07-01T08:53:15Z</time>
      </trkpt>
      <trkpt lat="45.89278" lon="3.0346">
        <ele>648.7</ele>
        <time>2018-07-01T08:53:17Z</time>
      </trkpt>
      <trkpt lat="45.89278" lon="3.03465">
        <ele>648.3</ele>
        <time>2018-07-01T08:53:20Z</time>
      </trkpt>
      <trkpt lat="45.89278" lon="3.03477">
        <ele>647.2</ele>
        <time>2018-07-01T08:53:27Z</time>
      </trkpt>
      <trkpt lat="45.89278" lon="3.03482">
        <ele>646.8</ele>
        <time>2018-07-01T08:53:30Z</time>
      </trkpt>
      <trkpt lat="45.89278" lon="3.03491">
        <ele>646.2</ele>
        <time>2018-07-01T08:53:35Z</time>
      </trkpt>
      <trkpt lat="45.89279" lon="3.03494">
        <ele>646</ele>
        <time>2018-07-01T08:53:37Z</time>
      </trkpt>
      <trkpt lat="45.89282" lon="3.03514">
        <ele>645.8</ele>
        <time>2018-07-01T08:53:49Z</time>
      </trkpt>
      <trkpt lat="45.89285" lon="3.03541">
        <ele>645.5</ele>
        <time>2018-07-01T08:54:05Z</time>
      </trkpt>
      <trkpt lat="45.89287" lon="3.03548">
        <ele>645.5</ele>
        <time>2018-07-01T08:54:10Z</time>
      </trkpt>
      <trkpt lat="45.89288" lon="3.03557">
        <ele>645.7</ele>
        <time>2018-07-01T08:54:16Z</time>
      </trkpt>
      <trkpt lat="45.8929" lon="3.03563">
        <ele>645.9</ele>
        <time>2018-07-01T08:54:20Z</time>
      </trkpt>
      <trkpt lat="45.89293" lon="3.03571">
        <ele>646.5</ele>
        <time>2018-07-01T08:54:25Z</time>
      </trkpt>
      <trkpt lat="45.89298" lon="3.03581">
        <ele>647.5</ele>
        <time>2018-07-01T08:54:32Z</time>
      </trkpt>
      <trkpt lat="45.893" lon="3.03585">
        <ele>647.8</ele>
        <time>2018-07-01T08:54:35Z</time>
      </trkpt>
      <trkpt lat="45.89301" lon="3.03591">
        <ele>648.2</ele>
        <time>2018-07-01T08:54:39Z</time>
      </trkpt>
      <trkpt lat="45.89302" lon="3.03595">
        <ele>648.3</ele>
        <time>2018-07-01T08:54:42Z</time>
      </trkpt>
      <trkpt lat="45.89302" lon="3.03599">
        <ele>648.3</ele>
        <time>2018-07-01T08:54:44Z</time>
      </trkpt>
      <trkpt lat="45.89303" lon="3.03604">
        <ele>648.3</ele>
        <time>2018-07-01T08:54:47Z</time>
      </trkpt>
      <trkpt lat="45.89303" lon="3.03608">
        <ele>648.2</ele>
        <time>2018-07-01T08:54:49Z</time>
      </trkpt>
      <trkpt lat="45.89302" lon="3.03617">
        <ele>647.9</ele>
        <time>2018-07-01T08:54:53Z</time>
      </trkpt>
      <trkpt lat="45.89302" lon="3.03625">
        <ele>647.6</ele>
        <time>2018-07-01T08:54:59Z</time>
      </trkpt>
      <trkpt lat="45.89302" lon="3.0363">
        <ele>647.6</ele>
        <time>2018-07-01T08:55:18Z</time>
      </trkpt>
      <trkpt lat="45.89303" lon="3.0364">
        <ele>647.5</ele>
        <time>2018-07-01T08:55:23Z</time>
      </trkpt>
      <trkpt lat="45.89303" lon="3.03659">
        <ele>647.1</ele>
        <time>2018-07-01T08:55:34Z</time>
      </trkpt>
      <trkpt lat="45.89303" lon="3.03665">
        <ele>647.1</ele>
        <time>2018-07-01T08:55:37Z</time>
      </trkpt>
      <trkpt lat="45.89304" lon="3.0367">
        <ele>647.2</ele>
        <time>2018-07-01T08:55:40Z</time>
      </trkpt>
      <trkpt lat="45.89304" lon="3.03673">
        <ele>647.5</ele>
        <time>2018-07-01T08:55:42Z</time>
      </trkpt>
      <trkpt lat="45.89306" lon="3.03678">
        <ele>647.9</ele>
        <time>2018-07-01T08:55:45Z</time>
      </trkpt>
      <trkpt lat="45.8931" lon="3.03691">
        <ele>649.1</ele>
        <time>2018-07-01T08:55:54Z</time>
      </trkpt>
      <trkpt lat="45.89311" lon="3.03697">
        <ele>649.6</ele>
        <time>2018-07-01T08:55:58Z</time>
      </trkpt>
      <trkpt lat="45.89312" lon="3.03704">
        <ele>649.9</ele>
        <time>2018-07-01T08:56:03Z</time>
      </trkpt>
      <trkpt lat="45.89314" lon="3.03719">
        <ele>650.4</ele>
        <time>2018-07-01T08:56:12Z</time>
      </trkpt>
      <trkpt lat="45.89314" lon="3.03725">
        <ele>650.6</ele>
        <time>2018-07-01T08:56:15Z</time>
      </trkpt>
      <trkpt lat="45.89314" lon="3.0373">
        <ele>650.5</ele>
        <time>2018-07-01T08:56:18Z</time>
      </trkpt>
      <trkpt lat="45.89313" lon="3.03734">
        <ele>650.4</ele>
        <time>2018-07-01T08:56:21Z</time>
      </trkpt>
      <trkpt lat="45.89313" lon="3.03738">
        <ele>650.4</ele>
        <time>2018-07-01T08:56:23Z</time>
      </trkpt>
      <trkpt lat="45.89312" lon="3.03742">
        <ele>650.4</ele>
        <time>2018-07-01T08:56:25Z</time>
      </trkpt>
      <trkpt lat="45.89312" lon="3.03745">
        <ele>650.4</ele>
        <time>2018-07-01T08:56:27Z</time>
      </trkpt>
      <trkpt lat="45.89312" lon="3.0375">
        <ele>650.4</ele>
        <time>2018-07-01T08:56:30Z</time>
      </trkpt>
      <trkpt lat="45.89311" lon="3.03753">
        <ele>650.3</ele>
        <time>2018-07-01T08:56:33Z</time>
      </trkpt>
      <trkpt lat="45.89311" lon="3.03755">
        <ele>650.1</ele>
        <time>2018-07-01T08:56:35Z</time>
      </trkpt>
      <trkpt lat="45.8931" lon="3.03755">
        <ele>650</ele>
        <time>2018-07-01T08:56:36Z</time>
      </trkpt>
      <trkpt lat="45.89309" lon="3.03756">
        <ele>649.8</ele>
        <time>2018-07-01T08:56:38Z</time>
      </trkpt>
      <trkpt lat="45.89307" lon="3.03756">
        <ele>649.5</ele>
        <time>2018-07-01T08:56:40Z</time>
      </trkpt>
      <trkpt lat="45.89302" lon="3.03756">
        <ele>648.7</ele>
        <time>2018-07-01T08:56:45Z</time>
      </trkpt>
      <trkpt lat="45.893" lon="3.03757">
        <ele>648.4</ele>
        <time>2018-07-01T08:56:47Z</time>
      </trkpt>
      <trkpt lat="45.89297" lon="3.03758">
        <ele>647.9</ele>
        <time>2018-07-01T08:56:50Z</time>
      </trkpt>
      <trkpt lat="45.8929" lon="3.03761">
        <ele>646.8</ele>
        <time>2018-07-01T08:56:58Z</time>
      </trkpt>
      <trkpt lat="45.89288" lon="3.03761">
        <ele>646.5</ele>
        <time>2018-07-01T08:57:01Z</time>
      </trkpt>
      <trkpt lat="45.89285" lon="3.03762">
        <ele>645.9</ele>
        <time>2018-07-01T08:57:05Z</time>
      </trkpt>
      <trkpt lat="45.8928" lon="3.03762">
        <ele>645.1</ele>
        <time>2018-07-01T08:57:10Z</time>
      </trkpt>
      <trkpt lat="45.89276" lon="3.03762">
        <ele>644.6</ele>
        <time>2018-07-01T08:57:13Z</time>
      </trkpt>
      <trkpt lat="45.89274" lon="3.03761">
        <ele>644.2</ele>
        <time>2018-07-01T08:57:16Z</time>
      </trkpt>
      <trkpt lat="45.89271" lon="3.0376">
        <ele>643.8</ele>
        <time>2018-07-01T08:57:19Z</time>
      </trkpt>
      <trkpt lat="45.89268" lon="3.03759">
        <ele>643.2</ele>
        <time>2018-07-01T08:57:24Z</time>
      </trkpt>
      <trkpt lat="45.89265" lon="3.0376">
        <ele>642.8</ele>
        <time>2018-07-01T08:57:29Z</time>
      </trkpt>
      <trkpt lat="45.8926" lon="3.03759">
        <ele>641.9</ele>
        <time>2018-07-01T08:57:35Z</time>
      </trkpt>
      <trkpt lat="45.89257" lon="3.03757">
        <ele>641.3</ele>
        <time>2018-07-01T08:57:38Z</time>
      </trkpt>
      <trkpt lat="45.89254" lon="3.03755">
        <ele>640.8</ele>
        <time>2018-07-01T08:57:41Z</time>
      </trkpt>
      <trkpt lat="45.89248" lon="3.03747">
        <ele>639.4</ele>
        <time>2018-07-01T08:57:49Z</time>
      </trkpt>
      <trkpt lat="45.89244" lon="3.03743">
        <ele>638.2</ele>
        <time>2018-07-01T08:57:54Z</time>
      </trkpt>
      <trkpt lat="45.89241" lon="3.0374">
        <ele>637.4</ele>
        <time>2018-07-01T08:57:57Z</time>
      </trkpt>
      <trkpt lat="45.89236" lon="3.03733">
        <ele>635.7</ele>
        <time>2018-07-01T08:58:03Z</time>
      </trkpt>
      <trkpt lat="45.89235" lon="3.03732">
        <ele>635.4</ele>
        <time>2018-07-01T08:58:04Z</time>
      </trkpt>
      <trkpt lat="45.89232" lon="3.03731">
        <ele>634.8</ele>
        <time>2018-07-01T08:58:06Z</time>
      </trkpt>
      <trkpt lat="45.89228" lon="3.03728">
        <ele>633.7</ele>
        <time>2018-07-01T08:58:10Z</time>
      </trkpt>
      <trkpt lat="45.89226" lon="3.03727">
        <ele>633.1</ele>
        <time>2018-07-01T08:58:12Z</time>
      </trkpt>
      <trkpt lat="45.89223" lon="3.03725">
        <ele>632.4</ele>
        <time>2018-07-01T08:58:14Z</time>
      </trkpt>
      <trkpt lat="45.8922" lon="3.03721">
        <ele>631.4</ele>
        <time>2018-07-01T08:58:17Z</time>
      </trkpt>
      <trkpt lat="45.89217" lon="3.03716">
        <ele>630.4</ele>
        <time>2018-07-01T08:58:20Z</time>
      </trkpt>
      <trkpt lat="45.89215" lon="3.03714">
        <ele>629.7</ele>
        <time>2018-07-01T08:58:22Z</time>
      </trkpt>
      <trkpt lat="45.89211" lon="3.0371">
        <ele>628.6</ele>
        <time>2018-07-01T08:58:26Z</time>
      </trkpt>
      <trkpt lat="45.89195" lon="3.037">
        <ele>624.1</ele>
        <time>2018-07-01T08:58:41Z</time>
      </trkpt>
      <trkpt lat="45.8919" lon="3.03698">
        <ele>622.8</ele>
        <time>2018-07-01T08:58:45Z</time>
      </trkpt>
      <trkpt lat="45.89187" lon="3.03697">
        <ele>621.9</ele>
        <time>2018-07-01T08:58:48Z</time>
      </trkpt>
      <trkpt lat="45.89182" lon="3.03697">
        <ele>620.8</ele>
        <time>2018-07-01T08:58:52Z</time>
      </trkpt>
      <trkpt lat="45.89174" lon="3.03697">
        <ele>619.2</ele>
        <time>2018-07-01T08:58:59Z</time>
      </trkpt>
      <trkpt lat="45.89172" lon="3.03698">
        <ele>618.8</ele>
        <time>2018-07-01T08:59:01Z</time>
      </trkpt>
      <trkpt lat="45.89169" lon="3.037">
        <ele>618.5</ele>
        <time>2018-07-01T08:59:03Z</time>
      </trkpt>
      <trkpt lat="45.89167" lon="3.03702">
        <ele>618.2</ele>
        <time>2018-07-01T08:59:05Z</time>
      </trkpt>
      <trkpt lat="45.89165" lon="3.03704">
        <ele>617.7</ele>
        <time>2018-07-01T08:59:07Z</time>
      </trkpt>
      <trkpt lat="45.89162" lon="3.03708">
        <ele>617.1</ele>
        <time>2018-07-01T08:59:10Z</time>
      </trkpt>
      <trkpt lat="45.89161" lon="3.03711">
        <ele>616.9</ele>
        <time>2018-07-01T08:59:12Z</time>
      </trkpt>
      <trkpt lat="45.89158" lon="3.03719">
        <ele>616.7</ele>
        <time>2018-07-01T08:59:19Z</time>
      </trkpt>
      <trkpt lat="45.89154" lon="3.03727">
        <ele>616.1</ele>
        <time>2018-07-01T08:59:26Z</time>
      </trkpt>
      <trkpt lat="45.89153" lon="3.03731">
        <ele>616.1</ele>
        <time>2018-07-01T08:59:29Z</time>
      </trkpt>
      <trkpt lat="45.89153" lon="3.03735">
        <ele>616.4</ele>
        <time>2018-07-01T08:59:32Z</time>
      </trkpt>
      <trkpt lat="45.89153" lon="3.03738">
        <ele>616.7</ele>
        <time>2018-07-01T08:59:34Z</time>
      </trkpt>
      <trkpt lat="45.89153" lon="3.0374">
        <ele>617.2</ele>
        <time>2018-07-01T08:59:36Z</time>
      </trkpt>
      <trkpt lat="45.89154" lon="3.03743">
        <ele>617.8</ele>
        <time>2018-07-01T08:59:38Z</time>
      </trkpt>
      <trkpt lat="45.89155" lon="3.03747">
        <ele>618.9</ele>
        <time>2018-07-01T08:59:41Z</time>
      </trkpt>
      <trkpt lat="45.89162" lon="3.03758">
        <ele>621.4</ele>
        <time>2018-07-01T08:59:49Z</time>
      </trkpt>
      <trkpt lat="45.8917" lon="3.03775">
        <ele>623</ele>
        <time>2018-07-01T09:00:00Z</time>
      </trkpt>
      <trkpt lat="45.89172" lon="3.03779">
        <ele>623.1</ele>
        <time>2018-07-01T09:00:03Z</time>
      </trkpt>
      <trkpt lat="45.89173" lon="3.03783">
        <ele>623.2</ele>
        <time>2018-07-01T09:00:06Z</time>
      </trkpt>
      <trkpt lat="45.89175" lon="3.03789">
        <ele>623.1</ele>
        <time>2018-07-01T09:00:09Z</time>
      </trkpt>
      <trkpt lat="45.89176" lon="3.03798">
        <ele>622.9</ele>
        <time>2018-07-01T09:00:14Z</time>
      </trkpt>
      <trkpt lat="45.89177" lon="3.03803">
        <ele>622.9</ele>
        <time>2018-07-01T09:00:17Z</time>
      </trkpt>
      <trkpt lat="45.89178" lon="3.03806">
        <ele>623</ele>
        <time>2018-07-01T09:00:19Z</time>
      </trkpt>
      <trkpt lat="45.89181" lon="3.03813">
        <ele>623.5</ele>
        <time>2018-07-01T09:00:25Z</time>
      </trkpt>
      <trkpt lat="45.89182" lon="3.03817">
        <ele>623.6</ele>
        <time>2018-07-01T09:00:28Z</time>
      </trkpt>
      <trkpt lat="45.89183" lon="3.0382">
        <ele>623.6</ele>
        <time>2018-07-01T09:00:30Z</time>
      </trkpt>
      <trkpt lat="45.89185" lon="3.03836">
        <ele>623.5</ele>
        <time>2018-07-01T09:00:38Z</time>
      </trkpt>
      <trkpt lat="45.89188" lon="3.03856">
        <ele>624.5</ele>
        <time>2018-07-01T09:00:49Z</time>
      </trkpt>
      <trkpt lat="45.89189" lon="3.03866">
        <ele>624.9</ele>
        <time>2018-07-01T09:00:55Z</time>
      </trkpt>
      <trkpt lat="45.8919" lon="3.03876">
        <ele>625.1</ele>
        <time>2018-07-01T09:01:01Z</time>
      </trkpt>
      <trkpt lat="45.8919" lon="3.03881">
        <ele>625.1</ele>
        <time>2018-07-01T09:01:04Z</time>
      </trkpt>
      <trkpt lat="45.8919" lon="3.03888">
        <ele>625.1</ele>
        <time>2018-07-01T09:01:08Z</time>
      </trkpt>
      <trkpt lat="45.89189" lon="3.03897">
        <ele>624.9</ele>
        <time>2018-07-01T09:01:13Z</time>
      </trkpt>
      <trkpt lat="45.89187" lon="3.03907">
        <ele>624.6</ele>
        <time>2018-07-01T09:01:18Z</time>
      </trkpt>
      <trkpt lat="45.89187" lon="3.0391">
        <ele>624.5</ele>
        <time>2018-07-01T09:01:20Z</time>
      </trkpt>
      <trkpt lat="45.89185" lon="3.03918">
        <ele>624.2</ele>
        <time>2018-07-01T09:01:24Z</time>
      </trkpt>
      <trkpt lat="45.89183" lon="3.03923">
        <ele>624.4</ele>
        <time>2018-07-01T09:01:27Z</time>
      </trkpt>
      <trkpt lat="45.89182" lon="3.03926">
        <ele>624.5</ele>
        <time>2018-07-01T09:01:29Z</time>
      </trkpt>
      <trkpt lat="45.8918" lon="3.03928">
        <ele>624.4</ele>
        <time>2018-07-01T09:01:31Z</time>
      </trkpt>
      <trkpt lat="45.8918" lon="3.0393">
        <ele>624.4</ele>
        <time>2018-07-01T09:01:32Z</time>
      </trkpt>
      <trkpt lat="45.89176" lon="3.03932">
        <ele>624.1</ele>
        <time>2018-07-01T09:01:35Z</time>
      </trkpt>
      <trkpt lat="45.89173" lon="3.03934">
        <ele>623.7</ele>
        <time>2018-07-01T09:01:37Z</time>
      </trkpt>
      <trkpt lat="45.89169" lon="3.03935">
        <ele>623.2</ele>
        <time>2018-07-01T09:01:40Z</time>
      </trkpt>
      <trkpt lat="45.89166" lon="3.03936">
        <ele>622.7</ele>
        <time>2018-07-01T09:01:42Z</time>
      </trkpt>
      <trkpt lat="45.89152" lon="3.03938">
        <ele>619.9</ele>
        <time>2018-07-01T09:01:54Z</time>
      </trkpt>
      <trkpt lat="45.89147" lon="3.0394">
        <ele>619</ele>
        <time>2018-07-01T09:01:58Z</time>
      </trkpt>
      <trkpt lat="45.89136" lon="3.03943">
        <ele>617.3</ele>
        <time>2018-07-01T09:02:06Z</time>
      </trkpt>
      <trkpt lat="45.89131" lon="3.03943">
        <ele>616.3</ele>
        <time>2018-07-01T09:02:11Z</time>
      </trkpt>
      <trkpt lat="45.89129" lon="3.03944">
        <ele>616</ele>
        <time>2018-07-01T09:02:13Z</time>
      </trkpt>
      <trkpt lat="45.89126" lon="3.03945">
        <ele>615.5</ele>
        <time>2018-07-01T09:02:16Z</time>
      </trkpt>
      <trkpt lat="45.89121" lon="3.03948">
        <ele>615</ele>
        <time>2018-07-01T09:02:20Z</time>
      </trkpt>
      <trkpt lat="45.89114" lon="3.03952">
        <ele>614.2</ele>
        <time>2018-07-01T09:02:28Z</time>
      </trkpt>
      <trkpt lat="45.89109" lon="3.03953">
        <ele>613.5</ele>
        <time>2018-07-01T09:02:32Z</time>
      </trkpt>
      <trkpt lat="45.89103" lon="3.03955">
        <ele>612.6</ele>
        <time>2018-07-01T09:02:37Z</time>
      </trkpt>
      <trkpt lat="45.89094" lon="3.03956">
        <ele>611</ele>
        <time>2018-07-01T09:02:44Z</time>
      </trkpt>
      <trkpt lat="45.89089" lon="3.03956">
        <ele>610.1</ele>
        <time>2018-07-01T09:02:48Z</time>
      </trkpt>
      <trkpt lat="45.89085" lon="3.03956">
        <ele>609.2</ele>
        <time>2018-07-01T09:02:51Z</time>
      </trkpt>
      <trkpt lat="45.89079" lon="3.03955">
        <ele>607.4</ele>
        <time>2018-07-01T09:02:55Z</time>
      </trkpt>
      <trkpt lat="45.89075" lon="3.03955">
        <ele>606.1</ele>
        <time>2018-07-01T09:02:58Z</time>
      </trkpt>
      <trkpt lat="45.89071" lon="3.03955">
        <ele>605</ele>
        <time>2018-07-01T09:03:01Z</time>
      </trkpt>
      <trkpt lat="45.89069" lon="3.03956">
        <ele>604.6</ele>
        <time>2018-07-01T09:03:03Z</time>
      </trkpt>
      <trkpt lat="45.89068" lon="3.03957">
        <ele>604.4</ele>
        <time>2018-07-01T09:03:04Z</time>
      </trkpt>
      <trkpt lat="45.89067" lon="3.03958">
        <ele>604.4</ele>
        <time>2018-07-01T09:03:05Z</time>
      </trkpt>
      <trkpt lat="45.89063" lon="3.03965">
        <ele>604.8</ele>
        <time>2018-07-01T09:03:10Z</time>
      </trkpt>
      <trkpt lat="45.89061" lon="3.03967">
        <ele>604.6</ele>
        <time>2018-07-01T09:03:12Z</time>
      </trkpt>
      <trkpt lat="45.89058" lon="3.03969">
        <ele>604.2</ele>
        <time>2018-07-01T09:03:15Z</time>
      </trkpt>
      <trkpt lat="45.89049" lon="3.03974">
        <ele>602.7</ele>
        <time>2018-07-01T09:03:23Z</time>
      </trkpt>
      <trkpt lat="45.89042" lon="3.03979">
        <ele>601.7</ele>
        <time>2018-07-01T09:03:30Z</time>
      </trkpt>
      <trkpt lat="45.89038" lon="3.03982">
        <ele>601.4</ele>
        <time>2018-07-01T09:03:34Z</time>
      </trkpt>
      <trkpt lat="45.89035" lon="3.03985">
        <ele>601.3</ele>
        <time>2018-07-01T09:03:37Z</time>
      </trkpt>
      <trkpt lat="45.8903" lon="3.03991">
        <ele>601.3</ele>
        <time>2018-07-01T09:03:45Z</time>
      </trkpt>
      <trkpt lat="45.89029" lon="3.03992">
        <ele>601.2</ele>
        <time>2018-07-01T09:03:47Z</time>
      </trkpt>
      <trkpt lat="45.89029" lon="3.03991">
        <ele>601</ele>
        <time>2018-07-01T09:03:49Z</time>
      </trkpt>
      <trkpt lat="45.89029" lon="3.03989">
        <ele>600.6</ele>
        <time>2018-07-01T09:04:06Z</time>
      </trkpt>
      <trkpt lat="45.89029" lon="3.03989">
        <ele>600.6</ele>
        <time>2018-07-01T09:04:22Z</time>
      </trkpt>
      <trkpt lat="45.89031" lon="3.03987">
        <ele>600.7</ele>
        <time>2018-07-01T09:04:41Z</time>
      </trkpt>
      <trkpt lat="45.89031" lon="3.03987">
        <ele>600.7</ele>
        <time>2018-07-01T09:05:20Z</time>
      </trkpt>
      <trkpt lat="45.89031" lon="3.03988">
        <ele>600.8</ele>
        <time>2018-07-01T09:05:21Z</time>
      </trkpt>
      <trkpt lat="45.89031" lon="3.03989">
        <ele>601.1</ele>
        <time>2018-07-01T09:05:22Z</time>
      </trkpt>
      <trkpt lat="45.89031" lon="3.0399">
        <ele>601.4</ele>
        <time>2018-07-01T09:05:23Z</time>
      </trkpt>
      <trkpt lat="45.89031" lon="3.03992">
        <ele>601.8</ele>
        <time>2018-07-01T09:05:24Z</time>
      </trkpt>
      <trkpt lat="45.8903" lon="3.03993">
        <ele>602</ele>
        <time>2018-07-01T09:05:25Z</time>
      </trkpt>
      <trkpt lat="45.89029" lon="3.03996">
        <ele>602.3</ele>
        <time>2018-07-01T09:05:27Z</time>
      </trkpt>
      <trkpt lat="45.89027" lon="3.03999">
        <ele>602.4</ele>
        <time>2018-07-01T09:05:32Z</time>
      </trkpt>
      <trkpt lat="45.89024" lon="3.04005">
        <ele>602</ele>
        <time>2018-07-01T09:05:37Z</time>
      </trkpt>
      <trkpt lat="45.89021" lon="3.0401">
        <ele>601.3</ele>
        <time>2018-07-01T09:05:41Z</time>
      </trkpt>
      <trkpt lat="45.8902" lon="3.04012">
        <ele>601.2</ele>
        <time>2018-07-01T09:05:42Z</time>
      </trkpt>
      <trkpt lat="45.89019" lon="3.04015">
        <ele>601.1</ele>
        <time>2018-07-01T09:05:44Z</time>
      </trkpt>
      <trkpt lat="45.89019" lon="3.04024">
        <ele>601.2</ele>
        <time>2018-07-01T09:05:49Z</time>
      </trkpt>
      <trkpt lat="45.89018" lon="3.04028">
        <ele>601.2</ele>
        <time>2018-07-01T09:05:51Z</time>
      </trkpt>
      <trkpt lat="45.89017" lon="3.04032">
        <ele>600.9</ele>
        <time>2018-07-01T09:05:53Z</time>
      </trkpt>
      <trkpt lat="45.89015" lon="3.04036">
        <ele>600.6</ele>
        <time>2018-07-01T09:05:55Z</time>
      </trkpt>
      <trkpt lat="45.8901" lon="3.04047">
        <ele>599.3</ele>
        <time>2018-07-01T09:06:01Z</time>
      </trkpt>
      <trkpt lat="45.89009" lon="3.04051">
        <ele>599</ele>
        <time>2018-07-01T09:06:03Z</time>
      </trkpt>
      <trkpt lat="45.89008" lon="3.04054">
        <ele>598.9</ele>
        <time>2018-07-01T09:06:05Z</time>
      </trkpt>
      <trkpt lat="45.89008" lon="3.04057">
        <ele>598.8</ele>
        <time>2018-07-01T09:06:07Z</time>
      </trkpt>
      <trkpt lat="45.89008" lon="3.04061">
        <ele>599</ele>
        <time>2018-07-01T09:06:10Z</time>
      </trkpt>
      <trkpt lat="45.89009" lon="3.04065">
        <ele>599.4</ele>
        <time>2018-07-01T09:06:13Z</time>
      </trkpt>
      <trkpt lat="45.89012" lon="3.04073">
        <ele>600.8</ele>
        <time>2018-07-01T09:06:20Z</time>
      </trkpt>
      <trkpt lat="45.89013" lon="3.04076">
        <ele>601.2</ele>
        <time>2018-07-01T09:06:22Z</time>
      </trkpt>
      <trkpt lat="45.89014" lon="3.04082">
        <ele>602</ele>
        <time>2018-07-01T09:06:26Z</time>
      </trkpt>
      <trkpt lat="45.89015" lon="3.04085">
        <ele>602.1</ele>
        <time>2018-07-01T09:06:28Z</time>
      </trkpt>
      <trkpt lat="45.89018" lon="3.04092">
        <ele>601.9</ele>
        <time>2018-07-01T09:06:32Z</time>
      </trkpt>
      <trkpt lat="45.89019" lon="3.04095">
        <ele>601.7</ele>
        <time>2018-07-01T09:06:34Z</time>
      </trkpt>
      <trkpt lat="45.89018" lon="3.04097">
        <ele>601.5</ele>
        <time>2018-07-01T09:06:35Z</time>
      </trkpt>
      <trkpt lat="45.89018" lon="3.04098">
        <ele>601.2</ele>
        <time>2018-07-01T09:06:36Z</time>
      </trkpt>
      <trkpt lat="45.89018" lon="3.04099">
        <ele>600.8</ele>
        <time>2018-07-01T09:06:37Z</time>
      </trkpt>
      <trkpt lat="45.89017" lon="3.041">
        <ele>600.4</ele>
        <time>2018-07-01T09:06:38Z</time>
      </trkpt>
      <trkpt lat="45.89016" lon="3.041">
        <ele>600.1</ele>
        <time>2018-07-01T09:06:39Z</time>
      </trkpt>
      <trkpt lat="45.89014" lon="3.04101">
        <ele>599.3</ele>
        <time>2018-07-01T09:06:41Z</time>
      </trkpt>
      <trkpt lat="45.89011" lon="3.04101">
        <ele>598.2</ele>
        <time>2018-07-01T09:06:44Z</time>
      </trkpt>
      <trkpt lat="45.89007" lon="3.04099">
        <ele>596.8</ele>
        <time>2018-07-01T09:06:50Z</time>
      </trkpt>
      <trkpt lat="45.89006" lon="3.04099">
        <ele>596.5</ele>
        <time>2018-07-01T09:06:53Z</time>
      </trkpt>
      <trkpt lat="45.89006" lon="3.041">
        <ele>596.4</ele>
        <time>2018-07-01T09:06:56Z</time>
      </trkpt>
      <trkpt lat="45.89004" lon="3.04099">
        <ele>596.1</ele>
        <time>2018-07-01T09:07:01Z</time>
      </trkpt>
      <trkpt lat="45.89001" lon="3.04099">
        <ele>594.8</ele>
        <time>2018-07-01T09:07:04Z</time>
      </trkpt>
      <trkpt lat="45.88996" lon="3.04097">
        <ele>593.4</ele>
        <time>2018-07-01T09:07:08Z</time>
      </trkpt>
      <trkpt lat="45.88987" lon="3.04094">
        <ele>590.5</ele>
        <time>2018-07-01T09:07:15Z</time>
      </trkpt>
      <trkpt lat="45.88968" lon="3.04089">
        <ele>584.6</ele>
        <time>2018-07-01T09:07:29Z</time>
      </trkpt>
      <trkpt lat="45.88963" lon="3.04087">
        <ele>582.8</ele>
        <time>2018-07-01T09:07:34Z</time>
      </trkpt>
      <trkpt lat="45.88959" lon="3.04086">
        <ele>581.9</ele>
        <time>2018-07-01T09:07:37Z</time>
      </trkpt>
      <trkpt lat="45.88956" lon="3.04084">
        <ele>581</ele>
        <time>2018-07-01T09:07:40Z</time>
      </trkpt>
      <trkpt lat="45.88951" lon="3.0408">
        <ele>579.3</ele>
        <time>2018-07-01T09:07:45Z</time>
      </trkpt>
      <trkpt lat="45.88949" lon="3.04077">
        <ele>578.1</ele>
        <time>2018-07-01T09:07:48Z</time>
      </trkpt>
      <trkpt lat="45.88946" lon="3.04074">
        <ele>577</ele>
        <time>2018-07-01T09:07:51Z</time>
      </trkpt>
      <trkpt lat="45.88944" lon="3.04071">
        <ele>575.9</ele>
        <time>2018-07-01T09:07:54Z</time>
      </trkpt>
      <trkpt lat="45.88943" lon="3.04071">
        <ele>575.5</ele>
        <time>2018-07-01T09:07:55Z</time>
      </trkpt>
      <trkpt lat="45.88942" lon="3.0407">
        <ele>575.2</ele>
        <time>2018-07-01T09:07:56Z</time>
      </trkpt>
      <trkpt lat="45.88941" lon="3.0407">
        <ele>574.9</ele>
        <time>2018-07-01T09:07:57Z</time>
      </trkpt>
      <trkpt lat="45.8894" lon="3.04071">
        <ele>574.5</ele>
        <time>2018-07-01T09:07:58Z</time>
      </trkpt>
      <trkpt lat="45.88938" lon="3.04072">
        <ele>574</ele>
        <time>2018-07-01T09:08:00Z</time>
      </trkpt>
      <trkpt lat="45.88937" lon="3.04075">
        <ele>573.9</ele>
        <time>2018-07-01T09:08:02Z</time>
      </trkpt>
      <trkpt lat="45.88937" lon="3.04076">
        <ele>573.9</ele>
        <time>2018-07-01T09:08:03Z</time>
      </trkpt>
      <trkpt lat="45.88938" lon="3.04079">
        <ele>574.2</ele>
        <time>2018-07-01T09:08:05Z</time>
      </trkpt>
      <trkpt lat="45.88938" lon="3.04081">
        <ele>574.7</ele>
        <time>2018-07-01T09:08:07Z</time>
      </trkpt>
      <trkpt lat="45.8894" lon="3.04084">
        <ele>575.4</ele>
        <time>2018-07-01T09:08:10Z</time>
      </trkpt>
      <trkpt lat="45.88942" lon="3.04086">
        <ele>575.7</ele>
        <time>2018-07-01T09:08:13Z</time>
      </trkpt>
      <trkpt lat="45.88944" lon="3.0409">
        <ele>575.7</ele>
        <time>2018-07-01T09:08:16Z</time>
      </trkpt>
      <trkpt lat="45.88945" lon="3.04092">
        <ele>575.6</ele>
        <time>2018-07-01T09:08:18Z</time>
      </trkpt>
      <trkpt lat="45.88948" lon="3.04101">
        <ele>574.8</ele>
        <time>2018-07-01T09:08:25Z</time>
      </trkpt>
      <trkpt lat="45.88949" lon="3.04104">
        <ele>574.7</ele>
        <time>2018-07-01T09:08:27Z</time>
      </trkpt>
      <trkpt lat="45.88951" lon="3.04109">
        <ele>574.6</ele>
        <time>2018-07-01T09:08:31Z</time>
      </trkpt>
      <trkpt lat="45.88953" lon="3.04113">
        <ele>574.8</ele>
        <time>2018-07-01T09:08:35Z</time>
      </trkpt>
      <trkpt lat="45.88955" lon="3.04115">
        <ele>575</ele>
        <time>2018-07-01T09:08:37Z</time>
      </trkpt>
      <trkpt lat="45.88959" lon="3.04121">
        <ele>575.4</ele>
        <time>2018-07-01T09:08:43Z</time>
      </trkpt>
      <trkpt lat="45.88963" lon="3.04131">
        <ele>575.4</ele>
        <time>2018-07-01T09:08:52Z</time>
      </trkpt>
      <trkpt lat="45.88965" lon="3.04133">
        <ele>575.5</ele>
        <time>2018-07-01T09:08:54Z</time>
      </trkpt>
      <trkpt lat="45.88972" lon="3.04143">
        <ele>576.6</ele>
        <time>2018-07-01T09:09:04Z</time>
      </trkpt>
      <trkpt lat="45.88975" lon="3.04149">
        <ele>576.9</ele>
        <time>2018-07-01T09:09:10Z</time>
      </trkpt>
      <trkpt lat="45.88978" lon="3.04155">
        <ele>577</ele>
        <time>2018-07-01T09:09:15Z</time>
      </trkpt>
      <trkpt lat="45.8898" lon="3.04161">
        <ele>576.9</ele>
        <time>2018-07-01T09:09:19Z</time>
      </trkpt>
      <trkpt lat="45.88984" lon="3.04172">
        <ele>576.2</ele>
        <time>2018-07-01T09:09:26Z</time>
      </trkpt>
      <trkpt lat="45.88986" lon="3.0418">
        <ele>575</ele>
        <time>2018-07-01T09:09:31Z</time>
      </trkpt>
      <trkpt lat="45.88987" lon="3.04185">
        <ele>574.2</ele>
        <time>2018-07-01T09:09:34Z</time>
      </trkpt>
      <trkpt lat="45.88988" lon="3.04193">
        <ele>572.6</ele>
        <time>2018-07-01T09:09:39Z</time>
      </trkpt>
      <trkpt lat="45.88989" lon="3.04199">
        <ele>571.5</ele>
        <time>2018-07-01T09:09:43Z</time>
      </trkpt>
      <trkpt lat="45.88991" lon="3.04209">
        <ele>570</ele>
        <time>2018-07-01T09:09:49Z</time>
      </trkpt>
      <trkpt lat="45.88992" lon="3.04219">
        <ele>568.3</ele>
        <time>2018-07-01T09:10:14Z</time>
      </trkpt>
      <trkpt lat="45.88992" lon="3.04219">
        <ele>568.3</ele>
        <time>2018-07-01T09:10:15Z</time>
      </trkpt>
      <trkpt lat="45.88992" lon="3.04219">
        <ele>568.3</ele>
        <time>2018-07-01T09:10:20Z</time>
      </trkpt>
      <trkpt lat="45.88992" lon="3.04219">
        <ele>568.3</ele>
        <time>2018-07-01T09:10:24Z</time>
      </trkpt>
      <trkpt lat="45.88993" lon="3.04222">
        <ele>567.8</ele>
        <time>2018-07-01T09:10:30Z</time>
      </trkpt>
      <trkpt lat="45.88995" lon="3.04232">
        <ele>566.1</ele>
        <time>2018-07-01T09:10:38Z</time>
      </trkpt>
      <trkpt lat="45.88996" lon="3.04237">
        <ele>565.5</ele>
        <time>2018-07-01T09:10:43Z</time>
      </trkpt>
      <trkpt lat="45.88997" lon="3.0424">
        <ele>565.2</ele>
        <time>2018-07-01T09:10:57Z</time>
      </trkpt>
      <trkpt lat="45.88997" lon="3.0424">
        <ele>565.2</ele>
        <time>2018-07-01T09:12:01Z</time>
      </trkpt>
      <trkpt lat="45.88997" lon="3.04242">
        <ele>564.8</ele>
        <time>2018-07-01T09:12:05Z</time>
      </trkpt>
      <trkpt lat="45.88998" lon="3.04246">
        <ele>564.2</ele>
        <time>2018-07-01T09:12:08Z</time>
      </trkpt>
      <trkpt lat="45.89001" lon="3.04252">
        <ele>563.8</ele>
        <time>2018-07-01T09:12:13Z</time>
      </trkpt>
      <trkpt lat="45.89003" lon="3.04257">
        <ele>563.7</ele>
        <time>2018-07-01T09:12:17Z</time>
      </trkpt>
      <trkpt lat="45.89007" lon="3.04265">
        <ele>563.6</ele>
        <time>2018-07-01T09:12:24Z</time>
      </trkpt>
      <trkpt lat="45.89013" lon="3.04273">
        <ele>563.9</ele>
        <time>2018-07-01T09:12:32Z</time>
      </trkpt>
      <trkpt lat="45.89017" lon="3.04281">
        <ele>563.7</ele>
        <time>2018-07-01T09:12:38Z</time>
      </trkpt>
      <trkpt lat="45.89021" lon="3.0429">
        <ele>563.1</ele>
        <time>2018-07-01T09:12:44Z</time>
      </trkpt>
      <trkpt lat="45.89023" lon="3.04297">
        <ele>562.4</ele>
        <time>2018-07-01T09:12:48Z</time>
      </trkpt>
      <trkpt lat="45.89025" lon="3.04303">
        <ele>561.4</ele>
        <time>2018-07-01T09:12:52Z</time>
      </trkpt>
      <trkpt lat="45.89026" lon="3.04314">
        <ele>559.5</ele>
        <time>2018-07-01T09:12:58Z</time>
      </trkpt>
      <trkpt lat="45.89028" lon="3.04322">
        <ele>558.1</ele>
        <time>2018-07-01T09:13:03Z</time>
      </trkpt>
      <trkpt lat="45.89029" lon="3.04328">
        <ele>557.3</ele>
        <time>2018-07-01T09:13:07Z</time>
      </trkpt>
      <trkpt lat="45.89032" lon="3.04337">
        <ele>556.2</ele>
        <time>2018-07-01T09:13:14Z</time>
      </trkpt>
      <trkpt lat="45.89036" lon="3.04348">
        <ele>555.3</ele>
        <time>2018-07-01T09:13:21Z</time>
      </trkpt>
      <trkpt lat="45.8904" lon="3.04355">
        <ele>554.9</ele>
        <time>2018-07-01T09:13:26Z</time>
      </trkpt>
      <trkpt lat="45.8905" lon="3.04373">
        <ele>554</ele>
        <time>2018-07-01T09:13:41Z</time>
      </trkpt>
      <trkpt lat="45.8905" lon="3.04373">
        <ele>554.1</ele>
        <time>2018-07-01T09:13:45Z</time>
      </trkpt>
      <trkpt lat="45.8905" lon="3.04373">
        <ele>554.1</ele>
        <time>2018-07-01T09:13:49Z</time>
      </trkpt>
      <trkpt lat="45.89061" lon="3.04391">
        <ele>553.2</ele>
        <time>2018-07-01T09:14:10Z</time>
      </trkpt>
      <trkpt lat="45.89063" lon="3.04395">
        <ele>552.9</ele>
        <time>2018-07-01T09:14:13Z</time>
      </trkpt>
      <trkpt lat="45.89066" lon="3.044">
        <ele>552.7</ele>
        <time>2018-07-01T09:14:17Z</time>
      </trkpt>
      <trkpt lat="45.89069" lon="3.04404">
        <ele>552.8</ele>
        <time>2018-07-01T09:14:20Z</time>
      </trkpt>
      <trkpt lat="45.89077" lon="3.04412">
        <ele>553.3</ele>
        <time>2018-07-01T09:14:26Z</time>
      </trkpt>
      <trkpt lat="45.89081" lon="3.04416">
        <ele>553.2</ele>
        <time>2018-07-01T09:14:30Z</time>
      </trkpt>
      <trkpt lat="45.89084" lon="3.04422">
        <ele>552.7</ele>
        <time>2018-07-01T09:14:35Z</time>
      </trkpt>
      <trkpt lat="45.89086" lon="3.04424">
        <ele>552.4</ele>
        <time>2018-07-01T09:14:37Z</time>
      </trkpt>
      <trkpt lat="45.89089" lon="3.04426">
        <ele>552.1</ele>
        <time>2018-07-01T09:14:40Z</time>
      </trkpt>
      <trkpt lat="45.89094" lon="3.0443">
        <ele>551.9</ele>
        <time>2018-07-01T09:14:45Z</time>
      </trkpt>
      <trkpt lat="45.891" lon="3.04435">
        <ele>551.4</ele>
        <time>2018-07-01T09:14:50Z</time>
      </trkpt>
      <trkpt lat="45.89105" lon="3.04442">
        <ele>550.2</ele>
        <time>2018-07-01T09:14:56Z</time>
      </trkpt>
      <trkpt lat="45.89107" lon="3.04443">
        <ele>550</ele>
        <time>2018-07-01T09:14:58Z</time>
      </trkpt>
      <trkpt lat="45.8911" lon="3.04445">
        <ele>549.9</ele>
        <time>2018-07-01T09:15:01Z</time>
      </trkpt>
      <trkpt lat="45.89115" lon="3.04447">
        <ele>550.1</ele>
        <time>2018-07-01T09:15:06Z</time>
      </trkpt>
      <trkpt lat="45.89124" lon="3.04451">
        <ele>550.1</ele>
        <time>2018-07-01T09:15:13Z</time>
      </trkpt>
      <trkpt lat="45.89133" lon="3.04457">
        <ele>549.7</ele>
        <time>2018-07-01T09:15:20Z</time>
      </trkpt>
      <trkpt lat="45.89137" lon="3.0446">
        <ele>549.3</ele>
        <time>2018-07-01T09:15:23Z</time>
      </trkpt>
      <trkpt lat="45.89142" lon="3.04465">
        <ele>548.4</ele>
        <time>2018-07-01T09:15:29Z</time>
      </trkpt>
      <trkpt lat="45.89145" lon="3.04467">
        <ele>548</ele>
        <time>2018-07-01T09:15:32Z</time>
      </trkpt>
      <trkpt lat="45.89147" lon="3.04469">
        <ele>547.9</ele>
        <time>2018-07-01T09:15:34Z</time>
      </trkpt>
      <trkpt lat="45.8915" lon="3.0447">
        <ele>547.7</ele>
        <time>2018-07-01T09:15:37Z</time>
      </trkpt>
      <trkpt lat="45.89178" lon="3.04482">
        <ele>544.2</ele>
        <time>2018-07-01T09:15:57Z</time>
      </trkpt>
      <trkpt lat="45.89186" lon="3.04485">
        <ele>542.1</ele>
        <time>2018-07-01T09:16:03Z</time>
      </trkpt>
      <trkpt lat="45.89191" lon="3.04486">
        <ele>541</ele>
        <time>2018-07-01T09:16:10Z</time>
      </trkpt>
      <trkpt lat="45.89191" lon="3.04486">
        <ele>541</ele>
        <time>2018-07-01T09:16:12Z</time>
      </trkpt>
      <trkpt lat="45.89192" lon="3.04486">
        <ele>540.8</ele>
        <time>2018-07-01T09:16:15Z</time>
      </trkpt>
      <trkpt lat="45.89194" lon="3.04488">
        <ele>539.8</ele>
        <time>2018-07-01T09:16:19Z</time>
      </trkpt>
      <trkpt lat="45.89197" lon="3.04489">
        <ele>539.2</ele>
        <time>2018-07-01T09:16:21Z</time>
      </trkpt>
      <trkpt lat="45.89202" lon="3.04489">
        <ele>538.3</ele>
        <time>2018-07-01T09:16:25Z</time>
      </trkpt>
      <trkpt lat="45.89202" lon="3.0449">
        <ele>538.1</ele>
        <time>2018-07-01T09:16:26Z</time>
      </trkpt>
      <trkpt lat="45.89203" lon="3.0449">
        <ele>537.8</ele>
        <time>2018-07-01T09:16:27Z</time>
      </trkpt>
      <trkpt lat="45.89203" lon="3.04491">
        <ele>537.4</ele>
        <time>2018-07-01T09:16:28Z</time>
      </trkpt>
      <trkpt lat="45.89204" lon="3.04493">
        <ele>537</ele>
        <time>2018-07-01T09:16:29Z</time>
      </trkpt>
      <trkpt lat="45.89204" lon="3.04494">
        <ele>536.5</ele>
        <time>2018-07-01T09:16:30Z</time>
      </trkpt>
      <trkpt lat="45.89203" lon="3.04495">
        <ele>536.2</ele>
        <time>2018-07-01T09:16:31Z</time>
      </trkpt>
      <trkpt lat="45.89203" lon="3.04497">
        <ele>535.9</ele>
        <time>2018-07-01T09:16:32Z</time>
      </trkpt>
      <trkpt lat="45.89202" lon="3.04497">
        <ele>535.8</ele>
        <time>2018-07-01T09:16:33Z</time>
      </trkpt>
      <trkpt lat="45.89201" lon="3.04498">
        <ele>535.8</ele>
        <time>2018-07-01T09:16:34Z</time>
      </trkpt>
      <trkpt lat="45.89199" lon="3.04498">
        <ele>536</ele>
        <time>2018-07-01T09:16:36Z</time>
      </trkpt>
      <trkpt lat="45.89191" lon="3.04497">
        <ele>537.5</ele>
        <time>2018-07-01T09:16:42Z</time>
      </trkpt>
      <trkpt lat="45.89188" lon="3.04497">
        <ele>538</ele>
        <time>2018-07-01T09:16:45Z</time>
      </trkpt>
      <trkpt lat="45.8918" lon="3.04498">
        <ele>538.7</ele>
        <time>2018-07-01T09:16:51Z</time>
      </trkpt>
      <trkpt lat="45.89176" lon="3.04498">
        <ele>539.2</ele>
        <time>2018-07-01T09:16:54Z</time>
      </trkpt>
      <trkpt lat="45.89166" lon="3.04497">
        <ele>540.9</ele>
        <time>2018-07-01T09:17:03Z</time>
      </trkpt>
      <trkpt lat="45.89158" lon="3.04497">
        <ele>540</ele>
        <time>2018-07-01T09:17:10Z</time>
      </trkpt>
      <trkpt lat="45.89152" lon="3.04496">
        <ele>539.5</ele>
        <time>2018-07-01T09:17:14Z</time>
      </trkpt>
      <trkpt lat="45.89147" lon="3.04495">
        <ele>539.1</ele>
        <time>2018-07-01T09:17:18Z</time>
      </trkpt>
      <trkpt lat="45.89141" lon="3.04494">
        <ele>538.8</ele>
        <time>2018-07-01T09:17:22Z</time>
      </trkpt>
      <trkpt lat="45.89135" lon="3.04492">
        <ele>538.8</ele>
        <time>2018-07-01T09:17:29Z</time>
      </trkpt>
      <trkpt lat="45.89134" lon="3.04491">
        <ele>538.9</ele>
        <time>2018-07-01T09:17:34Z</time>
      </trkpt>
      <trkpt lat="45.89134" lon="3.0449">
        <ele>539.1</ele>
        <time>2018-07-01T09:17:39Z</time>
      </trkpt>
      <trkpt lat="45.89131" lon="3.04489">
        <ele>539.2</ele>
        <time>2018-07-01T09:17:44Z</time>
      </trkpt>
      <trkpt lat="45.89125" lon="3.04487">
        <ele>539.1</ele>
        <time>2018-07-01T09:17:50Z</time>
      </trkpt>
      <trkpt lat="45.8912" lon="3.04486">
        <ele>538.8</ele>
        <time>2018-07-01T09:17:54Z</time>
      </trkpt>
      <trkpt lat="45.89112" lon="3.04485">
        <ele>538</ele>
        <time>2018-07-01T09:17:59Z</time>
      </trkpt>
      <trkpt lat="45.89104" lon="3.04485">
        <ele>536.9</ele>
        <time>2018-07-01T09:18:06Z</time>
      </trkpt>
      <trkpt lat="45.89099" lon="3.04484">
        <ele>536.6</ele>
        <time>2018-07-01T09:18:10Z</time>
      </trkpt>
      <trkpt lat="45.89094" lon="3.04482">
        <ele>536.7</ele>
        <time>2018-07-01T09:18:14Z</time>
      </trkpt>
      <trkpt lat="45.8909" lon="3.0448">
        <ele>536.6</ele>
        <time>2018-07-01T09:18:18Z</time>
      </trkpt>
      <trkpt lat="45.89083" lon="3.04479">
        <ele>536.1</ele>
        <time>2018-07-01T09:18:23Z</time>
      </trkpt>
      <trkpt lat="45.89081" lon="3.04478">
        <ele>535.7</ele>
        <time>2018-07-01T09:18:25Z</time>
      </trkpt>
      <trkpt lat="45.89079" lon="3.04477">
        <ele>535.3</ele>
        <time>2018-07-01T09:18:27Z</time>
      </trkpt>
      <trkpt lat="45.89077" lon="3.04475">
        <ele>535.1</ele>
        <time>2018-07-01T09:18:29Z</time>
      </trkpt>
      <trkpt lat="45.8907" lon="3.04469">
        <ele>534.9</ele>
        <time>2018-07-01T09:18:35Z</time>
      </trkpt>
      <trkpt lat="45.89066" lon="3.04466">
        <ele>534.6</ele>
        <time>2018-07-01T09:18:38Z</time>
      </trkpt>
      <trkpt lat="45.89057" lon="3.04461">
        <ele>533.4</ele>
        <time>2018-07-01T09:18:44Z</time>
      </trkpt>
      <trkpt lat="45.89053" lon="3.04458">
        <ele>532.9</ele>
        <time>2018-07-01T09:18:47Z</time>
      </trkpt>
      <trkpt lat="45.8905" lon="3.04455">
        <ele>532.7</ele>
        <time>2018-07-01T09:18:49Z</time>
      </trkpt>
      <trkpt lat="45.89047" lon="3.04452">
        <ele>532.5</ele>
        <time>2018-07-01T09:18:52Z</time>
      </trkpt>
      <trkpt lat="45.89043" lon="3.04448">
        <ele>532.5</ele>
        <time>2018-07-01T09:18:55Z</time>
      </trkpt>
      <trkpt lat="45.89038" lon="3.04441">
        <ele>532.7</ele>
        <time>2018-07-01T09:19:01Z</time>
      </trkpt>
      <trkpt lat="45.89034" lon="3.04436">
        <ele>532.6</ele>
        <time>2018-07-01T09:19:05Z</time>
      </trkpt>
      <trkpt lat="45.8903" lon="3.04433">
        <ele>532.1</ele>
        <time>2018-07-01T09:19:09Z</time>
      </trkpt>
      <trkpt lat="45.89027" lon="3.0443">
        <ele>531.5</ele>
        <time>2018-07-01T09:19:12Z</time>
      </trkpt>
      <trkpt lat="45.89023" lon="3.04428">
        <ele>531.1</ele>
        <time>2018-07-01T09:19:15Z</time>
      </trkpt>
      <trkpt lat="45.89021" lon="3.04425">
        <ele>530.9</ele>
        <time>2018-07-01T09:19:17Z</time>
      </trkpt>
      <trkpt lat="45.89018" lon="3.04422">
        <ele>530.8</ele>
        <time>2018-07-01T09:19:20Z</time>
      </trkpt>
      <trkpt lat="45.89013" lon="3.04416">
        <ele>530.7</ele>
        <time>2018-07-01T09:19:25Z</time>
      </trkpt>
      <trkpt lat="45.8901" lon="3.04411">
        <ele>530.7</ele>
        <time>2018-07-01T09:19:29Z</time>
      </trkpt>
      <trkpt lat="45.89003" lon="3.04399">
        <ele>530.7</ele>
        <time>2018-07-01T09:19:39Z</time>
      </trkpt>
      <trkpt lat="45.89" lon="3.04396">
        <ele>530.5</ele>
        <time>2018-07-01T09:19:42Z</time>
      </trkpt>
      <trkpt lat="45.88999" lon="3.04394">
        <ele>530.4</ele>
        <time>2018-07-01T09:19:44Z</time>
      </trkpt>
      <trkpt lat="45.88989" lon="3.04386">
        <ele>529</ele>
        <time>2018-07-01T09:19:52Z</time>
      </trkpt>
      <trkpt lat="45.88984" lon="3.0438">
        <ele>528.4</ele>
        <time>2018-07-01T09:19:56Z</time>
      </trkpt>
      <trkpt lat="45.88982" lon="3.04377">
        <ele>528.2</ele>
        <time>2018-07-01T09:19:58Z</time>
      </trkpt>
      <trkpt lat="45.8898" lon="3.04374">
        <ele>528</ele>
        <time>2018-07-01T09:20:00Z</time>
      </trkpt>
      <trkpt lat="45.88977" lon="3.04369">
        <ele>528</ele>
        <time>2018-07-01T09:20:03Z</time>
      </trkpt>
      <trkpt lat="45.88975" lon="3.04363">
        <ele>528.3</ele>
        <time>2018-07-01T09:20:06Z</time>
      </trkpt>
      <trkpt lat="45.88974" lon="3.0436">
        <ele>528.6</ele>
        <time>2018-07-01T09:20:08Z</time>
      </trkpt>
      <trkpt lat="45.88972" lon="3.04354">
        <ele>529.1</ele>
        <time>2018-07-01T09:20:11Z</time>
      </trkpt>
      <trkpt lat="45.88971" lon="3.04346">
        <ele>530.2</ele>
        <time>2018-07-01T09:20:16Z</time>
      </trkpt>
      <trkpt lat="45.88971" lon="3.04343">
        <ele>530.5</ele>
        <time>2018-07-01T09:20:18Z</time>
      </trkpt>
      <trkpt lat="45.8897" lon="3.04341">
        <ele>530.6</ele>
        <time>2018-07-01T09:20:20Z</time>
      </trkpt>
      <trkpt lat="45.88968" lon="3.04339">
        <ele>530.4</ele>
        <time>2018-07-01T09:20:22Z</time>
      </trkpt>
      <trkpt lat="45.88965" lon="3.04337">
        <ele>529.7</ele>
        <time>2018-07-01T09:20:25Z</time>
      </trkpt>
      <trkpt lat="45.88962" lon="3.04334">
        <ele>528.7</ele>
        <time>2018-07-01T09:20:28Z</time>
      </trkpt>
      <trkpt lat="45.88959" lon="3.04332">
        <ele>527.9</ele>
        <time>2018-07-01T09:20:31Z</time>
      </trkpt>
      <trkpt lat="45.88956" lon="3.04329">
        <ele>527.5</ele>
        <time>2018-07-01T09:20:34Z</time>
      </trkpt>
      <trkpt lat="45.8895" lon="3.0432">
        <ele>527.2</ele>
        <time>2018-07-01T09:20:41Z</time>
      </trkpt>
      <trkpt lat="45.88948" lon="3.04317">
        <ele>526.9</ele>
        <time>2018-07-01T09:20:44Z</time>
      </trkpt>
      <trkpt lat="45.88942" lon="3.04311">
        <ele>525.9</ele>
        <time>2018-07-01T09:20:50Z</time>
      </trkpt>
      <trkpt lat="45.88938" lon="3.04307">
        <ele>525.2</ele>
        <time>2018-07-01T09:20:54Z</time>
      </trkpt>
      <trkpt lat="45.88937" lon="3.04305">
        <ele>525</ele>
        <time>2018-07-01T09:20:56Z</time>
      </trkpt>
      <trkpt lat="45.88934" lon="3.04301">
        <ele>524.8</ele>
        <time>2018-07-01T09:20:59Z</time>
      </trkpt>
      <trkpt lat="45.88932" lon="3.04296">
        <ele>524.9</ele>
        <time>2018-07-01T09:21:03Z</time>
      </trkpt>
      <trkpt lat="45.88931" lon="3.04294">
        <ele>524.9</ele>
        <time>2018-07-01T09:21:05Z</time>
      </trkpt>
      <trkpt lat="45.8893" lon="3.04293">
        <ele>524.7</ele>
        <time>2018-07-01T09:21:06Z</time>
      </trkpt>
      <trkpt lat="45.88929" lon="3.04292">
        <ele>524.5</ele>
        <time>2018-07-01T09:21:07Z</time>
      </trkpt>
      <trkpt lat="45.88928" lon="3.04292">
        <ele>524.1</ele>
        <time>2018-07-01T09:21:08Z</time>
      </trkpt>
      <trkpt lat="45.88928" lon="3.04293">
        <ele>523.8</ele>
        <time>2018-07-01T09:21:09Z</time>
      </trkpt>
      <trkpt lat="45.88927" lon="3.04293">
        <ele>523.4</ele>
        <time>2018-07-01T09:21:10Z</time>
      </trkpt>
      <trkpt lat="45.88927" lon="3.04295">
        <ele>523</ele>
        <time>2018-07-01T09:21:11Z</time>
      </trkpt>
      <trkpt lat="45.88927" lon="3.04297">
        <ele>522.5</ele>
        <time>2018-07-01T09:21:13Z</time>
      </trkpt>
      <trkpt lat="45.88927" lon="3.04299">
        <ele>522.4</ele>
        <time>2018-07-01T09:21:14Z</time>
      </trkpt>
      <trkpt lat="45.88929" lon="3.04301">
        <ele>522.4</ele>
        <time>2018-07-01T09:21:16Z</time>
      </trkpt>
      <trkpt lat="45.88931" lon="3.04305">
        <ele>522.9</ele>
        <time>2018-07-01T09:21:19Z</time>
      </trkpt>
      <trkpt lat="45.88934" lon="3.04308">
        <ele>523.1</ele>
        <time>2018-07-01T09:21:22Z</time>
      </trkpt>
      <trkpt lat="45.88939" lon="3.04318">
        <ele>523</ele>
        <time>2018-07-01T09:21:29Z</time>
      </trkpt>
      <trkpt lat="45.88941" lon="3.04321">
        <ele>523.2</ele>
        <time>2018-07-01T09:21:32Z</time>
      </trkpt>
      <trkpt lat="45.88949" lon="3.04333">
        <ele>523.9</ele>
        <time>2018-07-01T09:21:42Z</time>
      </trkpt>
      <trkpt lat="45.88951" lon="3.04337">
        <ele>524.2</ele>
        <time>2018-07-01T09:21:46Z</time>
      </trkpt>
      <trkpt lat="45.88953" lon="3.0434">
        <ele>524.2</ele>
        <time>2018-07-01T09:21:49Z</time>
      </trkpt>
      <trkpt lat="45.88954" lon="3.04343">
        <ele>524.2</ele>
        <time>2018-07-01T09:21:58Z</time>
      </trkpt>
      <trkpt lat="45.88956" lon="3.04349">
        <ele>523.9</ele>
        <time>2018-07-01T09:22:02Z</time>
      </trkpt>
      <trkpt lat="45.88957" lon="3.04352">
        <ele>523.7</ele>
        <time>2018-07-01T09:22:04Z</time>
      </trkpt>
      <trkpt lat="45.88957" lon="3.04355">
        <ele>523.2</ele>
        <time>2018-07-01T09:22:06Z</time>
      </trkpt>
      <trkpt lat="45.88957" lon="3.0436">
        <ele>522.4</ele>
        <time>2018-07-01T09:22:09Z</time>
      </trkpt>
      <trkpt lat="45.88956" lon="3.04366">
        <ele>521</ele>
        <time>2018-07-01T09:22:13Z</time>
      </trkpt>
      <trkpt lat="45.88956" lon="3.04368">
        <ele>520.4</ele>
        <time>2018-07-01T09:22:15Z</time>
      </trkpt>
      <trkpt lat="45.88956" lon="3.04372">
        <ele>519.9</ele>
        <time>2018-07-01T09:22:17Z</time>
      </trkpt>
      <trkpt lat="45.88957" lon="3.04377">
        <ele>519.4</ele>
        <time>2018-07-01T09:22:20Z</time>
      </trkpt>
      <trkpt lat="45.88961" lon="3.04388">
        <ele>518.7</ele>
        <time>2018-07-01T09:22:28Z</time>
      </trkpt>
      <trkpt lat="45.88962" lon="3.04391">
        <ele>518.5</ele>
        <time>2018-07-01T09:22:30Z</time>
      </trkpt>
      <trkpt lat="45.88967" lon="3.04401">
        <ele>518.4</ele>
        <time>2018-07-01T09:22:36Z</time>
      </trkpt>
      <trkpt lat="45.88969" lon="3.04407">
        <ele>518.1</ele>
        <time>2018-07-01T09:22:40Z</time>
      </trkpt>
      <trkpt lat="45.8897" lon="3.04412">
        <ele>517.6</ele>
        <time>2018-07-01T09:22:44Z</time>
      </trkpt>
      <trkpt lat="45.88973" lon="3.04418">
        <ele>517.2</ele>
        <time>2018-07-01T09:22:49Z</time>
      </trkpt>
      <trkpt lat="45.88976" lon="3.04426">
        <ele>516.7</ele>
        <time>2018-07-01T09:22:55Z</time>
      </trkpt>
      <trkpt lat="45.89005" lon="3.04478">
        <ele>513.4</ele>
        <time>2018-07-01T09:23:31Z</time>
      </trkpt>
      <trkpt lat="45.89009" lon="3.04488">
        <ele>512.4</ele>
        <time>2018-07-01T09:23:38Z</time>
      </trkpt>
      <trkpt lat="45.89013" lon="3.04496">
        <ele>511.4</ele>
        <time>2018-07-01T09:23:43Z</time>
      </trkpt>
      <trkpt lat="45.89017" lon="3.04509">
        <ele>509.9</ele>
        <time>2018-07-01T09:23:50Z</time>
      </trkpt>
      <trkpt lat="45.89019" lon="3.04512">
        <ele>509.6</ele>
        <time>2018-07-01T09:23:52Z</time>
      </trkpt>
      <trkpt lat="45.8902" lon="3.04515">
        <ele>509.3</ele>
        <time>2018-07-01T09:23:54Z</time>
      </trkpt>
      <trkpt lat="45.89026" lon="3.04525">
        <ele>508.7</ele>
        <time>2018-07-01T09:24:02Z</time>
      </trkpt>
      <trkpt lat="45.89031" lon="3.04532">
        <ele>508</ele>
        <time>2018-07-01T09:24:07Z</time>
      </trkpt>
      <trkpt lat="45.89033" lon="3.04537">
        <ele>507.4</ele>
        <time>2018-07-01T09:24:10Z</time>
      </trkpt>
      <trkpt lat="45.89036" lon="3.04543">
        <ele>506.7</ele>
        <time>2018-07-01T09:24:14Z</time>
      </trkpt>
      <trkpt lat="45.8904" lon="3.04549">
        <ele>506.2</ele>
        <time>2018-07-01T09:24:18Z</time>
      </trkpt>
      <trkpt lat="45.89042" lon="3.04552">
        <ele>505.9</ele>
        <time>2018-07-01T09:24:21Z</time>
      </trkpt>
      <trkpt lat="45.89045" lon="3.04555">
        <ele>505.6</ele>
        <time>2018-07-01T09:24:24Z</time>
      </trkpt>
      <trkpt lat="45.89049" lon="3.04559">
        <ele>505.5</ele>
        <time>2018-07-01T09:24:28Z</time>
      </trkpt>
      <trkpt lat="45.89055" lon="3.04564">
        <ele>505.3</ele>
        <time>2018-07-01T09:24:34Z</time>
      </trkpt>
      <trkpt lat="45.89058" lon="3.04567">
        <ele>505.1</ele>
        <time>2018-07-01T09:24:37Z</time>
      </trkpt>
      <trkpt lat="45.8906" lon="3.04569">
        <ele>505</ele>
        <time>2018-07-01T09:24:39Z</time>
      </trkpt>
      <trkpt lat="45.89064" lon="3.04574">
        <ele>504.2</ele>
        <time>2018-07-01T09:24:45Z</time>
      </trkpt>
      <trkpt lat="45.89067" lon="3.04577">
        <ele>504</ele>
        <time>2018-07-01T09:24:48Z</time>
      </trkpt>
      <trkpt lat="45.89069" lon="3.04579">
        <ele>503.9</ele>
        <time>2018-07-01T09:24:50Z</time>
      </trkpt>
      <trkpt lat="45.8908" lon="3.04589">
        <ele>503.2</ele>
        <time>2018-07-01T09:25:01Z</time>
      </trkpt>
      <trkpt lat="45.89083" lon="3.0459">
        <ele>503.3</ele>
        <time>2018-07-01T09:25:03Z</time>
      </trkpt>
      <trkpt lat="45.89089" lon="3.04593">
        <ele>503.2</ele>
        <time>2018-07-01T09:25:08Z</time>
      </trkpt>
      <trkpt lat="45.89092" lon="3.04595">
        <ele>503</ele>
        <time>2018-07-01T09:25:11Z</time>
      </trkpt>
      <trkpt lat="45.89094" lon="3.04597">
        <ele>502.7</ele>
        <time>2018-07-01T09:25:13Z</time>
      </trkpt>
      <trkpt lat="45.89107" lon="3.0461">
        <ele>500.3</ele>
        <time>2018-07-01T09:25:27Z</time>
      </trkpt>
      <trkpt lat="45.89114" lon="3.04618">
        <ele>498.8</ele>
        <time>2018-07-01T09:25:35Z</time>
      </trkpt>
      <trkpt lat="45.89116" lon="3.0462">
        <ele>498.4</ele>
        <time>2018-07-01T09:25:38Z</time>
      </trkpt>
      <trkpt lat="45.89119" lon="3.04622">
        <ele>498.1</ele>
        <time>2018-07-01T09:25:41Z</time>
      </trkpt>
      <trkpt lat="45.89121" lon="3.04623">
        <ele>498</ele>
        <time>2018-07-01T09:25:43Z</time>
      </trkpt>
      <trkpt lat="45.89125" lon="3.04626">
        <ele>497.6</ele>
        <time>2018-07-01T09:25:47Z</time>
      </trkpt>
      <trkpt lat="45.89133" lon="3.04633">
        <ele>496.3</ele>
        <time>2018-07-01T09:25:54Z</time>
      </trkpt>
      <trkpt lat="45.89137" lon="3.04635">
        <ele>495.9</ele>
        <time>2018-07-01T09:25:57Z</time>
      </trkpt>
      <trkpt lat="45.89143" lon="3.04639">
        <ele>495.3</ele>
        <time>2018-07-01T09:26:05Z</time>
      </trkpt>
      <trkpt lat="45.89149" lon="3.0464">
        <ele>495.1</ele>
        <time>2018-07-01T09:26:09Z</time>
      </trkpt>
      <trkpt lat="45.8915" lon="3.0464">
        <ele>495.2</ele>
        <time>2018-07-01T09:26:11Z</time>
      </trkpt>
      <trkpt lat="45.89156" lon="3.04642">
        <ele>495.1</ele>
        <time>2018-07-01T09:26:18Z</time>
      </trkpt>
      <trkpt lat="45.8916" lon="3.04642">
        <ele>495.1</ele>
        <time>2018-07-01T09:26:21Z</time>
      </trkpt>
      <trkpt lat="45.89164" lon="3.04642">
        <ele>495.3</ele>
        <time>2018-07-01T09:26:24Z</time>
      </trkpt>
      <trkpt lat="45.89167" lon="3.04642">
        <ele>495.6</ele>
        <time>2018-07-01T09:26:27Z</time>
      </trkpt>
      <trkpt lat="45.89169" lon="3.04641">
        <ele>495.8</ele>
        <time>2018-07-01T09:26:29Z</time>
      </trkpt>
      <trkpt lat="45.89183" lon="3.04631">
        <ele>498</ele>
        <time>2018-07-01T09:26:40Z</time>
      </trkpt>
      <trkpt lat="45.89187" lon="3.04627">
        <ele>498.8</ele>
        <time>2018-07-01T09:26:45Z</time>
      </trkpt>
      <trkpt lat="45.89187" lon="3.04626">
        <ele>499.1</ele>
        <time>2018-07-01T09:26:46Z</time>
      </trkpt>
      <trkpt lat="45.8919" lon="3.04623">
        <ele>499.8</ele>
        <time>2018-07-01T09:26:49Z</time>
      </trkpt>
      <trkpt lat="45.89196" lon="3.04618">
        <ele>500.6</ele>
        <time>2018-07-01T09:26:53Z</time>
      </trkpt>
      <trkpt lat="45.892" lon="3.04615">
        <ele>501.3</ele>
        <time>2018-07-01T09:26:56Z</time>
      </trkpt>
      <trkpt lat="45.89203" lon="3.04612">
        <ele>502</ele>
        <time>2018-07-01T09:26:59Z</time>
      </trkpt>
      <trkpt lat="45.89206" lon="3.04609">
        <ele>502.6</ele>
        <time>2018-07-01T09:27:02Z</time>
      </trkpt>
      <trkpt lat="45.89208" lon="3.04608">
        <ele>502.8</ele>
        <time>2018-07-01T09:27:04Z</time>
      </trkpt>
      <trkpt lat="45.89217" lon="3.04605">
        <ele>503.1</ele>
        <time>2018-07-01T09:27:12Z</time>
      </trkpt>
      <trkpt lat="45.8922" lon="3.04604">
        <ele>503.3</ele>
        <time>2018-07-01T09:27:14Z</time>
      </trkpt>
      <trkpt lat="45.89223" lon="3.04602">
        <ele>503.7</ele>
        <time>2018-07-01T09:27:17Z</time>
      </trkpt>
      <trkpt lat="45.89225" lon="3.04601">
        <ele>503.9</ele>
        <time>2018-07-01T09:27:19Z</time>
      </trkpt>
      <trkpt lat="45.89226" lon="3.04599">
        <ele>504.2</ele>
        <time>2018-07-01T09:27:22Z</time>
      </trkpt>
      <trkpt lat="45.89227" lon="3.04598">
        <ele>504.4</ele>
        <time>2018-07-01T09:27:24Z</time>
      </trkpt>
      <trkpt lat="45.89228" lon="3.04596">
        <ele>504.9</ele>
        <time>2018-07-01T09:27:26Z</time>
      </trkpt>
      <trkpt lat="45.89228" lon="3.04595">
        <ele>505.2</ele>
        <time>2018-07-01T09:27:27Z</time>
      </trkpt>
      <trkpt lat="45.89229" lon="3.04594">
        <ele>505.4</ele>
        <time>2018-07-01T09:27:28Z</time>
      </trkpt>
      <trkpt lat="45.8923" lon="3.04593">
        <ele>505.5</ele>
        <time>2018-07-01T09:27:29Z</time>
      </trkpt>
      <trkpt lat="45.89233" lon="3.04593">
        <ele>505.6</ele>
        <time>2018-07-01T09:27:32Z</time>
      </trkpt>
      <trkpt lat="45.89235" lon="3.04592">
        <ele>505.7</ele>
        <time>2018-07-01T09:27:34Z</time>
      </trkpt>
      <trkpt lat="45.89239" lon="3.04589">
        <ele>506.2</ele>
        <time>2018-07-01T09:27:38Z</time>
      </trkpt>
      <trkpt lat="45.89241" lon="3.04586">
        <ele>506.7</ele>
        <time>2018-07-01T09:27:41Z</time>
      </trkpt>
      <trkpt lat="45.89244" lon="3.04583">
        <ele>507.5</ele>
        <time>2018-07-01T09:27:44Z</time>
      </trkpt>
      <trkpt lat="45.89246" lon="3.04579">
        <ele>508.3</ele>
        <time>2018-07-01T09:27:47Z</time>
      </trkpt>
      <trkpt lat="45.89252" lon="3.04564">
        <ele>512.2</ele>
        <time>2018-07-01T09:27:59Z</time>
      </trkpt>
      <trkpt lat="45.89253" lon="3.04562">
        <ele>513</ele>
        <time>2018-07-01T09:28:01Z</time>
      </trkpt>
      <trkpt lat="45.89256" lon="3.04557">
        <ele>514.9</ele>
        <time>2018-07-01T09:28:06Z</time>
      </trkpt>
      <trkpt lat="45.89261" lon="3.04551">
        <ele>516.9</ele>
        <time>2018-07-01T09:28:11Z</time>
      </trkpt>
      <trkpt lat="45.89264" lon="3.04548">
        <ele>518.2</ele>
        <time>2018-07-01T09:28:14Z</time>
      </trkpt>
      <trkpt lat="45.89266" lon="3.04546">
        <ele>519</ele>
        <time>2018-07-01T09:28:16Z</time>
      </trkpt>
      <trkpt lat="45.89268" lon="3.04545">
        <ele>519.6</ele>
        <time>2018-07-01T09:28:18Z</time>
      </trkpt>
      <trkpt lat="45.89269" lon="3.04545">
        <ele>520</ele>
        <time>2018-07-01T09:28:20Z</time>
      </trkpt>
      <trkpt lat="45.89271" lon="3.04546">
        <ele>520.1</ele>
        <time>2018-07-01T09:28:22Z</time>
      </trkpt>
      <trkpt lat="45.89272" lon="3.04547">
        <ele>520</ele>
        <time>2018-07-01T09:28:24Z</time>
      </trkpt>
      <trkpt lat="45.89273" lon="3.0455">
        <ele>519.6</ele>
        <time>2018-07-01T09:28:26Z</time>
      </trkpt>
      <trkpt lat="45.89274" lon="3.04552">
        <ele>519.1</ele>
        <time>2018-07-01T09:28:28Z</time>
      </trkpt>
      <trkpt lat="45.89274" lon="3.04554">
        <ele>518.8</ele>
        <time>2018-07-01T09:28:29Z</time>
      </trkpt>
      <trkpt lat="45.89274" lon="3.04556">
        <ele>518.1</ele>
        <time>2018-07-01T09:28:31Z</time>
      </trkpt>
      <trkpt lat="45.89271" lon="3.04567">
        <ele>515.2</ele>
        <time>2018-07-01T09:28:38Z</time>
      </trkpt>
      <trkpt lat="45.89271" lon="3.0457">
        <ele>514.4</ele>
        <time>2018-07-01T09:28:40Z</time>
      </trkpt>
      <trkpt lat="45.89271" lon="3.04575">
        <ele>513.2</ele>
        <time>2018-07-01T09:28:43Z</time>
      </trkpt>
      <trkpt lat="45.89271" lon="3.04582">
        <ele>511.6</ele>
        <time>2018-07-01T09:28:47Z</time>
      </trkpt>
      <trkpt lat="45.89271" lon="3.04591">
        <ele>509.7</ele>
        <time>2018-07-01T09:28:53Z</time>
      </trkpt>
      <trkpt lat="45.89271" lon="3.04598">
        <ele>508</ele>
        <time>2018-07-01T09:28:58Z</time>
      </trkpt>
      <trkpt lat="45.89271" lon="3.04603">
        <ele>506.7</ele>
        <time>2018-07-01T09:29:02Z</time>
      </trkpt>
      <trkpt lat="45.89271" lon="3.04604">
        <ele>506.3</ele>
        <time>2018-07-01T09:29:07Z</time>
      </trkpt>
      <trkpt lat="45.89274" lon="3.04611">
        <ele>505.6</ele>
        <time>2018-07-01T09:29:16Z</time>
      </trkpt>
      <trkpt lat="45.89282" lon="3.04622">
        <ele>504.6</ele>
        <time>2018-07-01T09:29:25Z</time>
      </trkpt>
      <trkpt lat="45.89288" lon="3.04629">
        <ele>504.2</ele>
        <time>2018-07-01T09:29:31Z</time>
      </trkpt>
      <trkpt lat="45.89293" lon="3.04635">
        <ele>504.1</ele>
        <time>2018-07-01T09:29:37Z</time>
      </trkpt>
      <trkpt lat="45.89297" lon="3.0464">
        <ele>503.9</ele>
        <time>2018-07-01T09:29:41Z</time>
      </trkpt>
      <trkpt lat="45.89301" lon="3.04645">
        <ele>503.5</ele>
        <time>2018-07-01T09:29:46Z</time>
      </trkpt>
      <trkpt lat="45.89303" lon="3.04648">
        <ele>503.3</ele>
        <time>2018-07-01T09:29:48Z</time>
      </trkpt>
      <trkpt lat="45.89306" lon="3.04654">
        <ele>502.6</ele>
        <time>2018-07-01T09:29:52Z</time>
      </trkpt>
      <trkpt lat="45.89307" lon="3.04657">
        <ele>502.2</ele>
        <time>2018-07-01T09:29:54Z</time>
      </trkpt>
      <trkpt lat="45.8931" lon="3.04668">
        <ele>500.5</ele>
        <time>2018-07-01T09:30:01Z</time>
      </trkpt>
      <trkpt lat="45.89311" lon="3.04671">
        <ele>500.2</ele>
        <time>2018-07-01T09:30:03Z</time>
      </trkpt>
      <trkpt lat="45.89313" lon="3.04673">
        <ele>500</ele>
        <time>2018-07-01T09:30:05Z</time>
      </trkpt>
      <trkpt lat="45.89315" lon="3.04676">
        <ele>500.1</ele>
        <time>2018-07-01T09:30:07Z</time>
      </trkpt>
      <trkpt lat="45.89321" lon="3.04681">
        <ele>500.3</ele>
        <time>2018-07-01T09:30:13Z</time>
      </trkpt>
      <trkpt lat="45.89324" lon="3.04684">
        <ele>500.3</ele>
        <time>2018-07-01T09:30:16Z</time>
      </trkpt>
      <trkpt lat="45.89328" lon="3.04691">
        <ele>499.6</ele>
        <time>2018-07-01T09:30:23Z</time>
      </trkpt>
      <trkpt lat="45.89329" lon="3.04693">
        <ele>499.5</ele>
        <time>2018-07-01T09:30:25Z</time>
      </trkpt>
      <trkpt lat="45.8933" lon="3.04694">
        <ele>499.4</ele>
        <time>2018-07-01T09:30:26Z</time>
      </trkpt>
      <trkpt lat="45.89331" lon="3.04695">
        <ele>499.5</ele>
        <time>2018-07-01T09:30:27Z</time>
      </trkpt>
      <trkpt lat="45.89335" lon="3.04696">
        <ele>499.8</ele>
        <time>2018-07-01T09:30:29Z</time>
      </trkpt>
      <trkpt lat="45.89344" lon="3.04699">
        <ele>500.4</ele>
        <time>2018-07-01T09:30:34Z</time>
      </trkpt>
      <trkpt lat="45.89347" lon="3.047">
        <ele>500.5</ele>
        <time>2018-07-01T09:30:37Z</time>
      </trkpt>
      <trkpt lat="45.89357" lon="3.04705">
        <ele>500.5</ele>
        <time>2018-07-01T09:30:46Z</time>
      </trkpt>
      <trkpt lat="45.89381" lon="3.04717">
        <ele>500.3</ele>
        <time>2018-07-01T09:31:05Z</time>
      </trkpt>
      <trkpt lat="45.89387" lon="3.04721">
        <ele>500</ele>
        <time>2018-07-01T09:31:10Z</time>
      </trkpt>
      <trkpt lat="45.89391" lon="3.04722">
        <ele>500</ele>
        <time>2018-07-01T09:31:16Z</time>
      </trkpt>
      <trkpt lat="45.89392" lon="3.04722">
        <ele>500.1</ele>
        <time>2018-07-01T09:31:17Z</time>
      </trkpt>
      <trkpt lat="45.89395" lon="3.04722">
        <ele>500.5</ele>
        <time>2018-07-01T09:31:20Z</time>
      </trkpt>
      <trkpt lat="45.89399" lon="3.04721">
        <ele>501.2</ele>
        <time>2018-07-01T09:31:23Z</time>
      </trkpt>
      <trkpt lat="45.89403" lon="3.04719">
        <ele>502.2</ele>
        <time>2018-07-01T09:31:27Z</time>
      </trkpt>
      <trkpt lat="45.89409" lon="3.04714">
        <ele>504.1</ele>
        <time>2018-07-01T09:31:33Z</time>
      </trkpt>
      <trkpt lat="45.89411" lon="3.04712">
        <ele>504.8</ele>
        <time>2018-07-01T09:31:35Z</time>
      </trkpt>
      <trkpt lat="45.89414" lon="3.04709">
        <ele>506.1</ele>
        <time>2018-07-01T09:31:38Z</time>
      </trkpt>
      <trkpt lat="45.89415" lon="3.04707">
        <ele>506.6</ele>
        <time>2018-07-01T09:31:40Z</time>
      </trkpt>
      <trkpt lat="45.89415" lon="3.04707">
        <ele>506.6</ele>
        <time>2018-07-01T09:31:42Z</time>
      </trkpt>
      <trkpt lat="45.89422" lon="3.04699">
        <ele>509.3</ele>
        <time>2018-07-01T09:31:48Z</time>
      </trkpt>
      <trkpt lat="45.89426" lon="3.04693">
        <ele>511.1</ele>
        <time>2018-07-01T09:31:52Z</time>
      </trkpt>
      <trkpt lat="45.8943" lon="3.0469">
        <ele>512.2</ele>
        <time>2018-07-01T09:31:55Z</time>
      </trkpt>
      <trkpt lat="45.89436" lon="3.04683">
        <ele>514.2</ele>
        <time>2018-07-01T09:32:02Z</time>
      </trkpt>
      <trkpt lat="45.89439" lon="3.04681">
        <ele>514.9</ele>
        <time>2018-07-01T09:32:05Z</time>
      </trkpt>
      <trkpt lat="45.89441" lon="3.0468">
        <ele>515.3</ele>
        <time>2018-07-01T09:32:07Z</time>
      </trkpt>
      <trkpt lat="45.89444" lon="3.04679">
        <ele>515.5</ele>
        <time>2018-07-01T09:32:09Z</time>
      </trkpt>
      <trkpt lat="45.89446" lon="3.04679">
        <ele>515.7</ele>
        <time>2018-07-01T09:32:11Z</time>
      </trkpt>
      <trkpt lat="45.89448" lon="3.04679">
        <ele>515.8</ele>
        <time>2018-07-01T09:32:13Z</time>
      </trkpt>
      <trkpt lat="45.89451" lon="3.0468">
        <ele>515.7</ele>
        <time>2018-07-01T09:32:15Z</time>
      </trkpt>
      <trkpt lat="45.89454" lon="3.04681">
        <ele>515.4</ele>
        <time>2018-07-01T09:32:18Z</time>
      </trkpt>
      <trkpt lat="45.89456" lon="3.04683">
        <ele>515</ele>
        <time>2018-07-01T09:32:20Z</time>
      </trkpt>
      <trkpt lat="45.89458" lon="3.04686">
        <ele>514.4</ele>
        <time>2018-07-01T09:32:23Z</time>
      </trkpt>
      <trkpt lat="45.8946" lon="3.04688">
        <ele>513.7</ele>
        <time>2018-07-01T09:32:26Z</time>
      </trkpt>
      <trkpt lat="45.89461" lon="3.04691">
        <ele>512.9</ele>
        <time>2018-07-01T09:32:30Z</time>
      </trkpt>
      <trkpt lat="45.89462" lon="3.04693">
        <ele>512.6</ele>
        <time>2018-07-01T09:32:33Z</time>
      </trkpt>
      <trkpt lat="45.89463" lon="3.04693">
        <ele>512.6</ele>
        <time>2018-07-01T09:32:35Z</time>
      </trkpt>
      <trkpt lat="45.89464" lon="3.04693">
        <ele>512.6</ele>
        <time>2018-07-01T09:32:38Z</time>
      </trkpt>
      <trkpt lat="45.89466" lon="3.04692">
        <ele>513</ele>
        <time>2018-07-01T09:32:42Z</time>
      </trkpt>
      <trkpt lat="45.89468" lon="3.0469">
        <ele>513.5</ele>
        <time>2018-07-01T09:32:47Z</time>
      </trkpt>
      <trkpt lat="45.89468" lon="3.04691">
        <ele>513.3</ele>
        <time>2018-07-01T09:32:49Z</time>
      </trkpt>
      <trkpt lat="45.89468" lon="3.04691">
        <ele>513.2</ele>
        <time>2018-07-01T09:32:50Z</time>
      </trkpt>
      <trkpt lat="45.89469" lon="3.04693">
        <ele>512.8</ele>
        <time>2018-07-01T09:32:52Z</time>
      </trkpt>
      <trkpt lat="45.89468" lon="3.04699">
        <ele>511.2</ele>
        <time>2018-07-01T09:33:02Z</time>
      </trkpt>
      <trkpt lat="45.89468" lon="3.04699">
        <ele>511.2</ele>
        <time>2018-07-01T09:33:39Z</time>
      </trkpt>
      <trkpt lat="45.89469" lon="3.04701">
        <ele>510.7</ele>
        <time>2018-07-01T09:34:07Z</time>
      </trkpt>
      <trkpt lat="45.89471" lon="3.04704">
        <ele>509.9</ele>
        <time>2018-07-01T09:34:09Z</time>
      </trkpt>
      <trkpt lat="45.89472" lon="3.04707">
        <ele>509.3</ele>
        <time>2018-07-01T09:34:11Z</time>
      </trkpt>
      <trkpt lat="45.89475" lon="3.04709">
        <ele>508.9</ele>
        <time>2018-07-01T09:34:13Z</time>
      </trkpt>
      <trkpt lat="45.89478" lon="3.04711">
        <ele>508.4</ele>
        <time>2018-07-01T09:34:16Z</time>
      </trkpt>
      <trkpt lat="45.89481" lon="3.04712">
        <ele>508.1</ele>
        <time>2018-07-01T09:34:19Z</time>
      </trkpt>
      <trkpt lat="45.89488" lon="3.04715">
        <ele>507.8</ele>
        <time>2018-07-01T09:34:24Z</time>
      </trkpt>
      <trkpt lat="45.89499" lon="3.0472">
        <ele>507</ele>
        <time>2018-07-01T09:34:32Z</time>
      </trkpt>
      <trkpt lat="45.89523" lon="3.04729">
        <ele>506.3</ele>
        <time>2018-07-01T09:34:52Z</time>
      </trkpt>
      <trkpt lat="45.89556" lon="3.04745">
        <ele>504.1</ele>
        <time>2018-07-01T09:35:18Z</time>
      </trkpt>
      <trkpt lat="45.89564" lon="3.04747">
        <ele>503.8</ele>
        <time>2018-07-01T09:35:23Z</time>
      </trkpt>
      <trkpt lat="45.89568" lon="3.04749">
        <ele>503.5</ele>
        <time>2018-07-01T09:35:26Z</time>
      </trkpt>
      <trkpt lat="45.89574" lon="3.04753">
        <ele>502.4</ele>
        <time>2018-07-01T09:35:34Z</time>
      </trkpt>
      <trkpt lat="45.89584" lon="3.04762">
        <ele>500.2</ele>
        <time>2018-07-01T09:35:43Z</time>
      </trkpt>
      <trkpt lat="45.89591" lon="3.04767">
        <ele>498.6</ele>
        <time>2018-07-01T09:35:49Z</time>
      </trkpt>
      <trkpt lat="45.89601" lon="3.04774">
        <ele>496.8</ele>
        <time>2018-07-01T09:35:58Z</time>
      </trkpt>
      <trkpt lat="45.89603" lon="3.04775">
        <ele>496.3</ele>
        <time>2018-07-01T09:36:00Z</time>
      </trkpt>
      <trkpt lat="45.89608" lon="3.04782">
        <ele>494.4</ele>
        <time>2018-07-01T09:36:06Z</time>
      </trkpt>
      <trkpt lat="45.89611" lon="3.04784">
        <ele>493.7</ele>
        <time>2018-07-01T09:36:08Z</time>
      </trkpt>
      <trkpt lat="45.89615" lon="3.04787">
        <ele>492.6</ele>
        <time>2018-07-01T09:36:12Z</time>
      </trkpt>
      <trkpt lat="45.89622" lon="3.04791">
        <ele>491.3</ele>
        <time>2018-07-01T09:36:18Z</time>
      </trkpt>
      <trkpt lat="45.8963" lon="3.04797">
        <ele>489.6</ele>
        <time>2018-07-01T09:36:25Z</time>
      </trkpt>
      <trkpt lat="45.8964" lon="3.04805">
        <ele>487.2</ele>
        <time>2018-07-01T09:36:33Z</time>
      </trkpt>
      <trkpt lat="45.89645" lon="3.04809">
        <ele>485.9</ele>
        <time>2018-07-01T09:36:38Z</time>
      </trkpt>
      <trkpt lat="45.89649" lon="3.04811">
        <ele>485.1</ele>
        <time>2018-07-01T09:36:42Z</time>
      </trkpt>
      <trkpt lat="45.89651" lon="3.04813">
        <ele>484.7</ele>
        <time>2018-07-01T09:36:44Z</time>
      </trkpt>
      <trkpt lat="45.89653" lon="3.04814">
        <ele>484.2</ele>
        <time>2018-07-01T09:36:46Z</time>
      </trkpt>
      <trkpt lat="45.89654" lon="3.04816">
        <ele>483.6</ele>
        <time>2018-07-01T09:36:48Z</time>
      </trkpt>
      <trkpt lat="45.89656" lon="3.04818">
        <ele>483</ele>
        <time>2018-07-01T09:36:50Z</time>
      </trkpt>
      <trkpt lat="45.89659" lon="3.04819">
        <ele>482.5</ele>
        <time>2018-07-01T09:36:52Z</time>
      </trkpt>
      <trkpt lat="45.89662" lon="3.0482">
        <ele>482.3</ele>
        <time>2018-07-01T09:36:54Z</time>
      </trkpt>
      <trkpt lat="45.89665" lon="3.04821">
        <ele>482.1</ele>
        <time>2018-07-01T09:36:56Z</time>
      </trkpt>
      <trkpt lat="45.8967" lon="3.04821">
        <ele>481.1</ele>
        <time>2018-07-01T09:36:59Z</time>
      </trkpt>
      <trkpt lat="45.89673" lon="3.04821">
        <ele>480.3</ele>
        <time>2018-07-01T09:37:01Z</time>
      </trkpt>
      <trkpt lat="45.89678" lon="3.0482">
        <ele>479.4</ele>
        <time>2018-07-01T09:37:04Z</time>
      </trkpt>
      <trkpt lat="45.89684" lon="3.04817">
        <ele>478.8</ele>
        <time>2018-07-01T09:37:09Z</time>
      </trkpt>
      <trkpt lat="45.89689" lon="3.04815">
        <ele>478.1</ele>
        <time>2018-07-01T09:37:19Z</time>
      </trkpt>
      <trkpt lat="45.89694" lon="3.04813">
        <ele>477.3</ele>
        <time>2018-07-01T09:37:25Z</time>
      </trkpt>
      <trkpt lat="45.89701" lon="3.04809">
        <ele>476.5</ele>
        <time>2018-07-01T09:37:30Z</time>
      </trkpt>
      <trkpt lat="45.89706" lon="3.04807">
        <ele>476.1</ele>
        <time>2018-07-01T09:37:33Z</time>
      </trkpt>
      <trkpt lat="45.89713" lon="3.04802">
        <ele>475.7</ele>
        <time>2018-07-01T09:37:38Z</time>
      </trkpt>
      <trkpt lat="45.89725" lon="3.04795">
        <ele>475.2</ele>
        <time>2018-07-01T09:37:48Z</time>
      </trkpt>
      <trkpt lat="45.89732" lon="3.04791">
        <ele>474.5</ele>
        <time>2018-07-01T09:37:54Z</time>
      </trkpt>
      <trkpt lat="45.89741" lon="3.04788">
        <ele>473</ele>
        <time>2018-07-01T09:38:02Z</time>
      </trkpt>
      <trkpt lat="45.89743" lon="3.04787">
        <ele>472.7</ele>
        <time>2018-07-01T09:38:04Z</time>
      </trkpt>
      <trkpt lat="45.8976" lon="3.04779">
        <ele>470.8</ele>
        <time>2018-07-01T09:38:19Z</time>
      </trkpt>
      <trkpt lat="45.89763" lon="3.04777">
        <ele>470.3</ele>
        <time>2018-07-01T09:38:22Z</time>
      </trkpt>
      <trkpt lat="45.89771" lon="3.04771">
        <ele>469.3</ele>
        <time>2018-07-01T09:38:30Z</time>
      </trkpt>
      <trkpt lat="45.89773" lon="3.04769">
        <ele>468.9</ele>
        <time>2018-07-01T09:38:32Z</time>
      </trkpt>
      <trkpt lat="45.89776" lon="3.04768">
        <ele>468.1</ele>
        <time>2018-07-01T09:38:35Z</time>
      </trkpt>
      <trkpt lat="45.89782" lon="3.04767">
        <ele>466.5</ele>
        <time>2018-07-01T09:38:40Z</time>
      </trkpt>
      <trkpt lat="45.89786" lon="3.04765">
        <ele>465.3</ele>
        <time>2018-07-01T09:38:44Z</time>
      </trkpt>
      <trkpt lat="45.89792" lon="3.04762">
        <ele>463.9</ele>
        <time>2018-07-01T09:38:50Z</time>
      </trkpt>
      <trkpt lat="45.89797" lon="3.04759">
        <ele>462.5</ele>
        <time>2018-07-01T09:38:56Z</time>
      </trkpt>
      <trkpt lat="45.898" lon="3.04758">
        <ele>461.7</ele>
        <time>2018-07-01T09:38:59Z</time>
      </trkpt>
      <trkpt lat="45.89812" lon="3.04754">
        <ele>458.1</ele>
        <time>2018-07-01T09:39:12Z</time>
      </trkpt>
      <trkpt lat="45.89819" lon="3.0475">
        <ele>456.1</ele>
        <time>2018-07-01T09:39:33Z</time>
      </trkpt>
      <trkpt lat="45.89818" lon="3.0475">
        <ele>456.2</ele>
        <time>2018-07-01T09:39:42Z</time>
      </trkpt>
      <trkpt lat="45.89819" lon="3.04748">
        <ele>456.4</ele>
        <time>2018-07-01T09:39:59Z</time>
      </trkpt>
      <trkpt lat="45.8982" lon="3.04747">
        <ele>456.2</ele>
        <time>2018-07-01T09:40:03Z</time>
      </trkpt>
      <trkpt lat="45.89822" lon="3.04745">
        <ele>455.8</ele>
        <time>2018-07-01T09:40:05Z</time>
      </trkpt>
      <trkpt lat="45.89825" lon="3.04744">
        <ele>455</ele>
        <time>2018-07-01T09:40:08Z</time>
      </trkpt>
      <trkpt lat="45.89828" lon="3.04743">
        <ele>453.9</ele>
        <time>2018-07-01T09:40:11Z</time>
      </trkpt>
      <trkpt lat="45.8983" lon="3.04742">
        <ele>453.2</ele>
        <time>2018-07-01T09:40:13Z</time>
      </trkpt>
      <trkpt lat="45.89837" lon="3.04742">
        <ele>451.8</ele>
        <time>2018-07-01T09:40:19Z</time>
      </trkpt>
      <trkpt lat="45.89838" lon="3.04742">
        <ele>451.8</ele>
        <time>2018-07-01T09:40:20Z</time>
      </trkpt>
      <trkpt lat="45.8984" lon="3.04741">
        <ele>452</ele>
        <time>2018-07-01T09:40:22Z</time>
      </trkpt>
      <trkpt lat="45.89842" lon="3.0474">
        <ele>452.3</ele>
        <time>2018-07-01T09:40:24Z</time>
      </trkpt>
      <trkpt lat="45.89845" lon="3.04734">
        <ele>453.4</ele>
        <time>2018-07-01T09:40:29Z</time>
      </trkpt>
      <trkpt lat="45.89845" lon="3.04734">
        <ele>453.5</ele>
        <time>2018-07-01T09:40:31Z</time>
      </trkpt>
      <trkpt lat="45.89853" lon="3.04721">
        <ele>456.1</ele>
        <time>2018-07-01T09:40:42Z</time>
      </trkpt>
      <trkpt lat="45.89856" lon="3.04716">
        <ele>457</ele>
        <time>2018-07-01T09:40:45Z</time>
      </trkpt>
      <trkpt lat="45.89857" lon="3.04713">
        <ele>457.7</ele>
        <time>2018-07-01T09:40:47Z</time>
      </trkpt>
      <trkpt lat="45.8986" lon="3.04705">
        <ele>459.3</ele>
        <time>2018-07-01T09:40:52Z</time>
      </trkpt>
      <trkpt lat="45.8986" lon="3.04702">
        <ele>460</ele>
        <time>2018-07-01T09:40:54Z</time>
      </trkpt>
      <trkpt lat="45.8986" lon="3.04698">
        <ele>460.8</ele>
        <time>2018-07-01T09:40:56Z</time>
      </trkpt>
      <trkpt lat="45.8986" lon="3.04695">
        <ele>461.6</ele>
        <time>2018-07-01T09:40:58Z</time>
      </trkpt>
      <trkpt lat="45.89857" lon="3.04679">
        <ele>465.2</ele>
        <time>2018-07-01T09:41:07Z</time>
      </trkpt>
      <trkpt lat="45.89856" lon="3.04675">
        <ele>466.4</ele>
        <time>2018-07-01T09:41:10Z</time>
      </trkpt>
      <trkpt lat="45.89856" lon="3.04674">
        <ele>466.6</ele>
        <time>2018-07-01T09:41:12Z</time>
      </trkpt>
      <trkpt lat="45.89856" lon="3.04674">
        <ele>466.4</ele>
        <time>2018-07-01T09:41:14Z</time>
      </trkpt>
      <trkpt lat="45.89858" lon="3.0468">
        <ele>465</ele>
        <time>2018-07-01T09:41:19Z</time>
      </trkpt>
      <trkpt lat="45.89859" lon="3.04687">
        <ele>463.4</ele>
        <time>2018-07-01T09:41:23Z</time>
      </trkpt>
      <trkpt lat="45.89861" lon="3.04697">
        <ele>461</ele>
        <time>2018-07-01T09:41:29Z</time>
      </trkpt>
      <trkpt lat="45.89861" lon="3.04698">
        <ele>460.8</ele>
        <time>2018-07-01T09:41:30Z</time>
      </trkpt>
      <trkpt lat="45.89862" lon="3.047">
        <ele>460.2</ele>
        <time>2018-07-01T09:41:33Z</time>
      </trkpt>
      <trkpt lat="45.89864" lon="3.04704">
        <ele>459.2</ele>
        <time>2018-07-01T09:41:36Z</time>
      </trkpt>
      <trkpt lat="45.89865" lon="3.04706">
        <ele>458.8</ele>
        <time>2018-07-01T09:41:37Z</time>
      </trkpt>
      <trkpt lat="45.89865" lon="3.04708">
        <ele>458.4</ele>
        <time>2018-07-01T09:41:38Z</time>
      </trkpt>
      <trkpt lat="45.89866" lon="3.04712">
        <ele>457.5</ele>
        <time>2018-07-01T09:41:40Z</time>
      </trkpt>
      <trkpt lat="45.89865" lon="3.04717">
        <ele>456.5</ele>
        <time>2018-07-01T09:41:44Z</time>
      </trkpt>
      <trkpt lat="45.89865" lon="3.04717">
        <ele>456.4</ele>
        <time>2018-07-01T09:41:45Z</time>
      </trkpt>
      <trkpt lat="45.89865" lon="3.04717">
        <ele>456.4</ele>
        <time>2018-07-01T09:41:46Z</time>
      </trkpt>
      <trkpt lat="45.89869" lon="3.04715">
        <ele>456.7</ele>
        <time>2018-07-01T09:41:51Z</time>
      </trkpt>
      <trkpt lat="45.89871" lon="3.04714">
        <ele>456.9</ele>
        <time>2018-07-01T09:41:53Z</time>
      </trkpt>
      <trkpt lat="45.89873" lon="3.04713">
        <ele>456.9</ele>
        <time>2018-07-01T09:41:55Z</time>
      </trkpt>
      <trkpt lat="45.89876" lon="3.04712">
        <ele>456.9</ele>
        <time>2018-07-01T09:41:57Z</time>
      </trkpt>
      <trkpt lat="45.8988" lon="3.04713">
        <ele>456.6</ele>
        <time>2018-07-01T09:42:00Z</time>
      </trkpt>
      <trkpt lat="45.89882" lon="3.04714">
        <ele>456.2</ele>
        <time>2018-07-01T09:42:02Z</time>
      </trkpt>
      <trkpt lat="45.89883" lon="3.04715">
        <ele>455.9</ele>
        <time>2018-07-01T09:42:03Z</time>
      </trkpt>
      <trkpt lat="45.89885" lon="3.04718">
        <ele>455.4</ele>
        <time>2018-07-01T09:42:05Z</time>
      </trkpt>
      <trkpt lat="45.89886" lon="3.0472">
        <ele>454.7</ele>
        <time>2018-07-01T09:42:07Z</time>
      </trkpt>
      <trkpt lat="45.8989" lon="3.04728">
        <ele>453</ele>
        <time>2018-07-01T09:42:12Z</time>
      </trkpt>
      <trkpt lat="45.89892" lon="3.04734">
        <ele>451.7</ele>
        <time>2018-07-01T09:42:16Z</time>
      </trkpt>
      <trkpt lat="45.89893" lon="3.0474">
        <ele>450.5</ele>
        <time>2018-07-01T09:42:20Z</time>
      </trkpt>
      <trkpt lat="45.89894" lon="3.04746">
        <ele>449.4</ele>
        <time>2018-07-01T09:42:23Z</time>
      </trkpt>
      <trkpt lat="45.89895" lon="3.04752">
        <ele>448.4</ele>
        <time>2018-07-01T09:42:26Z</time>
      </trkpt>
      <trkpt lat="45.89895" lon="3.04757">
        <ele>447.7</ele>
        <time>2018-07-01T09:42:29Z</time>
      </trkpt>
      <trkpt lat="45.89894" lon="3.04762">
        <ele>447.2</ele>
        <time>2018-07-01T09:42:32Z</time>
      </trkpt>
      <trkpt lat="45.89893" lon="3.04766">
        <ele>446.7</ele>
        <time>2018-07-01T09:42:35Z</time>
      </trkpt>
      <trkpt lat="45.8989" lon="3.04772">
        <ele>446.1</ele>
        <time>2018-07-01T09:42:39Z</time>
      </trkpt>
      <trkpt lat="45.89889" lon="3.04773">
        <ele>445.9</ele>
        <time>2018-07-01T09:42:40Z</time>
      </trkpt>
      <trkpt lat="45.89887" lon="3.04778">
        <ele>445.3</ele>
        <time>2018-07-01T09:42:43Z</time>
      </trkpt>
      <trkpt lat="45.89886" lon="3.04779">
        <ele>445.1</ele>
        <time>2018-07-01T09:42:44Z</time>
      </trkpt>
      <trkpt lat="45.89886" lon="3.04781">
        <ele>445</ele>
        <time>2018-07-01T09:42:45Z</time>
      </trkpt>
      <trkpt lat="45.89886" lon="3.04783">
        <ele>444.8</ele>
        <time>2018-07-01T09:42:46Z</time>
      </trkpt>
      <trkpt lat="45.89887" lon="3.04784">
        <ele>444.6</ele>
        <time>2018-07-01T09:42:47Z</time>
      </trkpt>
      <trkpt lat="45.8989" lon="3.0479">
        <ele>443.9</ele>
        <time>2018-07-01T09:42:51Z</time>
      </trkpt>
      <trkpt lat="45.89894" lon="3.04798">
        <ele>443</ele>
        <time>2018-07-01T09:42:57Z</time>
      </trkpt>
      <trkpt lat="45.89895" lon="3.04801">
        <ele>442.7</ele>
        <time>2018-07-01T09:42:59Z</time>
      </trkpt>
      <trkpt lat="45.89902" lon="3.04811">
        <ele>441.7</ele>
        <time>2018-07-01T09:43:06Z</time>
      </trkpt>
      <trkpt lat="45.89903" lon="3.04814">
        <ele>441.4</ele>
        <time>2018-07-01T09:43:08Z</time>
      </trkpt>
      <trkpt lat="45.89905" lon="3.04819">
        <ele>441</ele>
        <time>2018-07-01T09:43:11Z</time>
      </trkpt>
      <trkpt lat="45.89905" lon="3.04822">
        <ele>440.6</ele>
        <time>2018-07-01T09:43:13Z</time>
      </trkpt>
      <trkpt lat="45.89905" lon="3.04826">
        <ele>440.2</ele>
        <time>2018-07-01T09:43:15Z</time>
      </trkpt>
      <trkpt lat="45.89905" lon="3.04829">
        <ele>439.9</ele>
        <time>2018-07-01T09:43:17Z</time>
      </trkpt>
      <trkpt lat="45.89903" lon="3.04834">
        <ele>439.4</ele>
        <time>2018-07-01T09:43:20Z</time>
      </trkpt>
      <trkpt lat="45.89902" lon="3.04837">
        <ele>439.3</ele>
        <time>2018-07-01T09:43:22Z</time>
      </trkpt>
      <trkpt lat="45.899" lon="3.04841">
        <ele>439.2</ele>
        <time>2018-07-01T09:43:25Z</time>
      </trkpt>
      <trkpt lat="45.89897" lon="3.04846">
        <ele>439</ele>
        <time>2018-07-01T09:43:29Z</time>
      </trkpt>
      <trkpt lat="45.89894" lon="3.04849">
        <ele>438.8</ele>
        <time>2018-07-01T09:43:32Z</time>
      </trkpt>
      <trkpt lat="45.89891" lon="3.04853">
        <ele>438.6</ele>
        <time>2018-07-01T09:43:37Z</time>
      </trkpt>
      <trkpt lat="45.89889" lon="3.04854">
        <ele>438.5</ele>
        <time>2018-07-01T09:43:41Z</time>
      </trkpt>
      <trkpt lat="45.89887" lon="3.04856">
        <ele>438.3</ele>
        <time>2018-07-01T09:43:43Z</time>
      </trkpt>
      <trkpt lat="45.89882" lon="3.04859">
        <ele>438</ele>
        <time>2018-07-01T09:43:46Z</time>
      </trkpt>
      <trkpt lat="45.8988" lon="3.04861">
        <ele>437.8</ele>
        <time>2018-07-01T09:43:48Z</time>
      </trkpt>
      <trkpt lat="45.89876" lon="3.04863">
        <ele>437.5</ele>
        <time>2018-07-01T09:43:51Z</time>
      </trkpt>
      <trkpt lat="45.89873" lon="3.04864">
        <ele>437.3</ele>
        <time>2018-07-01T09:43:54Z</time>
      </trkpt>
      <trkpt lat="45.89872" lon="3.04864">
        <ele>437.2</ele>
        <time>2018-07-01T09:43:56Z</time>
      </trkpt>
      <trkpt lat="45.89867" lon="3.04864">
        <ele>436.9</ele>
        <time>2018-07-01T09:44:03Z</time>
      </trkpt>
      <trkpt lat="45.89865" lon="3.04865">
        <ele>436.7</ele>
        <time>2018-07-01T09:44:06Z</time>
      </trkpt>
      <trkpt lat="45.89863" lon="3.04865">
        <ele>436.6</ele>
        <time>2018-07-01T09:44:08Z</time>
      </trkpt>
      <trkpt lat="45.89858" lon="3.04868">
        <ele>436.1</ele>
        <time>2018-07-01T09:44:16Z</time>
      </trkpt>
      <trkpt lat="45.89855" lon="3.04871">
        <ele>435.8</ele>
        <time>2018-07-01T09:44:24Z</time>
      </trkpt>
      <trkpt lat="45.89848" lon="3.04877">
        <ele>435.1</ele>
        <time>2018-07-01T09:44:26Z</time>
      </trkpt>
      <trkpt lat="45.89841" lon="3.04884">
        <ele>434.2</ele>
        <time>2018-07-01T09:44:30Z</time>
      </trkpt>
      <trkpt lat="45.89834" lon="3.04892">
        <ele>433.2</ele>
        <time>2018-07-01T09:44:34Z</time>
      </trkpt>
      <trkpt lat="45.89831" lon="3.04896">
        <ele>433.2</ele>
        <time>2018-07-01T09:44:36Z</time>
      </trkpt>
      <trkpt lat="45.89828" lon="3.04897">
        <ele>433.3</ele>
        <time>2018-07-01T09:44:38Z</time>
      </trkpt>
      <trkpt lat="45.89827" lon="3.04898">
        <ele>433.4</ele>
        <time>2018-07-01T09:44:39Z</time>
      </trkpt>
      <trkpt lat="45.89825" lon="3.04898">
        <ele>433.5</ele>
        <time>2018-07-01T09:44:40Z</time>
      </trkpt>
      <trkpt lat="45.89822" lon="3.04897">
        <ele>433.8</ele>
        <time>2018-07-01T09:44:42Z</time>
      </trkpt>
      <trkpt lat="45.89819" lon="3.04897">
        <ele>434</ele>
        <time>2018-07-01T09:44:44Z</time>
      </trkpt>
      <trkpt lat="45.89818" lon="3.04897">
        <ele>434</ele>
        <time>2018-07-01T09:44:45Z</time>
      </trkpt>
      <trkpt lat="45.89815" lon="3.04899">
        <ele>434.1</ele>
        <time>2018-07-01T09:44:53Z</time>
      </trkpt>
      <trkpt lat="45.89815" lon="3.04899">
        <ele>434.1</ele>
        <time>2018-07-01T09:44:58Z</time>
      </trkpt>
      <trkpt lat="45.89808" lon="3.04902">
        <ele>434.2</ele>
        <time>2018-07-01T09:45:10Z</time>
      </trkpt>
      <trkpt lat="45.89802" lon="3.04905">
        <ele>434.2</ele>
        <time>2018-07-01T09:45:15Z</time>
      </trkpt>
      <trkpt lat="45.89798" lon="3.04909">
        <ele>433.9</ele>
        <time>2018-07-01T09:45:19Z</time>
      </trkpt>
      <trkpt lat="45.89794" lon="3.04912">
        <ele>433.6</ele>
        <time>2018-07-01T09:45:22Z</time>
      </trkpt>
      <trkpt lat="45.89789" lon="3.04917">
        <ele>433</ele>
        <time>2018-07-01T09:45:27Z</time>
      </trkpt>
      <trkpt lat="45.89784" lon="3.04923">
        <ele>432.9</ele>
        <time>2018-07-01T09:45:32Z</time>
      </trkpt>
      <trkpt lat="45.89779" lon="3.0493">
        <ele>432.6</ele>
        <time>2018-07-01T09:45:38Z</time>
      </trkpt>
      <trkpt lat="45.89778" lon="3.04932">
        <ele>432.5</ele>
        <time>2018-07-01T09:45:40Z</time>
      </trkpt>
    </trkseg>
  </trk>
</gpx>